| time (UTC) | temp F | wind direction | speed MPH | gust MPH | rain 1hr in | rain 24hr in | rain mn in | humidity % | barometer mb |
| 20260831171303 | 86 | 296 | 4.0 | 11.0 | 0.00 | 0.00 | 0.00 | 67 | 1015.8 |
| 20260831171203 | 86 | 296 | 4.0 | 11.0 | 0.00 | 0.00 | 0.00 | 67 | 1015.8 |
| 20260831171103 | 86 | 296 | 4.0 | 11.0 | 0.00 | 0.00 | 0.00 | 67 | 1015.8 |
| 20260831171003 | 86 | 296 | 4.0 | 11.0 | 0.00 | 0.00 | 0.00 | 67 | 1015.8 |
| 20260831170903 | 86 | 295 | 5.0 | 11.0 | 0.00 | 0.00 | 0.00 | 66 | 1015.8 |
| 20260831170803 | 86 | 295 | 5.0 | 11.0 | 0.00 | 0.00 | 0.00 | 66 | 1015.8 |
| 20260831170703 | 86 | 295 | 5.0 | 10.0 | 0.00 | 0.00 | 0.00 | 66 | 1015.8 |
| 20260831170603 | 86 | 294 | 5.0 | 10.0 | 0.00 | 0.00 | 0.00 | 66 | 1015.8 |
| 20260831170504 | 86 | 294 | 5.0 | 10.0 | 0.00 | 0.00 | 0.00 | 66 | 1015.7 |
| 20260831170403 | 86 | 295 | 5.0 | 10.0 | 0.00 | 0.00 | 0.00 | 66 | 1015.7 |
| 20260831170303 | 86 | 295 | 5.0 | 10.0 | 0.00 | 0.00 | 0.00 | 66 | 1015.7 |
| 20260831170203 | 86 | 296 | 5.0 | 10.0 | 0.00 | 0.00 | 0.00 | 66 | 1015.7 |
| 20260831170003 | 86 | 297 | 5.0 | 10.0 | 0.00 | 0.00 | 0.00 | 66 | 1015.8 |
| 20260831165903 | 86 | 298 | 4.0 | 10.0 | 0.00 | 0.00 | 0.00 | 66 | 1015.8 |
| 20260831165803 | 86 | 299 | 4.0 | 10.0 | 0.00 | 0.00 | 0.00 | 66 | 1015.7 |
| 20260831165703 | 86 | 298 | 3.0 | 10.0 | 0.00 | 0.00 | 0.00 | 66 | 1015.6 |
| 20260831165603 | 86 | 298 | 3.0 | 10.0 | 0.00 | 0.00 | 0.00 | 66 | 1015.6 |
| 20260831165503 | 86 | 299 | 3.0 | 10.0 | 0.00 | 0.00 | 0.00 | 66 | 1015.6 |
| 20260831165403 | 87 | 298 | 3.0 | 8.0 | 0.00 | 0.00 | 0.00 | 66 | 1015.7 |
| 20260831165305 | 86 | 299 | 3.0 | 8.0 | 0.00 | 0.00 | 0.00 | 66 | 1015.7 |
| 20260831165203 | 86 | 300 | 3.0 | 9.0 | 0.00 | 0.00 | 0.00 | 66 | 1015.7 |
| 20260831165103 | 86 | 299 | 3.0 | 10.0 | 0.00 | 0.00 | 0.00 | 66 | 1015.7 |
| 20260831165003 | 87 | 296 | 3.0 | 12.0 | 0.00 | 0.00 | 0.00 | 65 | 1015.6 |
| 20260831164903 | 87 | 297 | 4.0 | 12.0 | 0.00 | 0.00 | 0.00 | 66 | 1015.6 |
| 20260831164803 | 87 | 298 | 4.0 | 12.0 | 0.00 | 0.00 | 0.00 | 66 | 1015.6 |
| 20260831164703 | 87 | 299 | 4.0 | 12.0 | 0.00 | 0.00 | 0.00 | 65 | 1015.7 |
| 20260831164603 | 87 | 300 | 4.0 | 12.0 | 0.00 | 0.00 | 0.00 | 65 | 1015.6 |
| 20260831164503 | 87 | 300 | 5.0 | 12.0 | 0.00 | 0.00 | 0.00 | 65 | 1015.6 |
| 20260831164403 | 87 | 299 | 5.0 | 12.0 | 0.00 | 0.00 | 0.00 | 65 | 1015.6 |
| 20260831164303 | 87 | 299 | 5.0 | 12.0 | 0.00 | 0.00 | 0.00 | 66 | 1015.6 |
| 20260831164203 | 87 | 300 | 5.0 | 12.0 | 0.00 | 0.00 | 0.00 | 65 | 1015.7 |
| 20260831164103 | 87 | 299 | 5.0 | 12.0 | 0.00 | 0.00 | 0.00 | 65 | 1015.6 |
| 20260831164003 | 87 | 300 | 4.0 | 10.0 | 0.00 | 0.00 | 0.00 | 65 | 1015.6 |
| 20260831163903 | 87 | 299 | 4.0 | 10.0 | 0.00 | 0.00 | 0.00 | 65 | 1015.6 |
| 20260831163803 | 87 | 299 | 3.0 | 10.0 | 0.00 | 0.00 | 0.00 | 64 | 1015.6 |
| 20260831163703 | 87 | 299 | 3.0 | 10.0 | 0.00 | 0.00 | 0.00 | 64 | 1015.6 |
| 20260831163603 | 87 | 298 | 3.0 | 9.0 | 0.00 | 0.00 | 0.00 | 65 | 1015.6 |
| 20260831163503 | 87 | 297 | 3.0 | 8.0 | 0.00 | 0.00 | 0.00 | 65 | 1015.5 |
| 20260831163403 | 87 | 297 | 3.0 | 8.0 | 0.00 | 0.00 | 0.00 | 65 | 1015.6 |
| 20260831163303 | 87 | 297 | 3.0 | 8.0 | 0.00 | 0.00 | 0.00 | 65 | 1015.5 |
| 20260831163203 | 87 | 297 | 3.0 | 9.0 | 0.00 | 0.00 | 0.00 | 65 | 1015.6 |
| 20260831163103 | 87 | 297 | 3.0 | 9.0 | 0.00 | 0.00 | 0.00 | 65 | 1015.7 |
| 20260831163003 | 87 | 297 | 3.0 | 9.0 | 0.00 | 0.00 | 0.00 | 65 | 1015.6 |
| 20260831162903 | 87 | 298 | 3.0 | 9.0 | 0.00 | 0.00 | 0.00 | 65 | 1015.6 |
| 20260831162803 | 87 | 298 | 3.0 | 9.0 | 0.00 | 0.00 | 0.00 | 65 | 1015.7 |
| 20260831162703 | 87 | 299 | 3.0 | 9.0 | 0.00 | 0.00 | 0.00 | 64 | 1015.7 |
| 20260831162603 | 87 | 300 | 4.0 | 9.0 | 0.00 | 0.00 | 0.00 | 64 | 1015.7 |
| 20260831162503 | 87 | 300 | 4.0 | 9.0 | 0.00 | 0.00 | 0.00 | 64 | 1015.8 |
| 20260831162403 | 87 | 301 | 3.0 | 9.0 | 0.00 | 0.00 | 0.00 | 64 | 1015.7 |
| 20260831162305 | 87 | 302 | 4.0 | 10.0 | 0.00 | 0.00 | 0.00 | 63 | 1015.8 |
| 20260831162203 | 87 | 300 | 4.0 | 10.0 | 0.00 | 0.00 | 0.00 | 63 | 1015.8 |
| 20260831162103 | 87 | 298 | 4.0 | 10.0 | 0.00 | 0.00 | 0.00 | 63 | 1015.8 |
| 20260831162004 | 87 | 299 | 4.0 | 10.0 | 0.00 | 0.00 | 0.00 | 63 | 1015.7 |
| 20260831161904 | 87 | 300 | 4.0 | 10.0 | 0.00 | 0.00 | 0.00 | 62 | 1015.8 |
| 20260831161804 | 87 | 300 | 4.0 | 12.0 | 0.00 | 0.00 | 0.00 | 62 | 1015.7 |
| 20260831161704 | 87 | 299 | 4.0 | 12.0 | 0.00 | 0.00 | 0.00 | 62 | 1015.7 |
| 20260831161604 | 87 | 298 | 4.0 | 12.0 | 0.00 | 0.00 | 0.00 | 62 | 1015.7 |
| 20260831161504 | 87 | 299 | 4.0 | 12.0 | 0.00 | 0.00 | 0.00 | 62 | 1015.6 |
| 20260831161404 | 87 | 298 | 5.0 | 12.0 | 0.00 | 0.00 | 0.00 | 62 | 1015.6 |
| 20260831161304 | 87 | 299 | 5.0 | 12.0 | 0.00 | 0.00 | 0.00 | 62 | 1015.6 |
| 20260831161204 | 87 | 300 | 5.0 | 12.0 | 0.00 | 0.00 | 0.00 | 62 | 1015.6 |
| 20260831161104 | 87 | 302 | 5.0 | 12.0 | 0.00 | 0.00 | 0.00 | 62 | 1015.6 |
| 20260831161004 | 87 | 302 | 5.0 | 12.0 | 0.00 | 0.00 | 0.00 | 62 | 1015.6 |
| 20260831160904 | 87 | 301 | 5.0 | 12.0 | 0.00 | 0.00 | 0.00 | 62 | 1015.7 |
| 20260831160804 | 87 | 300 | 6.0 | 11.0 | 0.00 | 0.00 | 0.00 | 62 | 1015.8 |
| 20260831160704 | 87 | 301 | 6.0 | 11.0 | 0.00 | 0.00 | 0.00 | 61 | 1015.8 |
| 20260831160604 | 87 | 299 | 6.0 | 11.0 | 0.00 | 0.00 | 0.00 | 61 | 1015.8 |
| 20260831160504 | 87 | 300 | 6.0 | 11.0 | 0.00 | 0.00 | 0.00 | 61 | 1015.7 |
| 20260831160404 | 87 | 300 | 6.0 | 11.0 | 0.00 | 0.00 | 0.00 | 61 | 1015.7 |
| 20260831160304 | 87 | 299 | 5.0 | 11.0 | 0.00 | 0.00 | 0.00 | 61 | 1015.7 |
| 20260831160204 | 87 | 299 | 5.0 | 11.0 | 0.00 | 0.00 | 0.00 | 61 | 1015.6 |
| 20260831160104 | 88 | 299 | 5.0 | 11.0 | 0.00 | 0.00 | 0.00 | 61 | 1015.6 |
| 20260831160004 | 88 | 298 | 5.0 | 11.0 | 0.00 | 0.00 | 0.00 | 61 | 1015.6 |
| 20260831155904 | 88 | 298 | 5.0 | 11.0 | 0.00 | 0.00 | 0.00 | 61 | 1015.6 |
| 20260831155804 | 88 | 299 | 5.0 | 11.0 | 0.00 | 0.00 | 0.00 | 60 | 1015.6 |
| 20260831155704 | 88 | 298 | 5.0 | 11.0 | 0.00 | 0.00 | 0.00 | 60 | 1015.6 |
| 20260831155604 | 88 | 300 | 5.0 | 10.0 | 0.00 | 0.00 | 0.00 | 60 | 1015.6 |
| 20260831155504 | 88 | 297 | 5.0 | 14.0 | 0.00 | 0.00 | 0.00 | 60 | 1015.5 |
| 20260831155404 | 88 | 297 | 5.0 | 14.0 | 0.00 | 0.00 | 0.00 | 60 | 1015.7 |
| 20260831155306 | 88 | 296 | 5.0 | 14.0 | 0.00 | 0.00 | 0.00 | 60 | 1015.7 |
| 20260831155204 | 88 | 297 | 5.0 | 14.0 | 0.00 | 0.00 | 0.00 | 60 | 1015.8 |
| 20260831155104 | 88 | 298 | 5.0 | 14.0 | 0.00 | 0.00 | 0.00 | 60 | 1015.8 |
| 20260831155004 | 88 | 297 | 5.0 | 14.0 | 0.00 | 0.00 | 0.00 | 61 | 1015.8 |
| 20260831154904 | 88 | 297 | 5.0 | 14.0 | 0.00 | 0.00 | 0.00 | 60 | 1015.8 |
| 20260831154804 | 88 | 297 | 5.0 | 14.0 | 0.00 | 0.00 | 0.00 | 61 | 1015.8 |
| 20260831154704 | 88 | 297 | 5.0 | 14.0 | 0.00 | 0.00 | 0.00 | 60 | 1015.8 |
| 20260831154604 | 88 | 296 | 5.0 | 14.0 | 0.00 | 0.00 | 0.00 | 60 | 1015.8 |
| 20260831154504 | 88 | 298 | 5.0 | 9.0 | 0.00 | 0.00 | 0.00 | 60 | 1015.7 |
| 20260831154404 | 88 | 299 | 4.0 | 9.0 | 0.00 | 0.00 | 0.00 | 60 | 1015.7 |
| 20260831154304 | 88 | 297 | 4.0 | 9.0 | 0.00 | 0.00 | 0.00 | 60 | 1015.7 |
| 20260831154204 | 88 | 298 | 4.0 | 9.0 | 0.00 | 0.00 | 0.00 | 60 | 1015.7 |
| 20260831154104 | 88 | 296 | 4.0 | 9.0 | 0.00 | 0.00 | 0.00 | 61 | 1015.6 |
| 20260831154004 | 88 | 298 | 4.0 | 10.0 | 0.00 | 0.00 | 0.00 | 60 | 1015.7 |
| 20260831153904 | 88 | 300 | 4.0 | 10.0 | 0.00 | 0.00 | 0.00 | 60 | 1015.6 |
| 20260831153804 | 88 | 300 | 4.0 | 10.0 | 0.00 | 0.00 | 0.00 | 60 | 1015.7 |
| 20260831153704 | 88 | 300 | 4.0 | 10.0 | 0.00 | 0.00 | 0.00 | 60 | 1015.8 |
| 20260831153604 | 89 | 300 | 4.0 | 10.0 | 0.00 | 0.00 | 0.00 | 60 | 1015.7 |
| 20260831153504 | 89 | 301 | 4.0 | 10.0 | 0.00 | 0.00 | 0.00 | 60 | 1015.6 |
| 20260831153404 | 89 | 301 | 4.0 | 10.0 | 0.00 | 0.00 | 0.00 | 59 | 1015.6 |
| 20260831153304 | 89 | 302 | 4.0 | 10.0 | 0.00 | 0.00 | 0.00 | 59 | 1015.6 |
| 20260831153204 | 89 | 303 | 4.0 | 10.0 | 0.00 | 0.00 | 0.00 | 59 | 1015.6 |
| 20260831153104 | 89 | 303 | 4.0 | 10.0 | 0.00 | 0.00 | 0.00 | 59 | 1015.6 |
| 20260831153004 | 89 | 304 | 4.0 | 11.0 | 0.00 | 0.00 | 0.00 | 59 | 1015.7 |
| 20260831152903 | 89 | 303 | 3.0 | 11.0 | 0.00 | 0.00 | 0.00 | 58 | 1015.6 |
| 20260831152804 | 89 | 303 | 3.0 | 11.0 | 0.00 | 0.00 | 0.00 | 58 | 1015.5 |
| 20260831152703 | 89 | 302 | 4.0 | 11.0 | 0.00 | 0.00 | 0.00 | 58 | 1015.5 |
| 20260831152604 | 89 | 303 | 4.0 | 11.0 | 0.00 | 0.00 | 0.00 | 58 | 1015.5 |
| 20260831152504 | 89 | 303 | 4.0 | 11.0 | 0.00 | 0.00 | 0.00 | 58 | 1015.5 |
| 20260831152403 | 89 | 303 | 4.0 | 11.0 | 0.00 | 0.00 | 0.00 | 57 | 1015.5 |
| 20260831152306 | 89 | 303 | 4.0 | 11.0 | 0.00 | 0.00 | 0.00 | 57 | 1015.5 |
| 20260831152204 | 89 | 301 | 5.0 | 11.0 | 0.00 | 0.00 | 0.00 | 57 | 1015.5 |
| 20260831152103 | 89 | 301 | 4.0 | 11.0 | 0.00 | 0.00 | 0.00 | 57 | 1015.5 |
| 20260831152003 | 89 | 301 | 4.0 | 11.0 | 0.00 | 0.00 | 0.00 | 57 | 1015.5 |
| 20260831151904 | 89 | 300 | 4.0 | 11.0 | 0.00 | 0.00 | 0.00 | 57 | 1015.5 |
| 20260831151804 | 89 | 300 | 4.0 | 11.0 | 0.00 | 0.00 | 0.00 | 57 | 1015.4 |
| 20260831151703 | 89 | 301 | 3.0 | 12.0 | 0.00 | 0.00 | 0.00 | 57 | 1015.4 |
| 20260831151604 | 89 | 300 | 3.0 | 12.0 | 0.00 | 0.00 | 0.00 | 57 | 1015.5 |
| 20260831151503 | 89 | 299 | 3.0 | 12.0 | 0.00 | 0.00 | 0.00 | 58 | 1015.5 |
| 20260831151403 | 89 | 298 | 3.0 | 12.0 | 0.00 | 0.00 | 0.00 | 57 | 1015.5 |
| 20260831151303 | 89 | 299 | 3.0 | 12.0 | 0.00 | 0.00 | 0.00 | 57 | 1015.4 |
| 20260831151203 | 89 | 300 | 3.0 | 12.0 | 0.00 | 0.00 | 0.00 | 57 | 1015.4 |
| 20260831151103 | 89 | 300 | 3.0 | 12.0 | 0.00 | 0.00 | 0.00 | 57 | 1015.5 |
| 20260831151003 | 89 | 299 | 3.0 | 12.0 | 0.00 | 0.00 | 0.00 | 57 | 1015.4 |
| 20260831150903 | 89 | 300 | 4.0 | 12.0 | 0.00 | 0.00 | 0.00 | 57 | 1015.4 |
| 20260831150803 | 89 | 300 | 4.0 | 12.0 | 0.00 | 0.00 | 0.00 | 57 | 1015.4 |
| 20260831150703 | 89 | 300 | 3.0 | 9.0 | 0.00 | 0.00 | 0.00 | 57 | 1015.4 |
| 20260831150603 | 89 | 300 | 3.0 | 9.0 | 0.00 | 0.00 | 0.00 | 57 | 1015.4 |
| 20260831150503 | 89 | 301 | 3.0 | 9.0 | 0.00 | 0.00 | 0.00 | 57 | 1015.5 |
| 20260831150404 | 89 | 299 | 3.0 | 11.0 | 0.00 | 0.00 | 0.00 | 57 | 1015.4 |
| 20260831150303 | 89 | 298 | 4.0 | 11.0 | 0.00 | 0.00 | 0.00 | 57 | 1015.4 |
| 20260831150203 | 89 | 296 | 4.0 | 11.0 | 0.00 | 0.00 | 0.00 | 57 | 1015.4 |
| 20260831150103 | 89 | 297 | 4.0 | 11.0 | 0.00 | 0.00 | 0.00 | 57 | 1015.3 |
| 20260831150004 | 89 | 297 | 4.0 | 11.0 | 0.00 | 0.00 | 0.00 | 57 | 1015.5 |
| 20260831145903 | 89 | 297 | 5.0 | 11.0 | 0.00 | 0.00 | 0.00 | 57 | 1015.4 |
| 20260831145803 | 89 | 297 | 5.0 | 11.0 | 0.00 | 0.00 | 0.00 | 57 | 1015.4 |
| 20260831145703 | 89 | 297 | 5.0 | 11.0 | 0.00 | 0.00 | 0.00 | 57 | 1015.5 |
| 20260831145603 | 89 | 299 | 6.0 | 11.0 | 0.00 | 0.00 | 0.00 | 57 | 1015.3 |
| 20260831145503 | 89 | 299 | 6.0 | 11.0 | 0.00 | 0.00 | 0.00 | 57 | 1015.5 |
| 20260831145403 | 89 | 300 | 6.0 | 10.0 | 0.00 | 0.00 | 0.00 | 57 | 1015.5 |
| 20260831145306 | 89 | 300 | 6.0 | 10.0 | 0.00 | 0.00 | 0.00 | 57 | 1015.4 |
| 20260831145203 | 89 | 299 | 6.0 | 10.0 | 0.00 | 0.00 | 0.00 | 57 | 1015.4 |
| 20260831145103 | 89 | 299 | 6.0 | 10.0 | 0.00 | 0.00 | 0.00 | 57 | 1015.4 |
| 20260831145003 | 90 | 299 | 5.0 | 10.0 | 0.00 | 0.00 | 0.00 | 56 | 1015.4 |
| 20260831144903 | 34 | 298 | 5.0 | 10.0 | 0.00 | 0.00 | 0.00 | 56 | 1015.3 |
| 20260831144803 | 90 | 298 | 5.0 | 10.0 | 0.00 | 0.00 | 0.00 | 56 | 1015.3 |
| 20260831144703 | 90 | 300 | 5.0 | 11.0 | 0.00 | 0.00 | 0.00 | 56 | 1015.3 |
| 20260831144603 | 90 | 298 | 5.0 | 11.0 | 0.00 | 0.00 | 0.00 | 56 | 1015.3 |
| 20260831144503 | 90 | 296 | 5.0 | 11.0 | 0.00 | 0.00 | 0.00 | 56 | 1015.4 |
| 20260831144403 | 90 | 297 | 5.0 | 11.0 | 0.00 | 0.00 | 0.00 | 56 | 1015.4 |
| 20260831144303 | 90 | 297 | 4.0 | 11.0 | 0.00 | 0.00 | 0.00 | 56 | 1015.4 |
| 20260831144203 | 90 | 297 | 4.0 | 11.0 | 0.00 | 0.00 | 0.00 | 55 | 1015.4 |
| 20260831144103 | 90 | 297 | 4.0 | 11.0 | 0.00 | 0.00 | 0.00 | 55 | 1015.3 |
| 20260831144003 | 90 | 299 | 4.0 | 15.0 | 0.00 | 0.00 | 0.00 | 55 | 1015.4 |
| 20260831143903 | 90 | 299 | 5.0 | 15.0 | 0.00 | 0.00 | 0.00 | 55 | 1015.4 |
| 20260831143803 | 90 | 300 | 4.0 | 15.0 | 0.00 | 0.00 | 0.00 | 55 | 1015.4 |
| 20260831143703 | 90 | 300 | 4.0 | 15.0 | 0.00 | 0.00 | 0.00 | 55 | 1015.5 |
| 20260831143603 | 90 | 301 | 4.0 | 15.0 | 0.00 | 0.00 | 0.00 | 55 | 1015.5 |
| 20260831143503 | 90 | 300 | 4.0 | 15.0 | 0.00 | 0.00 | 0.00 | 55 | 1015.5 |
| 20260831143403 | 90 | 300 | 4.0 | 15.0 | 0.00 | 0.00 | 0.00 | 55 | 1015.4 |
| 20260831143303 | 90 | 301 | 4.0 | 15.0 | 0.00 | 0.00 | 0.00 | 55 | 1015.5 |
| 20260831143203 | 90 | 303 | 4.0 | 15.0 | 0.00 | 0.00 | 0.00 | 54 | 1015.6 |
| 20260831143103 | 90 | 303 | 3.0 | 15.0 | 0.00 | 0.00 | 0.00 | 54 | 1015.6 |
| 20260831143003 | 90 | 304 | 3.0 | 7.0 | 0.00 | 0.00 | 0.00 | 53 | 1015.5 |
| 20260831142903 | 90 | 303 | 3.0 | 7.0 | 0.00 | 0.00 | 0.00 | 53 | 1015.5 |
| 20260831142803 | 90 | 303 | 3.0 | 7.0 | 0.00 | 0.00 | 0.00 | 53 | 1015.5 |
| 20260831142703 | 90 | 302 | 3.0 | 9.0 | 0.00 | 0.00 | 0.00 | 53 | 1015.5 |
| 20260831142603 | 91 | 304 | 3.0 | 9.0 | 0.00 | 0.00 | 0.00 | 53 | 1015.5 |
| 20260831142503 | 91 | 307 | 3.0 | 9.0 | 0.00 | 0.00 | 0.00 | 53 | 1015.6 |
| 20260831142403 | 91 | 306 | 3.0 | 9.0 | 0.00 | 0.00 | 0.00 | 53 | 1015.5 |
| 20260831142306 | 91 | 306 | 3.0 | 9.0 | 0.00 | 0.00 | 0.00 | 53 | 1015.6 |
| 20260831142203 | 91 | 303 | 3.0 | 9.0 | 0.00 | 0.00 | 0.00 | 54 | 1015.5 |
| 20260831142103 | 91 | 301 | 3.0 | 9.0 | 0.00 | 0.00 | 0.00 | 54 | 1015.5 |
| 20260831142003 | 91 | 300 | 3.0 | 9.0 | 0.00 | 0.00 | 0.00 | 53 | 1015.5 |
| 20260831141903 | 90 | 300 | 3.0 | 9.0 | 0.00 | 0.00 | 0.00 | 53 | 1015.5 |
| 20260831141803 | 91 | 301 | 4.0 | 9.0 | 0.00 | 0.00 | 0.00 | 53 | 1015.5 |
| 20260831141703 | 91 | 301 | 4.0 | 9.0 | 0.00 | 0.00 | 0.00 | 54 | 1015.5 |
| 20260831141603 | 90 | 298 | 3.0 | 9.0 | 0.00 | 0.00 | 0.00 | 54 | 1015.5 |
| 20260831141503 | 90 | 298 | 3.0 | 9.0 | 0.00 | 0.00 | 0.00 | 54 | 1015.5 |
| 20260831141403 | 90 | 299 | 3.0 | 9.0 | 0.00 | 0.00 | 0.00 | 54 | 1015.5 |
| 20260831141303 | 91 | 300 | 3.0 | 9.0 | 0.00 | 0.00 | 0.00 | 54 | 1015.6 |
| 20260831141203 | 91 | 301 | 3.0 | 9.0 | 0.00 | 0.00 | 0.00 | 54 | 1015.6 |
| 20260831141103 | 91 | 300 | 3.0 | 9.0 | 0.00 | 0.00 | 0.00 | 54 | 1015.5 |
| 20260831141003 | 91 | 299 | 3.0 | 9.0 | 0.00 | 0.00 | 0.00 | 54 | 1015.6 |
| 20260831140903 | 91 | 300 | 3.0 | 9.0 | 0.00 | 0.00 | 0.00 | 53 | 1015.5 |
| 20260831140803 | 91 | 299 | 3.0 | 9.0 | 0.00 | 0.00 | 0.00 | 53 | 1015.6 |
| 20260831140703 | 91 | 300 | 3.0 | 11.0 | 0.00 | 0.00 | 0.00 | 53 | 1015.5 |
| 20260831140603 | 91 | 301 | 3.0 | 11.0 | 0.00 | 0.00 | 0.00 | 53 | 1015.6 |
| 20260831140503 | 91 | 301 | 3.0 | 11.0 | 0.00 | 0.00 | 0.00 | 53 | 1015.6 |
| 20260831140403 | 91 | 299 | 3.0 | 11.0 | 0.00 | 0.00 | 0.00 | 53 | 1015.5 |
| 20260831140303 | 91 | 299 | 4.0 | 11.0 | 0.00 | 0.00 | 0.00 | 53 | 1015.7 |
| 20260831140203 | 91 | 299 | 4.0 | 11.0 | 0.00 | 0.00 | 0.00 | 53 | 1015.6 |
| 20260831140003 | 91 | 300 | 4.0 | 11.0 | 0.00 | 0.00 | 0.00 | 53 | 1015.6 |
| 20260831135903 | 91 | 299 | 4.0 | 11.0 | 0.00 | 0.00 | 0.00 | 53 | 1015.6 |
| 20260831135803 | 91 | 300 | 3.0 | 11.0 | 0.00 | 0.00 | 0.00 | 53 | 1015.6 |
| 20260831135703 | 91 | 300 | 3.0 | 8.0 | 0.00 | 0.00 | 0.00 | 53 | 1015.5 |
| 20260831135603 | 91 | 298 | 3.0 | 8.0 | 0.00 | 0.00 | 0.00 | 53 | 1015.6 |
| 20260831135503 | 91 | 298 | 3.0 | 8.0 | 0.00 | 0.00 | 0.00 | 52 | 1015.6 |
| 20260831135403 | 91 | 298 | 2.0 | 8.0 | 0.00 | 0.00 | 0.00 | 51 | 1015.6 |
| 20260831135306 | 91 | 299 | 2.0 | 8.0 | 0.00 | 0.00 | 0.00 | 51 | 1015.6 |
| 20260831135203 | 91 | 302 | 2.0 | 8.0 | 0.00 | 0.00 | 0.00 | 51 | 1015.5 |
| 20260831135103 | 91 | 301 | 2.0 | 8.0 | 0.00 | 0.00 | 0.00 | 51 | 1015.6 |
| 20260831135003 | 91 | 305 | 2.0 | 7.0 | 0.00 | 0.00 | 0.00 | 51 | 1015.6 |
| 20260831134903 | 91 | 308 | 2.0 | 9.0 | 0.00 | 0.00 | 0.00 | 51 | 1015.6 |
| 20260831134803 | 91 | 309 | 2.0 | 9.0 | 0.00 | 0.00 | 0.00 | 51 | 1015.6 |
| 20260831134703 | 91 | 308 | 2.0 | 9.0 | 0.00 | 0.00 | 0.00 | 51 | 1015.6 |
| 20260831134603 | 91 | 307 | 2.0 | 9.0 | 0.00 | 0.00 | 0.00 | 51 | 1015.5 |
| 20260831134503 | 91 | 306 | 3.0 | 10.0 | 0.00 | 0.00 | 0.00 | 51 | 1015.5 |
| 20260831134403 | 91 | 305 | 3.0 | 10.0 | 0.00 | 0.00 | 0.00 | 50 | 1015.6 |
| 20260831134303 | 91 | 303 | 3.0 | 10.0 | 0.00 | 0.00 | 0.00 | 50 | 1015.5 |
| 20260831134203 | 91 | 302 | 4.0 | 10.0 | 0.00 | 0.00 | 0.00 | 50 | 1015.5 |
| 20260831134104 | 91 | 303 | 4.0 | 10.0 | 0.00 | 0.00 | 0.00 | 51 | 1015.5 |
| 20260831134004 | 91 | 301 | 5.0 | 10.0 | 0.00 | 0.00 | 0.00 | 51 | 1015.5 |
| 20260831133904 | 91 | 300 | 5.0 | 10.0 | 0.00 | 0.00 | 0.00 | 51 | 1015.5 |
| 20260831133804 | 91 | 300 | 4.0 | 10.0 | 0.00 | 0.00 | 0.00 | 51 | 1015.5 |
| 20260831133704 | 91 | 300 | 4.0 | 10.0 | 0.00 | 0.00 | 0.00 | 51 | 1015.5 |
| 20260831133604 | 91 | 300 | 4.0 | 10.0 | 0.00 | 0.00 | 0.00 | 51 | 1015.5 |
| 20260831133504 | 92 | 299 | 4.0 | 10.0 | 0.00 | 0.00 | 0.00 | 50 | 1015.6 |
| 20260831133404 | 92 | 300 | 4.0 | 11.0 | 0.00 | 0.00 | 0.00 | 50 | 1015.6 |
| 20260831133304 | 92 | 300 | 4.0 | 11.0 | 0.00 | 0.00 | 0.00 | 50 | 1015.5 |
| 20260831133204 | 92 | 300 | 4.0 | 11.0 | 0.00 | 0.00 | 0.00 | 49 | 1015.5 |
| 20260831133104 | 92 | 299 | 4.0 | 11.0 | 0.00 | 0.00 | 0.00 | 48 | 1015.5 |
| 20260831133004 | 92 | 300 | 3.0 | 11.0 | 0.00 | 0.00 | 0.00 | 48 | 1015.6 |
| 20260831132904 | 92 | 300 | 3.0 | 11.0 | 0.00 | 0.00 | 0.00 | 48 | 1015.6 |
| 20260831132804 | 92 | 300 | 3.0 | 11.0 | 0.00 | 0.00 | 0.00 | 48 | 1015.6 |
| 20260831132704 | 92 | 299 | 3.0 | 11.0 | 0.00 | 0.00 | 0.00 | 47 | 1015.5 |
| 20260831132604 | 92 | 298 | 3.0 | 11.0 | 0.00 | 0.00 | 0.00 | 47 | 1015.5 |
| 20260831132504 | 92 | 299 | 3.0 | 11.0 | 0.00 | 0.00 | 0.00 | 47 | 1015.6 |
| 20260831132404 | 92 | 298 | 3.0 | 8.0 | 0.00 | 0.00 | 0.00 | 46 | 1015.5 |
| 20260831132306 | 92 | 299 | 3.0 | 8.0 | 0.00 | 0.00 | 0.00 | 45 | 1015.5 |
| 20260831132204 | 92 | 299 | 3.0 | 8.0 | 0.00 | 0.00 | 0.00 | 45 | 1015.5 |
| 20260831132104 | 92 | 298 | 3.0 | 8.0 | 0.00 | 0.00 | 0.00 | 45 | 1015.6 |
| 20260831132004 | 92 | 298 | 3.0 | 8.0 | 0.00 | 0.00 | 0.00 | 45 | 1015.6 |
| 20260831131904 | 92 | 298 | 2.0 | 8.0 | 0.00 | 0.00 | 0.00 | 46 | 1015.6 |
| 20260831131804 | 92 | 297 | 3.0 | 9.0 | 0.00 | 0.00 | 0.00 | 46 | 1015.6 |
| 20260831131704 | 92 | 299 | 3.0 | 10.0 | 0.00 | 0.00 | 0.00 | 46 | 1015.5 |
| 20260831131604 | 92 | 300 | 3.0 | 10.0 | 0.00 | 0.00 | 0.00 | 46 | 1015.5 |
| 20260831131504 | 92 | 301 | 3.0 | 10.0 | 0.00 | 0.00 | 0.00 | 45 | 1015.5 |
| 20260831131404 | 92 | 302 | 3.0 | 10.0 | 0.00 | 0.00 | 0.00 | 45 | 1015.5 |
| 20260831131304 | 92 | 301 | 4.0 | 10.0 | 0.00 | 0.00 | 0.00 | 44 | 1015.6 |
| 20260831131204 | 92 | 300 | 3.0 | 10.0 | 0.00 | 0.00 | 0.00 | 44 | 1015.5 |
| 20260831131104 | 93 | 300 | 3.0 | 10.0 | 0.00 | 0.00 | 0.00 | 44 | 1015.5 |
| 20260831131004 | 93 | 302 | 3.0 | 10.0 | 0.00 | 0.00 | 0.00 | 45 | 1015.7 |
| 20260831130904 | 93 | 302 | 4.0 | 10.0 | 0.00 | 0.00 | 0.00 | 45 | 1015.7 |
| 20260831130804 | 93 | 304 | 3.0 | 10.0 | 0.00 | 0.00 | 0.00 | 44 | 1015.7 |
| 20260831130704 | 93 | 302 | 3.0 | 7.0 | 0.00 | 0.00 | 0.00 | 44 | 1015.8 |
| 20260831130604 | 93 | 301 | 3.0 | 7.0 | 0.00 | 0.00 | 0.00 | 44 | 1015.7 |
| 20260831130504 | 93 | 300 | 3.0 | 7.0 | 0.00 | 0.00 | 0.00 | 44 | 1015.6 |
| 20260831130404 | 93 | 299 | 3.0 | 7.0 | 0.00 | 0.00 | 0.00 | 44 | 1015.6 |
| 20260831130304 | 93 | 301 | 3.0 | 7.0 | 0.00 | 0.00 | 0.00 | 43 | 1015.5 |
| 20260831130204 | 93 | 301 | 3.0 | 7.0 | 0.00 | 0.00 | 0.00 | 44 | 1015.5 |
| 20260831130104 | 93 | 301 | 3.0 | 7.0 | 0.00 | 0.00 | 0.00 | 43 | 1015.6 |
| 20260831130004 | 93 | 299 | 2.0 | 7.0 | 0.00 | 0.00 | 0.00 | 43 | 1015.5 |
| 20260831125904 | 93 | 297 | 2.0 | 7.0 | 0.00 | 0.00 | 0.00 | 43 | 1015.6 |
| 20260831125804 | 93 | 297 | 2.0 | 7.0 | 0.00 | 0.00 | 0.00 | 42 | 1015.7 |
| 20260831125704 | 93 | 298 | 2.0 | 7.0 | 0.00 | 0.00 | 0.00 | 43 | 1015.7 |
| 20260831125604 | 93 | 299 | 2.0 | 7.0 | 0.00 | 0.00 | 0.00 | 42 | 1015.7 |
| 20260831125504 | 93 | 299 | 1.0 | 7.0 | 0.00 | 0.00 | 0.00 | 42 | 1015.6 |
| 20260831125404 | 93 | 300 | 1.0 | 5.0 | 0.00 | 0.00 | 0.00 | 41 | 1015.6 |
| 20260831125306 | 93 | 299 | 1.0 | 5.0 | 0.00 | 0.00 | 0.00 | 41 | 1015.6 |
| 20260831125204 | 93 | 300 | 1.0 | 6.0 | 0.00 | 0.00 | 0.00 | 40 | 1015.5 |
| 20260831125103 | 93 | 297 | 1.0 | 7.0 | 0.00 | 0.00 | 0.00 | 40 | 1015.5 |
| 20260831125004 | 93 | 296 | 2.0 | 9.0 | 0.00 | 0.00 | 0.00 | 39 | 1015.5 |
| 20260831124904 | 93 | 297 | 1.0 | 9.0 | 0.00 | 0.00 | 0.00 | 38 | 1015.5 |
| 20260831124804 | 93 | 296 | 1.0 | 9.0 | 0.00 | 0.00 | 0.00 | 39 | 1015.6 |
| 20260831124703 | 93 | 295 | 1.0 | 9.0 | 0.00 | 0.00 | 0.00 | 39 | 1015.5 |
| 20260831124603 | 93 | 295 | 1.0 | 9.0 | 0.00 | 0.00 | 0.00 | 39 | 1015.6 |
| 20260831124503 | 93 | 295 | 1.0 | 9.0 | 0.00 | 0.00 | 0.00 | 38 | 1015.5 |
| 20260831124403 | 93 | 294 | 1.0 | 9.0 | 0.00 | 0.00 | 0.00 | 38 | 1015.6 |
| 20260831124303 | 93 | 294 | 1.0 | 9.0 | 0.00 | 0.00 | 0.00 | 38 | 1015.6 |
| 20260831124203 | 93 | 292 | 1.0 | 9.0 | 0.00 | 0.00 | 0.00 | 38 | 1015.5 |
| 20260831124103 | 93 | 293 | 1.0 | 9.0 | 0.00 | 0.00 | 0.00 | 38 | 1015.5 |
| 20260831124003 | 93 | 294 | 1.0 | 6.0 | 0.00 | 0.00 | 0.00 | 38 | 1015.5 |
| 20260831123903 | 93 | 294 | 1.0 | 6.0 | 0.00 | 0.00 | 0.00 | 39 | 1015.5 |
| 20260831123803 | 93 | 294 | 1.0 | 6.0 | 0.00 | 0.00 | 0.00 | 40 | 1015.5 |
| 20260831123703 | 93 | 298 | 1.0 | 6.0 | 0.00 | 0.00 | 0.00 | 40 | 1015.5 |
| 20260831123603 | 93 | 300 | 1.0 | 6.0 | 0.00 | 0.00 | 0.00 | 40 | 1015.4 |
| 20260831123503 | 93 | 296 | 1.0 | 6.0 | 0.00 | 0.00 | 0.00 | 39 | 1015.5 |
| 20260831123403 | 93 | 296 | 1.0 | 6.0 | 0.00 | 0.00 | 0.00 | 39 | 1015.5 |
| 20260831123303 | 93 | 297 | 1.0 | 6.0 | 0.00 | 0.00 | 0.00 | 39 | 1015.5 |
| 20260831123203 | 93 | 303 | 1.0 | 6.0 | 0.00 | 0.00 | 0.00 | 40 | 1015.4 |
| 20260831123103 | 93 | 315 | 0.0 | 5.0 | 0.00 | 0.00 | 0.00 | 41 | 1015.4 |
| 20260831123003 | 93 | 305 | 0.0 | 5.0 | 0.00 | 0.00 | 0.00 | 41 | 1015.6 |
| 20260831122903 | 93 | 303 | 0.0 | 5.0 | 0.00 | 0.00 | 0.00 | 40 | 1015.6 |
| 20260831122803 | 93 | 303 | 1.0 | 5.0 | 0.00 | 0.00 | 0.00 | 40 | 1015.6 |
| 20260831122703 | 93 | 324 | 1.0 | 5.0 | 0.00 | 0.00 | 0.00 | 40 | 1015.5 |
| 20260831122603 | 93 | 311 | 1.0 | 5.0 | 0.00 | 0.00 | 0.00 | 40 | 1015.5 |
| 20260831122503 | 93 | 315 | 1.0 | 6.0 | 0.00 | 0.00 | 0.00 | 40 | 1015.6 |
| 20260831122403 | 93 | 320 | 1.0 | 6.0 | 0.00 | 0.00 | 0.00 | 40 | 1015.6 |
| 20260831122305 | 93 | 330 | 1.0 | 6.0 | 0.00 | 0.00 | 0.00 | 42 | 1015.6 |
| 20260831122203 | 93 | 28 | 1.0 | 6.0 | 0.00 | 0.00 | 0.00 | 42 | 1015.6 |
| 20260831122103 | 93 | 22 | 1.0 | 6.0 | 0.00 | 0.00 | 0.00 | 41 | 1015.6 |
| 20260831122003 | 93 | 56 | 1.0 | 6.0 | 0.00 | 0.00 | 0.00 | 41 | 1015.6 |
| 20260831121903 | 93 | 49 | 1.0 | 6.0 | 0.00 | 0.00 | 0.00 | 39 | 1015.5 |
| 20260831121803 | 93 | 27 | 1.0 | 6.0 | 0.00 | 0.00 | 0.00 | 39 | 1015.6 |
| 20260831121703 | 93 | 325 | 1.0 | 6.0 | 0.00 | 0.00 | 0.00 | 39 | 1015.6 |
| 20260831121603 | 93 | 349 | 0.0 | 6.0 | 0.00 | 0.00 | 0.00 | 41 | 1015.6 |
| 20260831121503 | 93 | 108 | 0.0 | 3.0 | 0.00 | 0.00 | 0.00 | 40 | 1015.7 |
| 20260831121403 | 93 | 99 | 0.0 | 3.0 | 0.00 | 0.00 | 0.00 | 40 | 1015.6 |
| 20260831121303 | 93 | 115 | 0.0 | 3.0 | 0.00 | 0.00 | 0.00 | 40 | 1015.5 |
| 20260831121203 | 93 | 114 | 0.0 | 3.0 | 0.00 | 0.00 | 0.00 | 40 | 1015.6 |
| 20260831121103 | 93 | 116 | 0.0 | 3.0 | 0.00 | 0.00 | 0.00 | 39 | 1015.6 |
| 20260831121003 | 93 | 114 | 1.0 | 4.0 | 0.00 | 0.00 | 0.00 | 39 | 1015.6 |
| 20260831120903 | 93 | 113 | 1.0 | 4.0 | 0.00 | 0.00 | 0.00 | 40 | 1015.6 |
| 20260831120803 | 93 | 113 | 1.0 | 4.0 | 0.00 | 0.00 | 0.00 | 40 | 1015.7 |
| 20260831120703 | 93 | 113 | 1.0 | 4.0 | 0.00 | 0.00 | 0.00 | 41 | 1015.6 |
| 20260831120603 | 93 | 114 | 1.0 | 4.0 | 0.00 | 0.00 | 0.00 | 41 | 1015.6 |
| 20260831120503 | 93 | 113 | 1.0 | 4.0 | 0.00 | 0.00 | 0.00 | 40 | 1015.7 |
| 20260831120403 | 93 | 112 | 1.0 | 4.0 | 0.00 | 0.00 | 0.00 | 39 | 1015.6 |
| 20260831120303 | 93 | 112 | 1.0 | 4.0 | 0.00 | 0.00 | 0.00 | 38 | 1015.7 |
| 20260831120203 | 93 | 109 | 1.0 | 6.0 | 0.00 | 0.00 | 0.00 | 38 | 1015.7 |
| 20260831120103 | 93 | 97 | 1.0 | 6.0 | 0.00 | 0.00 | 0.00 | 38 | 1015.6 |
| 20260831120003 | 93 | 356 | 1.0 | 6.0 | 0.00 | 0.00 | 0.00 | 38 | 1015.5 |
| 20260831115903 | 93 | 319 | 2.0 | 6.0 | 0.00 | 0.00 | 0.00 | 38 | 1015.7 |
| 20260831115803 | 93 | 310 | 2.0 | 6.0 | 0.00 | 0.00 | 0.00 | 38 | 1015.6 |
| 20260831115703 | 93 | 313 | 2.0 | 6.0 | 0.00 | 0.00 | 0.00 | 36 | 1015.6 |
| 20260831115603 | 93 | 313 | 3.0 | 6.0 | 0.00 | 0.00 | 0.00 | 36 | 1015.6 |
| 20260831115503 | 93 | 315 | 3.0 | 6.0 | 0.00 | 0.00 | 0.00 | 37 | 1015.7 |
| 20260831115403 | 93 | 312 | 3.0 | 6.0 | 0.00 | 0.00 | 0.00 | 36 | 1015.7 |
| 20260831115306 | 93 | 309 | 2.0 | 6.0 | 0.00 | 0.00 | 0.00 | 36 | 1015.7 |
| 20260831115203 | 93 | 309 | 2.0 | 6.0 | 0.00 | 0.00 | 0.00 | 36 | 1015.7 |
| 20260831115103 | 93 | 311 | 2.0 | 6.0 | 0.00 | 0.00 | 0.00 | 36 | 1015.7 |
| 20260831115003 | 93 | 313 | 2.0 | 6.0 | 0.00 | 0.00 | 0.00 | 36 | 1015.7 |
| 20260831114903 | 93 | 315 | 2.0 | 6.0 | 0.00 | 0.00 | 0.00 | 36 | 1015.6 |
| 20260831114803 | 93 | 324 | 1.0 | 6.0 | 0.00 | 0.00 | 0.00 | 36 | 1015.5 |
| 20260831114703 | 93 | 329 | 1.0 | 6.0 | 0.00 | 0.00 | 0.00 | 36 | 1015.6 |
| 20260831114603 | 93 | 336 | 1.0 | 6.0 | 0.00 | 0.00 | 0.00 | 36 | 1015.5 |
| 20260831114503 | 93 | 320 | 1.0 | 6.0 | 0.00 | 0.00 | 0.00 | 36 | 1015.6 |
| 20260831114403 | 93 | 303 | 1.0 | 6.0 | 0.00 | 0.00 | 0.00 | 36 | 1015.6 |
| 20260831114303 | 93 | 305 | 1.0 | 6.0 | 0.00 | 0.00 | 0.00 | 35 | 1015.6 |
| 20260831114203 | 93 | 302 | 1.0 | 6.0 | 0.00 | 0.00 | 0.00 | 35 | 1015.5 |
| 20260831114103 | 93 | 299 | 1.0 | 6.0 | 0.00 | 0.00 | 0.00 | 35 | 1015.6 |
| 20260831114003 | 93 | 301 | 1.0 | 6.0 | 0.00 | 0.00 | 0.00 | 35 | 1015.5 |
| 20260831113903 | 93 | 297 | 1.0 | 8.0 | 0.00 | 0.00 | 0.00 | 35 | 1015.6 |
| 20260831113803 | 93 | 296 | 2.0 | 8.0 | 0.00 | 0.00 | 0.00 | 35 | 1015.6 |
| 20260831113703 | 93 | 296 | 2.0 | 8.0 | 0.00 | 0.00 | 0.00 | 35 | 1015.7 |
| 20260831113603 | 93 | 297 | 2.0 | 8.0 | 0.00 | 0.00 | 0.00 | 35 | 1015.7 |
| 20260831113503 | 93 | 297 | 3.0 | 8.0 | 0.00 | 0.00 | 0.00 | 35 | 1015.7 |
| 20260831113403 | 93 | 299 | 3.0 | 9.0 | 0.00 | 0.00 | 0.00 | 35 | 1015.6 |
| 20260831113303 | 93 | 298 | 3.0 | 12.0 | 0.00 | 0.00 | 0.00 | 35 | 1015.5 |
| 20260831113203 | 93 | 299 | 4.0 | 12.0 | 0.00 | 0.00 | 0.00 | 35 | 1015.4 |
| 20260831113103 | 93 | 300 | 4.0 | 12.0 | 0.00 | 0.00 | 0.00 | 34 | 1015.4 |
| 20260831113003 | 93 | 299 | 4.0 | 12.0 | 0.00 | 0.00 | 0.00 | 34 | 1015.5 |
| 20260831112903 | 93 | 301 | 4.0 | 12.0 | 0.00 | 0.00 | 0.00 | 34 | 1015.3 |
| 20260831112803 | 93 | 301 | 4.0 | 12.0 | 0.00 | 0.00 | 0.00 | 34 | 1015.4 |
| 20260831112703 | 93 | 301 | 4.0 | 12.0 | 0.00 | 0.00 | 0.00 | 34 | 1015.5 |
| 20260831112603 | 93 | 302 | 4.0 | 12.0 | 0.00 | 0.00 | 0.00 | 33 | 1015.5 |
| 20260831112503 | 93 | 301 | 4.0 | 12.0 | 0.00 | 0.00 | 0.00 | 32 | 1015.5 |
| 20260831112403 | 93 | 299 | 4.0 | 12.0 | 0.00 | 0.00 | 0.00 | 34 | 1015.5 |
| 20260831112306 | 93 | 298 | 3.0 | 11.0 | 0.00 | 0.00 | 0.00 | 34 | 1015.3 |
| 20260831112203 | 93 | 298 | 3.0 | 11.0 | 0.00 | 0.00 | 0.00 | 34 | 1015.5 |
| 20260831112103 | 93 | 297 | 3.0 | 11.0 | 0.00 | 0.00 | 0.00 | 34 | 1015.4 |
| 20260831112003 | 93 | 298 | 4.0 | 11.0 | 0.00 | 0.00 | 0.00 | 34 | 1015.4 |
| 20260831111903 | 93 | 298 | 4.0 | 11.0 | 0.00 | 0.00 | 0.00 | 34 | 1015.4 |
| 20260831111803 | 93 | 298 | 4.0 | 11.0 | 0.00 | 0.00 | 0.00 | 34 | 1015.5 |
| 20260831111703 | 93 | 299 | 4.0 | 11.0 | 0.00 | 0.00 | 0.00 | 34 | 1015.4 |
| 20260831111603 | 93 | 300 | 3.0 | 10.0 | 0.00 | 0.00 | 0.00 | 34 | 1015.5 |
| 20260831111503 | 93 | 304 | 3.0 | 8.0 | 0.00 | 0.00 | 0.00 | 34 | 1015.5 |
| 20260831111403 | 93 | 303 | 3.0 | 8.0 | 0.00 | 0.00 | 0.00 | 34 | 1015.5 |
| 20260831111303 | 93 | 305 | 3.0 | 8.0 | 0.00 | 0.00 | 0.00 | 34 | 1015.5 |
| 20260831111203 | 93 | 304 | 3.0 | 9.0 | 0.00 | 0.00 | 0.00 | 34 | 1015.5 |
| 20260831111104 | 93 | 305 | 3.0 | 14.0 | 0.00 | 0.00 | 0.00 | 34 | 1015.5 |
| 20260831111004 | 93 | 303 | 4.0 | 14.0 | 0.00 | 0.00 | 0.00 | 35 | 1015.5 |
| 20260831110904 | 93 | 303 | 4.0 | 14.0 | 0.00 | 0.00 | 0.00 | 35 | 1015.6 |
| 20260831110804 | 93 | 304 | 4.0 | 14.0 | 0.00 | 0.00 | 0.00 | 35 | 1015.6 |
| 20260831110704 | 93 | 303 | 4.0 | 14.0 | 0.00 | 0.00 | 0.00 | 34 | 1015.6 |
| 20260831110604 | 93 | 301 | 5.0 | 14.0 | 0.00 | 0.00 | 0.00 | 34 | 1015.6 |
| 20260831110504 | 93 | 302 | 5.0 | 14.0 | 0.00 | 0.00 | 0.00 | 34 | 1015.5 |
| 20260831110404 | 93 | 303 | 4.0 | 14.0 | 0.00 | 0.00 | 0.00 | 34 | 1015.5 |
| 20260831110304 | 93 | 302 | 5.0 | 14.0 | 0.00 | 0.00 | 0.00 | 34 | 1015.6 |
| 20260831110204 | 93 | 303 | 4.0 | 14.0 | 0.00 | 0.00 | 0.00 | 34 | 1015.6 |
| 20260831110104 | 93 | 301 | 4.0 | 10.0 | 0.00 | 0.00 | 0.00 | 34 | 1015.6 |
| 20260831110004 | 93 | 301 | 4.0 | 10.0 | 0.00 | 0.00 | 0.00 | 34 | 1015.6 |
| 20260831105904 | 93 | 301 | 3.0 | 10.0 | 0.00 | 0.00 | 0.00 | 34 | 1015.6 |
| 20260831105804 | 93 | 298 | 3.0 | 7.0 | 0.00 | 0.00 | 0.00 | 34 | 1015.5 |
| 20260831105704 | 93 | 297 | 2.0 | 7.0 | 0.00 | 0.00 | 0.00 | 34 | 1015.6 |
| 20260831105604 | 93 | 299 | 2.0 | 7.0 | 0.00 | 0.00 | 0.00 | 34 | 1015.6 |
| 20260831105504 | 93 | 296 | 2.0 | 7.0 | 0.00 | 0.00 | 0.00 | 35 | 1015.6 |
| 20260831105404 | 93 | 294 | 2.0 | 7.0 | 0.00 | 0.00 | 0.00 | 35 | 1015.5 |
| 20260831105306 | 93 | 293 | 2.0 | 7.0 | 0.00 | 0.00 | 0.00 | 35 | 1015.5 |
| 20260831105204 | 93 | 295 | 2.0 | 7.0 | 0.00 | 0.00 | 0.00 | 36 | 1015.6 |
| 20260831105104 | 93 | 298 | 2.0 | 6.0 | 0.00 | 0.00 | 0.00 | 36 | 1015.5 |
| 20260831105004 | 93 | 299 | 2.0 | 6.0 | 0.00 | 0.00 | 0.00 | 36 | 1015.6 |
| 20260831104904 | 93 | 298 | 2.0 | 6.0 | 0.00 | 0.00 | 0.00 | 36 | 1015.6 |
| 20260831104804 | 93 | 297 | 2.0 | 6.0 | 0.00 | 0.00 | 0.00 | 36 | 1015.7 |
| 20260831104704 | 93 | 298 | 2.0 | 6.0 | 0.00 | 0.00 | 0.00 | 36 | 1015.7 |
| 20260831104604 | 93 | 297 | 2.0 | 6.0 | 0.00 | 0.00 | 0.00 | 36 | 1015.7 |
| 20260831104504 | 93 | 297 | 2.0 | 6.0 | 0.00 | 0.00 | 0.00 | 36 | 1015.7 |
| 20260831104404 | 93 | 297 | 2.0 | 8.0 | 0.00 | 0.00 | 0.00 | 36 | 1015.7 |
| 20260831104304 | 93 | 296 | 2.0 | 8.0 | 0.00 | 0.00 | 0.00 | 36 | 1015.6 |
| 20260831104204 | 93 | 295 | 2.0 | 8.0 | 0.00 | 0.00 | 0.00 | 36 | 1015.7 |
| 20260831104104 | 93 | 294 | 2.0 | 8.0 | 0.00 | 0.00 | 0.00 | 36 | 1015.6 |
| 20260831104004 | 93 | 294 | 2.0 | 8.0 | 0.00 | 0.00 | 0.00 | 36 | 1015.7 |
| 20260831103904 | 92 | 293 | 2.0 | 8.0 | 0.00 | 0.00 | 0.00 | 36 | 1015.7 |
| 20260831103804 | 92 | 294 | 2.0 | 8.0 | 0.00 | 0.00 | 0.00 | 37 | 1015.7 |
| 20260831103704 | 92 | 292 | 2.0 | 8.0 | 0.00 | 0.00 | 0.00 | 38 | 1015.8 |
| 20260831103604 | 92 | 292 | 1.0 | 8.0 | 0.00 | 0.00 | 0.00 | 38 | 1015.8 |
| 20260831103504 | 92 | 292 | 1.0 | 8.0 | 0.00 | 0.00 | 0.00 | 38 | 1015.8 |
| 20260831103404 | 92 | 293 | 1.0 | 6.0 | 0.00 | 0.00 | 0.00 | 38 | 1015.8 |
| 20260831103304 | 92 | 296 | 1.0 | 6.0 | 0.00 | 0.00 | 0.00 | 38 | 1015.8 |
| 20260831103204 | 92 | 296 | 2.0 | 10.0 | 0.00 | 0.00 | 0.00 | 38 | 1015.8 |
| 20260831103104 | 92 | 296 | 2.0 | 10.0 | 0.00 | 0.00 | 0.00 | 38 | 1015.8 |
| 20260831103004 | 92 | 295 | 2.0 | 13.0 | 0.00 | 0.00 | 0.00 | 38 | 1015.8 |
| 20260831102904 | 92 | 298 | 3.0 | 13.0 | 0.00 | 0.00 | 0.00 | 38 | 1015.9 |
| 20260831102804 | 92 | 298 | 3.0 | 13.0 | 0.00 | 0.00 | 0.00 | 38 | 1015.9 |
| 20260831102704 | 92 | 297 | 3.0 | 13.0 | 0.00 | 0.00 | 0.00 | 38 | 1015.8 |
| 20260831102604 | 92 | 298 | 3.0 | 13.0 | 0.00 | 0.00 | 0.00 | 38 | 1015.9 |
| 20260831102504 | 92 | 297 | 4.0 | 13.0 | 0.00 | 0.00 | 0.00 | 38 | 1015.9 |
| 20260831102404 | 92 | 298 | 4.0 | 13.0 | 0.00 | 0.00 | 0.00 | 38 | 1015.7 |
| 20260831102306 | 92 | 299 | 4.0 | 13.0 | 0.00 | 0.00 | 0.00 | 39 | 1015.8 |
| 20260831102204 | 92 | 298 | 4.0 | 13.0 | 0.00 | 0.00 | 0.00 | 39 | 1015.7 |
| 20260831102104 | 92 | 298 | 4.0 | 13.0 | 0.00 | 0.00 | 0.00 | 39 | 1015.7 |
| 20260831102004 | 92 | 299 | 4.0 | 10.0 | 0.00 | 0.00 | 0.00 | 39 | 1015.8 |
| 20260831101904 | 92 | 299 | 5.0 | 10.0 | 0.00 | 0.00 | 0.00 | 39 | 1015.8 |
| 20260831101804 | 92 | 300 | 5.0 | 10.0 | 0.00 | 0.00 | 0.00 | 39 | 1015.7 |
| 20260831101704 | 92 | 301 | 5.0 | 11.0 | 0.00 | 0.00 | 0.00 | 39 | 1015.6 |
| 20260831101603 | 92 | 300 | 5.0 | 11.0 | 0.00 | 0.00 | 0.00 | 40 | 1015.8 |
| 20260831101503 | 92 | 301 | 5.0 | 11.0 | 0.00 | 0.00 | 0.00 | 41 | 1015.8 |
| 20260831101403 | 92 | 300 | 5.0 | 11.0 | 0.00 | 0.00 | 0.00 | 42 | 1015.8 |
| 20260831101303 | 92 | 299 | 5.0 | 11.0 | 0.00 | 0.00 | 0.00 | 41 | 1015.9 |
| 20260831101204 | 92 | 300 | 5.0 | 11.0 | 0.00 | 0.00 | 0.00 | 39 | 1015.9 |
| 20260831101103 | 92 | 301 | 4.0 | 11.0 | 0.00 | 0.00 | 0.00 | 40 | 1015.9 |
| 20260831101003 | 92 | 300 | 4.0 | 11.0 | 0.00 | 0.00 | 0.00 | 39 | 1015.9 |
| 20260831100903 | 92 | 299 | 4.0 | 11.0 | 0.00 | 0.00 | 0.00 | 39 | 1015.8 |
| 20260831100803 | 92 | 298 | 3.0 | 11.0 | 0.00 | 0.00 | 0.00 | 40 | 1015.9 |
| 20260831100703 | 92 | 297 | 3.0 | 11.0 | 0.00 | 0.00 | 0.00 | 40 | 1015.9 |
| 20260831100603 | 92 | 298 | 3.0 | 8.0 | 0.00 | 0.00 | 0.00 | 42 | 1015.8 |
| 20260831100503 | 92 | 298 | 3.0 | 8.0 | 0.00 | 0.00 | 0.00 | 42 | 1015.9 |
| 20260831100403 | 91 | 299 | 3.0 | 9.0 | 0.00 | 0.00 | 0.00 | 42 | 1015.9 |
| 20260831100303 | 91 | 299 | 3.0 | 9.0 | 0.00 | 0.00 | 0.00 | 42 | 1015.8 |
| 20260831100203 | 91 | 298 | 3.0 | 9.0 | 0.00 | 0.00 | 0.00 | 42 | 1015.8 |
| 20260831100103 | 91 | 298 | 3.0 | 9.0 | 0.00 | 0.00 | 0.00 | 43 | 1015.9 |
| 20260831100003 | 91 | 298 | 3.0 | 9.0 | 0.00 | 0.00 | 0.00 | 45 | 1015.8 |
| 20260831095903 | 91 | 299 | 3.0 | 9.0 | 0.00 | 0.00 | 0.00 | 45 | 1015.8 |
| 20260831095803 | 91 | 299 | 3.0 | 9.0 | 0.00 | 0.00 | 0.00 | 45 | 1015.8 |
| 20260831095703 | 91 | 298 | 3.0 | 9.0 | 0.00 | 0.00 | 0.00 | 45 | 1015.8 |
| 20260831095603 | 91 | 298 | 3.0 | 13.0 | 0.00 | 0.00 | 0.00 | 45 | 1015.8 |
| 20260831095503 | 91 | 298 | 3.0 | 13.0 | 0.00 | 0.00 | 0.00 | 45 | 1015.8 |
| 20260831095403 | 91 | 298 | 3.0 | 13.0 | 0.00 | 0.00 | 0.00 | 45 | 1015.9 |
| 20260831095306 | 91 | 300 | 3.0 | 13.0 | 0.00 | 0.00 | 0.00 | 46 | 1015.8 |
| 20260831095203 | 91 | 301 | 3.0 | 13.0 | 0.00 | 0.00 | 0.00 | 46 | 1015.8 |
| 20260831095103 | 91 | 302 | 3.0 | 13.0 | 0.00 | 0.00 | 0.00 | 47 | 1015.8 |
| 20260831095004 | 91 | 301 | 3.0 | 13.0 | 0.00 | 0.00 | 0.00 | 47 | 1015.8 |
| 20260831094903 | 91 | 301 | 3.0 | 13.0 | 0.00 | 0.00 | 0.00 | 47 | 1015.8 |
| 20260831094803 | 91 | 303 | 3.0 | 13.0 | 0.00 | 0.00 | 0.00 | 46 | 1015.9 |
| 20260831094703 | 91 | 304 | 3.0 | 13.0 | 0.00 | 0.00 | 0.00 | 46 | 1015.8 |
| 20260831094603 | 91 | 306 | 2.0 | 7.0 | 0.00 | 0.00 | 0.00 | 46 | 1015.8 |
| 20260831094505 | 91 | 307 | 2.0 | 7.0 | 0.00 | 0.00 | 0.00 | 46 | 1015.9 |
| 20260831094403 | 91 | 305 | 2.0 | 7.0 | 0.00 | 0.00 | 0.00 | 46 | 1015.9 |
| 20260831094303 | 91 | 303 | 2.0 | 9.0 | 0.00 | 0.00 | 0.00 | 46 | 1015.9 |
| 20260831094203 | 91 | 301 | 2.0 | 9.0 | 0.00 | 0.00 | 0.00 | 46 | 1015.8 |
| 20260831094103 | 91 | 299 | 2.0 | 9.0 | 0.00 | 0.00 | 0.00 | 48 | 1015.8 |
| 20260831094003 | 91 | 302 | 2.0 | 9.0 | 0.00 | 0.00 | 0.00 | 48 | 1015.8 |
| 20260831093903 | 91 | 301 | 3.0 | 10.0 | 0.00 | 0.00 | 0.00 | 49 | 1015.8 |
| 20260831093803 | 91 | 299 | 3.0 | 10.0 | 0.00 | 0.00 | 0.00 | 49 | 1015.9 |
| 20260831093703 | 91 | 299 | 3.0 | 10.0 | 0.00 | 0.00 | 0.00 | 49 | 1015.8 |
| 20260831093603 | 91 | 298 | 3.0 | 10.0 | 0.00 | 0.00 | 0.00 | 49 | 1015.8 |
| 20260831093503 | 91 | 298 | 3.0 | 10.0 | 0.00 | 0.00 | 0.00 | 48 | 1015.8 |
| 20260831093403 | 91 | 299 | 3.0 | 10.0 | 0.00 | 0.00 | 0.00 | 48 | 1015.8 |
| 20260831093303 | 91 | 300 | 2.0 | 10.0 | 0.00 | 0.00 | 0.00 | 48 | 1015.8 |
| 20260831093203 | 91 | 300 | 2.0 | 10.0 | 0.00 | 0.00 | 0.00 | 48 | 1015.8 |
| 20260831093103 | 91 | 301 | 2.0 | 10.0 | 0.00 | 0.00 | 0.00 | 48 | 1015.9 |
| 20260831093003 | 91 | 299 | 2.0 | 10.0 | 0.00 | 0.00 | 0.00 | 49 | 1015.9 |
| 20260831092903 | 91 | 298 | 2.0 | 8.0 | 0.00 | 0.00 | 0.00 | 49 | 1015.9 |
| 20260831092803 | 91 | 297 | 1.0 | 5.0 | 0.00 | 0.00 | 0.00 | 49 | 1015.9 |
| 20260831092703 | 91 | 297 | 1.0 | 5.0 | 0.00 | 0.00 | 0.00 | 49 | 1015.8 |
| 20260831092603 | 91 | 298 | 1.0 | 5.0 | 0.00 | 0.00 | 0.00 | 49 | 1015.8 |
| 20260831092503 | 91 | 299 | 1.0 | 7.0 | 0.00 | 0.00 | 0.00 | 49 | 1015.9 |
| 20260831092403 | 91 | 298 | 1.0 | 7.0 | 0.00 | 0.00 | 0.00 | 49 | 1015.8 |
| 20260831092306 | 91 | 297 | 1.0 | 7.0 | 0.00 | 0.00 | 0.00 | 49 | 1015.8 |
| 20260831092203 | 91 | 295 | 1.0 | 7.0 | 0.00 | 0.00 | 0.00 | 50 | 1015.8 |
| 20260831092103 | 91 | 293 | 1.0 | 7.0 | 0.00 | 0.00 | 0.00 | 50 | 1015.7 |
| 20260831092003 | 91 | 295 | 1.0 | 7.0 | 0.00 | 0.00 | 0.00 | 50 | 1015.8 |
| 20260831091903 | 90 | 297 | 1.0 | 7.0 | 0.00 | 0.00 | 0.00 | 50 | 1015.8 |
| 20260831091803 | 91 | 298 | 1.0 | 7.0 | 0.00 | 0.00 | 0.00 | 50 | 1015.8 |
| 20260831091703 | 90 | 298 | 1.0 | 7.0 | 0.00 | 0.00 | 0.00 | 50 | 1015.8 |
| 20260831091603 | 91 | 296 | 1.0 | 7.0 | 0.00 | 0.00 | 0.00 | 50 | 1015.9 |
| 20260831091503 | 90 | 296 | 1.0 | 6.0 | 0.00 | 0.00 | 0.00 | 51 | 1015.9 |
| 20260831091403 | 90 | 295 | 1.0 | 6.0 | 0.00 | 0.00 | 0.00 | 52 | 1015.9 |
| 20260831091303 | 90 | 308 | 1.0 | 6.0 | 0.00 | 0.00 | 0.00 | 52 | 1015.8 |
| 20260831091203 | 90 | 306 | 1.0 | 6.0 | 0.00 | 0.00 | 0.00 | 52 | 1015.9 |
| 20260831091103 | 90 | 304 | 1.0 | 6.0 | 0.00 | 0.00 | 0.00 | 52 | 1015.8 |
| 20260831091003 | 90 | 306 | 1.0 | 6.0 | 0.00 | 0.00 | 0.00 | 52 | 1015.8 |
| 20260831090903 | 90 | 307 | 1.0 | 6.0 | 0.00 | 0.00 | 0.00 | 52 | 1015.8 |
| 20260831090803 | 90 | 308 | 1.0 | 6.0 | 0.00 | 0.00 | 0.00 | 53 | 1015.7 |
| 20260831090703 | 90 | 307 | 1.0 | 6.0 | 0.00 | 0.00 | 0.00 | 53 | 1015.9 |
| 20260831090603 | 90 | 307 | 1.0 | 6.0 | 0.00 | 0.00 | 0.00 | 53 | 1015.9 |
| 20260831090503 | 90 | 308 | 1.0 | 6.0 | 0.00 | 0.00 | 0.00 | 53 | 1015.9 |
| 20260831090403 | 90 | 308 | 2.0 | 6.0 | 0.00 | 0.00 | 0.00 | 54 | 1015.9 |
| 20260831090303 | 90 | 304 | 1.0 | 6.0 | 0.00 | 0.00 | 0.00 | 54 | 1015.8 |
| 20260831090203 | 90 | 304 | 1.0 | 6.0 | 0.00 | 0.00 | 0.00 | 54 | 1015.9 |
| 20260831090103 | 90 | 306 | 1.0 | 6.0 | 0.00 | 0.00 | 0.00 | 54 | 1015.8 |
| 20260831090003 | 90 | 307 | 2.0 | 7.0 | 0.00 | 0.00 | 0.00 | 54 | 1015.8 |
| 20260831085903 | 90 | 303 | 2.0 | 7.0 | 0.00 | 0.00 | 0.00 | 54 | 1015.8 |
| 20260831085803 | 90 | 301 | 2.0 | 7.0 | 0.00 | 0.00 | 0.00 | 54 | 1015.8 |
| 20260831085703 | 90 | 301 | 2.0 | 7.0 | 0.00 | 0.00 | 0.00 | 54 | 1015.9 |
| 20260831085603 | 90 | 301 | 2.0 | 7.0 | 0.00 | 0.00 | 0.00 | 54 | 1015.9 |
| 20260831085503 | 90 | 300 | 2.0 | 7.0 | 0.00 | 0.00 | 0.00 | 54 | 1015.9 |
| 20260831085403 | 90 | 299 | 2.0 | 7.0 | 0.00 | 0.00 | 0.00 | 54 | 1015.9 |
| 20260831085306 | 90 | 302 | 3.0 | 7.0 | 0.00 | 0.00 | 0.00 | 54 | 1015.9 |
| 20260831085203 | 90 | 303 | 3.0 | 8.0 | 0.00 | 0.00 | 0.00 | 54 | 1015.8 |
| 20260831085103 | 90 | 302 | 3.0 | 8.0 | 0.00 | 0.00 | 0.00 | 55 | 1015.8 |
| 20260831085003 | 89 | 302 | 3.0 | 8.0 | 0.00 | 0.00 | 0.00 | 55 | 1015.9 |
| 20260831084903 | 90 | 303 | 3.0 | 8.0 | 0.00 | 0.00 | 0.00 | 55 | 1015.9 |
| 20260831084803 | 89 | 302 | 3.0 | 12.0 | 0.00 | 0.00 | 0.00 | 55 | 1015.9 |
| 20260831084703 | 89 | 302 | 3.0 | 12.0 | 0.00 | 0.00 | 0.00 | 55 | 1015.9 |
| 20260831084603 | 89 | 300 | 4.0 | 12.0 | 0.00 | 0.00 | 0.00 | 54 | 1015.9 |
| 20260831084503 | 89 | 300 | 4.0 | 12.0 | 0.00 | 0.00 | 0.00 | 54 | 1015.9 |
| 20260831084403 | 89 | 301 | 5.0 | 12.0 | 0.00 | 0.00 | 0.00 | 54 | 1015.8 |
| 20260831084303 | 89 | 300 | 5.0 | 12.0 | 0.00 | 0.00 | 0.00 | 54 | 1015.9 |
| 20260831084203 | 89 | 299 | 5.0 | 12.0 | 0.00 | 0.00 | 0.00 | 54 | 1015.9 |
| 20260831084103 | 89 | 299 | 4.0 | 12.0 | 0.00 | 0.00 | 0.00 | 54 | 1015.8 |
| 20260831084003 | 89 | 297 | 5.0 | 12.0 | 0.00 | 0.00 | 0.00 | 55 | 1015.8 |
| 20260831083903 | 89 | 298 | 5.0 | 12.0 | 0.00 | 0.00 | 0.00 | 55 | 1015.9 |
| 20260831083803 | 89 | 298 | 4.0 | 11.0 | 0.00 | 0.00 | 0.00 | 55 | 1015.9 |
| 20260831083703 | 89 | 297 | 4.0 | 11.0 | 0.00 | 0.00 | 0.00 | 55 | 1015.9 |
| 20260831083603 | 89 | 299 | 4.0 | 11.0 | 0.00 | 0.00 | 0.00 | 55 | 1015.9 |
| 20260831083503 | 89 | 299 | 4.0 | 9.0 | 0.00 | 0.00 | 0.00 | 56 | 1015.8 |
| 20260831083403 | 89 | 300 | 5.0 | 10.0 | 0.00 | 0.00 | 0.00 | 56 | 1015.8 |
| 20260831083303 | 89 | 299 | 5.0 | 13.0 | 0.00 | 0.00 | 0.00 | 56 | 1015.8 |
| 20260831083203 | 89 | 300 | 5.0 | 13.0 | 0.00 | 0.00 | 0.00 | 56 | 1015.9 |
| 20260831083103 | 89 | 301 | 5.0 | 13.0 | 0.00 | 0.00 | 0.00 | 56 | 1015.8 |
| 20260831083003 | 89 | 302 | 5.0 | 13.0 | 0.00 | 0.00 | 0.00 | 56 | 1015.8 |
| 20260831082903 | 89 | 303 | 6.0 | 13.0 | 0.00 | 0.00 | 0.00 | 55 | 1015.8 |
| 20260831082803 | 89 | 303 | 6.0 | 13.0 | 0.00 | 0.00 | 0.00 | 55 | 1015.8 |
| 20260831082704 | 89 | 303 | 5.0 | 13.0 | 0.00 | 0.00 | 0.00 | 55 | 1015.8 |
| 20260831082604 | 89 | 302 | 5.0 | 13.0 | 0.00 | 0.00 | 0.00 | 54 | 1015.9 |
| 20260831082504 | 89 | 303 | 5.0 | 13.0 | 0.00 | 0.00 | 0.00 | 54 | 1015.9 |
| 20260831082404 | 89 | 302 | 4.0 | 13.0 | 0.00 | 0.00 | 0.00 | 54 | 1015.9 |
| 20260831082306 | 89 | 304 | 4.0 | 12.0 | 0.00 | 0.00 | 0.00 | 55 | 1015.8 |
| 20260831082204 | 89 | 302 | 4.0 | 11.0 | 0.00 | 0.00 | 0.00 | 55 | 1015.8 |
| 20260831082104 | 89 | 299 | 4.0 | 11.0 | 0.00 | 0.00 | 0.00 | 55 | 1015.8 |
| 20260831082004 | 89 | 298 | 4.0 | 11.0 | 0.00 | 0.00 | 0.00 | 55 | 1015.7 |
| 20260831081904 | 89 | 297 | 4.0 | 11.0 | 0.00 | 0.00 | 0.00 | 55 | 1015.6 |
| 20260831081804 | 89 | 299 | 4.0 | 11.0 | 0.00 | 0.00 | 0.00 | 55 | 1015.7 |
| 20260831081704 | 89 | 299 | 4.0 | 11.0 | 0.00 | 0.00 | 0.00 | 55 | 1015.5 |
| 20260831081604 | 90 | 299 | 4.0 | 11.0 | 0.00 | 0.00 | 0.00 | 55 | 1015.5 |
| 20260831081504 | 90 | 300 | 4.0 | 11.0 | 0.00 | 0.00 | 0.00 | 55 | 1015.5 |
| 20260831081404 | 90 | 299 | 5.0 | 11.0 | 0.00 | 0.00 | 0.00 | 54 | 1015.6 |
| 20260831081304 | 90 | 299 | 4.0 | 8.0 | 0.00 | 0.00 | 0.00 | 55 | 1015.6 |
| 20260831081204 | 90 | 300 | 4.0 | 14.0 | 0.00 | 0.00 | 0.00 | 55 | 1015.6 |
| 20260831081104 | 90 | 301 | 4.0 | 14.0 | 0.00 | 0.00 | 0.00 | 55 | 1015.6 |
| 20260831081004 | 90 | 303 | 4.0 | 14.0 | 0.00 | 0.00 | 0.00 | 55 | 1015.5 |
| 20260831080904 | 90 | 303 | 4.0 | 14.0 | 0.00 | 0.00 | 0.00 | 55 | 1015.5 |
| 20260831080804 | 90 | 302 | 4.0 | 14.0 | 0.00 | 0.00 | 0.00 | 55 | 1015.6 |
| 20260831080704 | 90 | 302 | 4.0 | 14.0 | 0.00 | 0.00 | 0.00 | 54 | 1015.5 |
| 20260831080604 | 90 | 301 | 4.0 | 14.0 | 0.00 | 0.00 | 0.00 | 54 | 1015.7 |
| 20260831080504 | 90 | 300 | 3.0 | 14.0 | 0.00 | 0.00 | 0.00 | 54 | 1015.8 |
| 20260831080404 | 90 | 300 | 3.0 | 14.0 | 0.00 | 0.00 | 0.00 | 54 | 1015.6 |
| 20260831080304 | 90 | 300 | 3.0 | 14.0 | 0.00 | 0.00 | 0.00 | 55 | 1015.6 |
| 20260831080204 | 90 | 300 | 2.0 | 8.0 | 0.00 | 0.00 | 0.00 | 55 | 1015.6 |
| 20260831080104 | 90 | 299 | 2.0 | 8.0 | 0.00 | 0.00 | 0.00 | 56 | 1015.6 |
| 20260831080004 | 90 | 302 | 2.0 | 6.0 | 0.00 | 0.00 | 0.00 | 56 | 1015.5 |
| 20260831075904 | 90 | 300 | 2.0 | 6.0 | 0.00 | 0.00 | 0.00 | 56 | 1015.5 |
| 20260831075804 | 90 | 299 | 3.0 | 8.0 | 0.00 | 0.00 | 0.00 | 56 | 1015.6 |
| 20260831075704 | 90 | 300 | 3.0 | 8.0 | 0.00 | 0.00 | 0.00 | 56 | 1015.5 |
| 20260831075604 | 90 | 300 | 3.0 | 8.0 | 0.00 | 0.00 | 0.00 | 56 | 1015.4 |
| 20260831075504 | 90 | 300 | 2.0 | 8.0 | 0.00 | 0.00 | 0.00 | 56 | 1015.4 |
| 20260831075404 | 90 | 301 | 3.0 | 8.0 | 0.00 | 0.00 | 0.00 | 56 | 1015.4 |
| 20260831075306 | 89 | 300 | 3.0 | 8.0 | 0.00 | 0.00 | 0.00 | 56 | 1015.5 |
| 20260831075204 | 89 | 300 | 3.0 | 8.0 | 0.00 | 0.00 | 0.00 | 56 | 1015.4 |
| 20260831075104 | 89 | 300 | 3.0 | 8.0 | 0.00 | 0.00 | 0.00 | 56 | 1015.4 |
| 20260831075004 | 89 | 296 | 3.0 | 8.0 | 0.00 | 0.00 | 0.00 | 56 | 1015.5 |
| 20260831074904 | 89 | 298 | 3.0 | 8.0 | 0.00 | 0.00 | 0.00 | 56 | 1015.5 |
| 20260831074804 | 89 | 300 | 3.0 | 8.0 | 0.00 | 0.00 | 0.00 | 57 | 1015.4 |
| 20260831074704 | 89 | 301 | 3.0 | 7.0 | 0.00 | 0.00 | 0.00 | 57 | 1015.5 |
| 20260831074604 | 89 | 301 | 3.0 | 9.0 | 0.00 | 0.00 | 0.00 | 57 | 1015.5 |
| 20260831074504 | 89 | 301 | 3.0 | 9.0 | 0.00 | 0.00 | 0.00 | 57 | 1015.5 |
| 20260831074403 | 89 | 299 | 3.0 | 11.0 | 0.00 | 0.00 | 0.00 | 57 | 1015.5 |
| 20260831074304 | 89 | 300 | 3.0 | 11.0 | 0.00 | 0.00 | 0.00 | 57 | 1015.5 |
| 20260831074204 | 89 | 299 | 4.0 | 11.0 | 0.00 | 0.00 | 0.00 | 57 | 1015.5 |
| 20260831074104 | 89 | 299 | 4.0 | 11.0 | 0.00 | 0.00 | 0.00 | 57 | 1015.4 |
| 20260831074003 | 89 | 298 | 4.0 | 11.0 | 0.00 | 0.00 | 0.00 | 57 | 1015.5 |
| 20260831073903 | 89 | 296 | 4.0 | 11.0 | 0.00 | 0.00 | 0.00 | 57 | 1015.6 |
| 20260831073803 | 89 | 295 | 4.0 | 11.0 | 0.00 | 0.00 | 0.00 | 57 | 1015.6 |
| 20260831073703 | 89 | 294 | 4.0 | 11.0 | 0.00 | 0.00 | 0.00 | 57 | 1015.5 |
| 20260831073603 | 89 | 294 | 4.0 | 11.0 | 0.00 | 0.00 | 0.00 | 57 | 1015.5 |
| 20260831073504 | 89 | 295 | 4.0 | 11.0 | 0.00 | 0.00 | 0.00 | 57 | 1015.4 |
| 20260831073403 | 89 | 297 | 4.0 | 10.0 | 0.00 | 0.00 | 0.00 | 58 | 1015.5 |
| 20260831073303 | 89 | 296 | 5.0 | 8.0 | 0.00 | 0.00 | 0.00 | 58 | 1015.4 |
| 20260831073203 | 89 | 297 | 5.0 | 8.0 | 0.00 | 0.00 | 0.00 | 58 | 1015.4 |
| 20260831073103 | 89 | 298 | 4.0 | 8.0 | 0.00 | 0.00 | 0.00 | 58 | 1015.3 |
| 20260831073003 | 89 | 300 | 4.0 | 8.0 | 0.00 | 0.00 | 0.00 | 58 | 1015.3 |
| 20260831072903 | 89 | 300 | 5.0 | 8.0 | 0.00 | 0.00 | 0.00 | 58 | 1015.4 |
| 20260831072803 | 89 | 299 | 4.0 | 8.0 | 0.00 | 0.00 | 0.00 | 58 | 1015.2 |
| 20260831072703 | 89 | 300 | 4.0 | 8.0 | 0.00 | 0.00 | 0.00 | 58 | 1015.3 |
| 20260831072603 | 89 | 301 | 4.0 | 8.0 | 0.00 | 0.00 | 0.00 | 58 | 1015.2 |
| 20260831072503 | 89 | 301 | 4.0 | 8.0 | 0.00 | 0.00 | 0.00 | 58 | 1015.3 |
| 20260831072403 | 89 | 300 | 4.0 | 8.0 | 0.00 | 0.00 | 0.00 | 58 | 1015.3 |
| 20260831072306 | 89 | 301 | 4.0 | 8.0 | 0.00 | 0.00 | 0.00 | 58 | 1015.3 |
| 20260831072203 | 89 | 299 | 4.0 | 8.0 | 0.00 | 0.00 | 0.00 | 58 | 1015.2 |
| 20260831072103 | 89 | 299 | 4.0 | 8.0 | 0.00 | 0.00 | 0.00 | 58 | 1015.2 |
| 20260831072004 | 89 | 298 | 4.0 | 9.0 | 0.00 | 0.00 | 0.00 | 59 | 1015.3 |
| 20260831071904 | 89 | 297 | 4.0 | 12.0 | 0.00 | 0.00 | 0.00 | 59 | 1015.2 |
| 20260831071803 | 89 | 297 | 4.0 | 12.0 | 0.00 | 0.00 | 0.00 | 59 | 1015.4 |
| 20260831071703 | 89 | 297 | 4.0 | 12.0 | 0.00 | 0.00 | 0.00 | 59 | 1015.3 |
| 20260831071603 | 89 | 295 | 4.0 | 12.0 | 0.00 | 0.00 | 0.00 | 59 | 1015.3 |
| 20260831071503 | 89 | 295 | 4.0 | 12.0 | 0.00 | 0.00 | 0.00 | 59 | 1015.4 |
| 20260831071403 | 89 | 295 | 4.0 | 12.0 | 0.00 | 0.00 | 0.00 | 59 | 1015.3 |
| 20260831071305 | 89 | 295 | 4.0 | 12.0 | 0.00 | 0.00 | 0.00 | 58 | 1015.4 |
| 20260831071203 | 89 | 295 | 5.0 | 12.0 | 0.00 | 0.00 | 0.00 | 58 | 1015.4 |
| 20260831071103 | 89 | 295 | 5.0 | 12.0 | 0.00 | 0.00 | 0.00 | 58 | 1015.4 |
| 20260831071003 | 89 | 294 | 5.0 | 12.0 | 0.00 | 0.00 | 0.00 | 59 | 1015.4 |
| 20260831070903 | 89 | 297 | 5.0 | 11.0 | 0.00 | 0.00 | 0.00 | 58 | 1015.3 |
| 20260831070803 | 89 | 299 | 5.0 | 11.0 | 0.00 | 0.00 | 0.00 | 59 | 1015.2 |
| 20260831070703 | 89 | 300 | 5.0 | 11.0 | 0.00 | 0.00 | 0.00 | 59 | 1015.2 |
| 20260831070603 | 89 | 300 | 5.0 | 12.0 | 0.00 | 0.00 | 0.00 | 59 | 1015.2 |
| 20260831070503 | 89 | 301 | 5.0 | 12.0 | 0.00 | 0.00 | 0.00 | 59 | 1015.2 |
| 20260831070403 | 89 | 301 | 5.0 | 12.0 | 0.00 | 0.00 | 0.00 | 58 | 1015.2 |
| 20260831070303 | 89 | 301 | 5.0 | 12.0 | 0.00 | 0.00 | 0.00 | 58 | 1015.2 |
| 20260831070203 | 89 | 303 | 5.0 | 12.0 | 0.00 | 0.00 | 0.00 | 58 | 1015.2 |
| 20260831070103 | 89 | 302 | 5.0 | 13.0 | 0.00 | 0.00 | 0.00 | 58 | 1015.2 |
| 20260831070003 | 89 | 301 | 5.0 | 13.0 | 0.00 | 0.00 | 0.00 | 58 | 1015.2 |
| 20260831065903 | 89 | 299 | 5.0 | 13.0 | 0.00 | 0.00 | 0.00 | 58 | 1015.2 |
| 20260831065803 | 89 | 300 | 5.0 | 13.0 | 0.00 | 0.00 | 0.00 | 58 | 1015.2 |
| 20260831065703 | 89 | 300 | 5.0 | 13.0 | 0.00 | 0.00 | 0.00 | 59 | 1015.2 |
| 20260831065603 | 89 | 300 | 5.0 | 13.0 | 0.00 | 0.00 | 0.00 | 59 | 1015.3 |
| 20260831065503 | 89 | 300 | 5.0 | 13.0 | 0.00 | 0.00 | 0.00 | 59 | 1015.2 |
| 20260831065403 | 89 | 300 | 5.0 | 13.0 | 0.00 | 0.00 | 0.00 | 59 | 1015.1 |
| 20260831065306 | 89 | 300 | 5.0 | 13.0 | 0.00 | 0.00 | 0.00 | 59 | 1015.1 |
| 20260831065203 | 89 | 299 | 5.0 | 13.0 | 0.00 | 0.00 | 0.00 | 59 | 1015.0 |
| 20260831065103 | 89 | 299 | 4.0 | 12.0 | 0.00 | 0.00 | 0.00 | 59 | 1015.0 |
| 20260831065003 | 89 | 301 | 5.0 | 12.0 | 0.00 | 0.00 | 0.00 | 59 | 1015.1 |
| 20260831064903 | 89 | 301 | 4.0 | 12.0 | 0.00 | 0.00 | 0.00 | 59 | 1015.1 |
| 20260831064803 | 89 | 301 | 4.0 | 9.0 | 0.00 | 0.00 | 0.00 | 59 | 1015.1 |
| 20260831064703 | 89 | 299 | 4.0 | 9.0 | 0.00 | 0.00 | 0.00 | 59 | 1015.1 |
| 20260831064603 | 89 | 297 | 4.0 | 9.0 | 0.00 | 0.00 | 0.00 | 60 | 1015.1 |
| 20260831064503 | 89 | 297 | 4.0 | 9.0 | 0.00 | 0.00 | 0.00 | 60 | 1015.1 |
| 20260831064403 | 89 | 296 | 4.0 | 13.0 | 0.00 | 0.00 | 0.00 | 60 | 1015.1 |
| 20260831064303 | 89 | 296 | 4.0 | 13.0 | 0.00 | 0.00 | 0.00 | 60 | 1015.1 |
| 20260831064203 | 89 | 296 | 4.0 | 13.0 | 0.00 | 0.00 | 0.00 | 60 | 1015.1 |
| 20260831064103 | 89 | 297 | 4.0 | 13.0 | 0.00 | 0.00 | 0.00 | 60 | 1015.1 |
| 20260831064003 | 89 | 296 | 4.0 | 13.0 | 0.00 | 0.00 | 0.00 | 60 | 1015.1 |
| 20260831063903 | 89 | 298 | 4.0 | 13.0 | 0.00 | 0.00 | 0.00 | 60 | 1015.2 |
| 20260831063803 | 89 | 297 | 4.0 | 13.0 | 0.00 | 0.00 | 0.00 | 61 | 1015.2 |
| 20260831063703 | 89 | 299 | 4.0 | 13.0 | 0.00 | 0.00 | 0.00 | 61 | 1015.1 |
| 20260831063603 | 89 | 300 | 4.0 | 13.0 | 0.00 | 0.00 | 0.00 | 61 | 1015.2 |
| 20260831063503 | 89 | 299 | 4.0 | 13.0 | 0.00 | 0.00 | 0.00 | 61 | 1015.2 |
| 20260831063403 | 89 | 301 | 4.0 | 11.0 | 0.00 | 0.00 | 0.00 | 62 | 1015.2 |
| 20260831063303 | 89 | 300 | 4.0 | 11.0 | 0.00 | 0.00 | 0.00 | 62 | 1015.1 |
| 20260831063203 | 89 | 300 | 4.0 | 11.0 | 0.00 | 0.00 | 0.00 | 62 | 1015.2 |
| 20260831063103 | 89 | 302 | 4.0 | 11.0 | 0.00 | 0.00 | 0.00 | 62 | 1015.1 |
| 20260831063003 | 89 | 301 | 4.0 | 11.0 | 0.00 | 0.00 | 0.00 | 62 | 1015.1 |
| 20260831062903 | 89 | 300 | 4.0 | 11.0 | 0.00 | 0.00 | 0.00 | 62 | 1015.1 |
| 20260831062803 | 89 | 299 | 4.0 | 11.0 | 0.00 | 0.00 | 0.00 | 62 | 1015.0 |
| 20260831062703 | 89 | 300 | 4.0 | 11.0 | 0.00 | 0.00 | 0.00 | 62 | 1015.0 |
| 20260831062603 | 89 | 300 | 4.0 | 11.0 | 0.00 | 0.00 | 0.00 | 62 | 1015.1 |
| 20260831062503 | 89 | 299 | 4.0 | 13.0 | 0.00 | 0.00 | 0.00 | 62 | 1015.1 |
| 20260831062403 | 89 | 299 | 4.0 | 13.0 | 0.00 | 0.00 | 0.00 | 62 | 1015.1 |
| 20260831062305 | 88 | 299 | 4.0 | 13.0 | 0.00 | 0.00 | 0.00 | 62 | 1015.2 |
| 20260831062203 | 88 | 300 | 4.0 | 13.0 | 0.00 | 0.00 | 0.00 | 63 | 1015.2 |
| 20260831062103 | 88 | 298 | 4.0 | 13.0 | 0.00 | 0.00 | 0.00 | 63 | 1015.1 |
| 20260831062003 | 88 | 299 | 4.0 | 13.0 | 0.00 | 0.00 | 0.00 | 63 | 1015.1 |
| 20260831061903 | 88 | 300 | 4.0 | 13.0 | 0.00 | 0.00 | 0.00 | 63 | 1015.2 |
| 20260831061803 | 88 | 300 | 4.0 | 13.0 | 0.00 | 0.00 | 0.00 | 63 | 1015.1 |
| 20260831061703 | 88 | 299 | 4.0 | 13.0 | 0.00 | 0.00 | 0.00 | 63 | 1015.2 |
| 20260831061603 | 88 | 298 | 4.0 | 13.0 | 0.00 | 0.00 | 0.00 | 63 | 1015.3 |
| 20260831061503 | 88 | 299 | 3.0 | 10.0 | 0.00 | 0.00 | 0.00 | 64 | 1015.3 |
| 20260831061403 | 88 | 298 | 4.0 | 10.0 | 0.00 | 0.00 | 0.00 | 64 | 1015.2 |
| 20260831061303 | 88 | 299 | 4.0 | 10.0 | 0.00 | 0.00 | 0.00 | 64 | 1015.1 |
| 20260831061203 | 88 | 298 | 4.0 | 10.0 | 0.00 | 0.00 | 0.00 | 64 | 1015.1 |
| 20260831061103 | 88 | 297 | 3.0 | 10.0 | 0.00 | 0.00 | 0.00 | 64 | 1015.1 |
| 20260831061003 | 87 | 296 | 4.0 | 10.0 | 0.00 | 0.00 | 0.00 | 64 | 1015.2 |
| 20260831060903 | 87 | 296 | 4.0 | 10.0 | 0.00 | 0.00 | 0.00 | 64 | 1015.2 |
| 20260831060803 | 87 | 297 | 4.0 | 10.0 | 0.00 | 0.00 | 0.00 | 64 | 1015.2 |
| 20260831060703 | 87 | 298 | 4.0 | 10.0 | 0.00 | 0.00 | 0.00 | 64 | 1015.1 |
| 20260831060603 | 87 | 300 | 4.0 | 10.0 | 0.00 | 0.00 | 0.00 | 65 | 1015.2 |
| 20260831060503 | 87 | 300 | 4.0 | 10.0 | 0.00 | 0.00 | 0.00 | 65 | 1015.2 |
| 20260831060403 | 87 | 300 | 4.0 | 11.0 | 0.00 | 0.00 | 0.00 | 65 | 1015.2 |
| 20260831060303 | 87 | 300 | 4.0 | 11.0 | 0.00 | 0.00 | 0.00 | 66 | 1015.3 |
| 20260831060203 | 87 | 299 | 4.0 | 11.0 | 0.00 | 0.00 | 0.00 | 66 | 1015.2 |
| 20260831060003 | 86 | 302 | 4.0 | 11.0 | 0.00 | 0.00 | 0.00 | 66 | 1015.2 |
| 20260831055903 | 86 | 301 | 4.0 | 11.0 | 0.00 | 0.00 | 0.00 | 66 | 1015.2 |
| 20260831055804 | 86 | 299 | 4.0 | 11.0 | 0.00 | 0.00 | 0.00 | 67 | 1015.2 |
| 20260831055704 | 86 | 298 | 4.0 | 11.0 | 0.00 | 0.00 | 0.00 | 67 | 1015.2 |
| 20260831055604 | 86 | 296 | 4.0 | 11.0 | 0.00 | 0.00 | 0.00 | 67 | 1015.2 |
| 20260831055504 | 86 | 296 | 4.0 | 11.0 | 0.00 | 0.00 | 0.00 | 67 | 1015.2 |
| 20260831055404 | 85 | 295 | 4.0 | 9.0 | 0.00 | 0.00 | 0.00 | 67 | 1015.2 |
| 20260831055306 | 85 | 298 | 4.0 | 14.0 | 0.00 | 0.00 | 0.00 | 67 | 1015.3 |
| 20260831055204 | 85 | 300 | 4.0 | 14.0 | 0.00 | 0.00 | 0.00 | 68 | 1015.2 |
| 20260831055104 | 85 | 298 | 4.0 | 14.0 | 0.00 | 0.00 | 0.00 | 68 | 1015.2 |
| 20260831055004 | 85 | 299 | 4.0 | 14.0 | 0.00 | 0.00 | 0.00 | 68 | 1015.2 |
| 20260831054904 | 85 | 298 | 5.0 | 14.0 | 0.00 | 0.00 | 0.00 | 68 | 1015.2 |
| 20260831054804 | 85 | 299 | 5.0 | 14.0 | 0.00 | 0.00 | 0.00 | 68 | 1015.3 |
| 20260831054704 | 85 | 301 | 5.0 | 14.0 | 0.00 | 0.00 | 0.00 | 68 | 1015.2 |
| 20260831054604 | 85 | 300 | 5.0 | 14.0 | 0.00 | 0.00 | 0.00 | 68 | 1015.2 |
| 20260831054504 | 84 | 300 | 5.0 | 14.0 | 0.00 | 0.00 | 0.00 | 68 | 1015.2 |
| 20260831054404 | 84 | 304 | 5.0 | 14.0 | 0.00 | 0.00 | 0.00 | 68 | 1015.2 |
| 20260831054304 | 84 | 302 | 5.0 | 10.0 | 0.00 | 0.00 | 0.00 | 68 | 1015.2 |
| 20260831054204 | 84 | 300 | 5.0 | 10.0 | 0.00 | 0.00 | 0.00 | 69 | 1015.2 |
| 20260831054104 | 84 | 300 | 5.0 | 10.0 | 0.00 | 0.00 | 0.00 | 69 | 1015.2 |
| 20260831054004 | 84 | 299 | 4.0 | 9.0 | 0.00 | 0.00 | 0.00 | 69 | 1015.2 |
| 20260831053904 | 84 | 299 | 4.0 | 12.0 | 0.00 | 0.00 | 0.00 | 69 | 1015.2 |
| 20260831053804 | 84 | 298 | 4.0 | 12.0 | 0.00 | 0.00 | 0.00 | 69 | 1015.1 |
| 20260831053704 | 84 | 298 | 4.0 | 12.0 | 0.00 | 0.00 | 0.00 | 69 | 1015.2 |
| 20260831053604 | 84 | 298 | 4.0 | 12.0 | 0.00 | 0.00 | 0.00 | 69 | 1015.2 |
| 20260831053504 | 84 | 297 | 4.0 | 12.0 | 0.00 | 0.00 | 0.00 | 69 | 1015.2 |
| 20260831053404 | 84 | 293 | 4.0 | 12.0 | 0.00 | 0.00 | 0.00 | 69 | 1015.2 |
| 20260831053304 | 84 | 295 | 4.0 | 12.0 | 0.00 | 0.00 | 0.00 | 69 | 1015.2 |
| 20260831053204 | 84 | 293 | 4.0 | 12.0 | 0.00 | 0.00 | 0.00 | 69 | 1015.1 |
| 20260831053104 | 84 | 293 | 3.0 | 12.0 | 0.00 | 0.00 | 0.00 | 69 | 1015.1 |
| 20260831053004 | 84 | 294 | 4.0 | 12.0 | 0.00 | 0.00 | 0.00 | 69 | 1015.1 |
| 20260831052904 | 84 | 294 | 4.0 | 12.0 | 0.00 | 0.00 | 0.00 | 69 | 1015.2 |
| 20260831052804 | 84 | 295 | 4.0 | 12.0 | 0.00 | 0.00 | 0.00 | 69 | 1015.2 |
| 20260831052704 | 84 | 295 | 4.0 | 12.0 | 0.00 | 0.00 | 0.00 | 69 | 1015.2 |
| 20260831052604 | 84 | 295 | 4.0 | 12.0 | 0.00 | 0.00 | 0.00 | 69 | 1015.2 |
| 20260831052504 | 84 | 294 | 4.0 | 11.0 | 0.00 | 0.00 | 0.00 | 70 | 1015.2 |
| 20260831052404 | 84 | 294 | 4.0 | 11.0 | 0.00 | 0.00 | 0.00 | 70 | 1015.2 |
| 20260831052306 | 84 | 293 | 4.0 | 11.0 | 0.00 | 0.00 | 0.00 | 70 | 1015.2 |
| 20260831052204 | 83 | 295 | 4.0 | 11.0 | 0.00 | 0.00 | 0.00 | 70 | 1015.1 |
| 20260831052104 | 83 | 296 | 4.0 | 11.0 | 0.00 | 0.00 | 0.00 | 70 | 1015.1 |
| 20260831052004 | 83 | 296 | 4.0 | 11.0 | 0.00 | 0.00 | 0.00 | 70 | 1015.1 |
| 20260831051904 | 83 | 296 | 4.0 | 11.0 | 0.00 | 0.00 | 0.00 | 70 | 1015.1 |
| 20260831051804 | 83 | 296 | 4.0 | 7.0 | 0.00 | 0.00 | 0.00 | 70 | 1015.1 |
| 20260831051704 | 83 | 297 | 4.0 | 8.0 | 0.00 | 0.00 | 0.00 | 70 | 1015.1 |
| 20260831051604 | 83 | 298 | 4.0 | 11.0 | 0.00 | 0.00 | 0.00 | 70 | 1015.1 |
| 20260831051504 | 83 | 299 | 4.0 | 11.0 | 0.00 | 0.00 | 0.00 | 70 | 1015.2 |
| 20260831051404 | 83 | 300 | 4.0 | 11.0 | 0.00 | 0.00 | 0.00 | 70 | 1015.2 |
| 20260831051304 | 83 | 301 | 3.0 | 11.0 | 0.00 | 0.00 | 0.00 | 70 | 1015.2 |
| 20260831051204 | 83 | 303 | 3.0 | 11.0 | 0.00 | 0.00 | 0.00 | 70 | 1015.2 |
| 20260831051104 | 83 | 300 | 4.0 | 11.0 | 0.00 | 0.00 | 0.00 | 70 | 1015.2 |
| 20260831051004 | 83 | 301 | 4.0 | 11.0 | 0.00 | 0.00 | 0.00 | 70 | 1015.1 |
| 20260831050904 | 83 | 301 | 4.0 | 11.0 | 0.00 | 0.00 | 0.00 | 70 | 1015.2 |
| 20260831050803 | 83 | 301 | 4.0 | 11.0 | 0.00 | 0.00 | 0.00 | 70 | 1015.2 |
| 20260831050703 | 83 | 301 | 4.0 | 11.0 | 0.00 | 0.00 | 0.00 | 70 | 1015.2 |
| 20260831050603 | 83 | 300 | 4.0 | 10.0 | 0.00 | 0.00 | 0.00 | 70 | 1015.2 |
| 20260831050503 | 83 | 299 | 4.0 | 10.0 | 0.00 | 0.00 | 0.00 | 70 | 1015.1 |
| 20260831050403 | 83 | 300 | 4.0 | 10.0 | 0.00 | 0.00 | 0.00 | 70 | 1015.2 |
| 20260831050303 | 83 | 299 | 4.0 | 10.0 | 0.00 | 0.00 | 0.00 | 70 | 1015.2 |
| 20260831050203 | 83 | 297 | 4.0 | 10.0 | 0.00 | 0.00 | 0.00 | 70 | 1015.1 |
| 20260831050103 | 83 | 298 | 3.0 | 9.0 | 0.00 | 0.00 | 0.00 | 70 | 1015.1 |
| 20260831050004 | 83 | 299 | 3.0 | 9.0 | 0.00 | 0.00 | 0.00 | 70 | 1015.1 |
| 20260831045903 | 83 | 299 | 3.0 | 9.0 | 0.00 | 0.00 | 0.00 | 70 | 1015.1 |
| 20260831045803 | 83 | 299 | 3.0 | 9.0 | 0.00 | 0.00 | 0.00 | 70 | 1015.2 |
| 20260831045703 | 83 | 299 | 3.0 | 8.0 | 0.00 | 0.00 | 0.00 | 70 | 1015.1 |
| 20260831045603 | 83 | 298 | 3.0 | 8.0 | 0.00 | 0.00 | 0.00 | 70 | 1015.1 |
| 20260831045503 | 83 | 297 | 3.0 | 8.0 | 0.00 | 0.00 | 0.00 | 70 | 1015.2 |
| 20260831045403 | 83 | 296 | 3.0 | 8.0 | 0.00 | 0.00 | 0.00 | 70 | 1015.2 |
| 20260831045306 | 83 | 296 | 3.0 | 8.0 | 0.00 | 0.00 | 0.00 | 70 | 1015.1 |
| 20260831045203 | 83 | 296 | 3.0 | 8.0 | 0.00 | 0.00 | 0.00 | 70 | 1015.1 |
| 20260831045103 | 83 | 297 | 3.0 | 8.0 | 0.00 | 0.00 | 0.00 | 70 | 1015.1 |
| 20260831045003 | 83 | 295 | 3.0 | 8.0 | 0.00 | 0.00 | 0.00 | 70 | 1015.1 |
| 20260831044903 | 83 | 296 | 3.0 | 8.0 | 0.00 | 0.00 | 0.00 | 70 | 1015.2 |
| 20260831044803 | 83 | 294 | 3.0 | 6.0 | 0.00 | 0.00 | 0.00 | 70 | 1015.1 |
| 20260831044703 | 83 | 294 | 3.0 | 7.0 | 0.00 | 0.00 | 0.00 | 70 | 1015.1 |
| 20260831044603 | 83 | 295 | 3.0 | 7.0 | 0.00 | 0.00 | 0.00 | 70 | 1015.1 |
| 20260831044503 | 83 | 294 | 3.0 | 7.0 | 0.00 | 0.00 | 0.00 | 71 | 1015.1 |
| 20260831044403 | 83 | 295 | 3.0 | 7.0 | 0.00 | 0.00 | 0.00 | 71 | 1015.1 |
| 20260831044303 | 83 | 294 | 3.0 | 7.0 | 0.00 | 0.00 | 0.00 | 71 | 1015.1 |
| 20260831044203 | 83 | 295 | 3.0 | 7.0 | 0.00 | 0.00 | 0.00 | 71 | 1015.1 |
| 20260831044103 | 83 | 294 | 3.0 | 7.0 | 0.00 | 0.00 | 0.00 | 71 | 1015.1 |
| 20260831044003 | 83 | 295 | 4.0 | 8.0 | 0.00 | 0.00 | 0.00 | 71 | 1015.0 |
| 20260831043903 | 83 | 297 | 4.0 | 8.0 | 0.00 | 0.00 | 0.00 | 71 | 1014.9 |
| 20260831043803 | 83 | 297 | 4.0 | 11.0 | 0.00 | 0.00 | 0.00 | 71 | 1015.0 |
| 20260831043703 | 83 | 297 | 4.0 | 11.0 | 0.00 | 0.00 | 0.00 | 71 | 1015.1 |
| 20260831043603 | 83 | 297 | 4.0 | 11.0 | 0.00 | 0.00 | 0.00 | 71 | 1015.1 |
| 20260831043503 | 83 | 298 | 4.0 | 11.0 | 0.00 | 0.00 | 0.00 | 71 | 1015.1 |
| 20260831043403 | 83 | 297 | 4.0 | 11.0 | 0.00 | 0.00 | 0.00 | 71 | 1015.0 |
| 20260831043303 | 83 | 297 | 4.0 | 11.0 | 0.00 | 0.00 | 0.00 | 71 | 1015.0 |
| 20260831043203 | 83 | 296 | 4.0 | 11.0 | 0.00 | 0.00 | 0.00 | 71 | 1014.9 |
| 20260831043103 | 83 | 297 | 3.0 | 11.0 | 0.00 | 0.00 | 0.00 | 71 | 1015.0 |
| 20260831043003 | 83 | 295 | 3.0 | 11.0 | 0.00 | 0.00 | 0.00 | 71 | 1015.1 |
| 20260831042903 | 83 | 294 | 3.0 | 11.0 | 0.00 | 0.00 | 0.00 | 71 | 1015.1 |
| 20260831042803 | 83 | 295 | 3.0 | 9.0 | 0.00 | 0.00 | 0.00 | 71 | 1014.9 |
| 20260831042703 | 83 | 295 | 3.0 | 9.0 | 0.00 | 0.00 | 0.00 | 71 | 1015.1 |
| 20260831042603 | 83 | 294 | 3.0 | 9.0 | 0.00 | 0.00 | 0.00 | 71 | 1015.1 |
| 20260831042503 | 83 | 294 | 3.0 | 7.0 | 0.00 | 0.00 | 0.00 | 71 | 1015.0 |
| 20260831042403 | 83 | 294 | 3.0 | 9.0 | 0.00 | 0.00 | 0.00 | 71 | 1015.0 |
| 20260831042306 | 83 | 294 | 4.0 | 9.0 | 0.00 | 0.00 | 0.00 | 71 | 1015.0 |
| 20260831042203 | 83 | 294 | 4.0 | 9.0 | 0.00 | 0.00 | 0.00 | 71 | 1015.1 |
| 20260831042103 | 83 | 294 | 4.0 | 9.0 | 0.00 | 0.00 | 0.00 | 71 | 1015.0 |
| 20260831042003 | 83 | 295 | 4.0 | 9.0 | 0.00 | 0.00 | 0.00 | 71 | 1014.9 |
| 20260831041903 | 83 | 296 | 4.0 | 9.0 | 0.00 | 0.00 | 0.00 | 71 | 1015.0 |
| 20260831041803 | 83 | 296 | 4.0 | 9.0 | 0.00 | 0.00 | 0.00 | 70 | 1014.9 |
| 20260831041703 | 83 | 296 | 4.0 | 9.0 | 0.00 | 0.00 | 0.00 | 70 | 1014.9 |
| 20260831041603 | 83 | 297 | 4.0 | 9.0 | 0.00 | 0.00 | 0.00 | 70 | 1014.9 |
| 20260831041503 | 83 | 297 | 4.0 | 9.0 | 0.00 | 0.00 | 0.00 | 70 | 1014.9 |
| 20260831041403 | 83 | 297 | 4.0 | 8.0 | 0.00 | 0.00 | 0.00 | 70 | 1015.1 |
| 20260831041303 | 83 | 298 | 4.0 | 8.0 | 0.00 | 0.00 | 0.00 | 70 | 1015.1 |
| 20260831041203 | 83 | 299 | 4.0 | 8.0 | 0.00 | 0.00 | 0.00 | 70 | 1015.0 |
| 20260831041103 | 83 | 300 | 4.0 | 8.0 | 0.00 | 0.00 | 0.00 | 70 | 1015.0 |
| 20260831041003 | 83 | 299 | 3.0 | 7.0 | 0.00 | 0.00 | 0.00 | 70 | 1014.9 |
| 20260831040903 | 83 | 297 | 4.0 | 8.0 | 0.00 | 0.00 | 0.00 | 70 | 1015.0 |
| 20260831040803 | 83 | 297 | 4.0 | 8.0 | 0.00 | 0.00 | 0.00 | 70 | 1015.0 |
| 20260831040703 | 83 | 296 | 4.0 | 8.0 | 0.00 | 0.00 | 0.00 | 70 | 1015.1 |
| 20260831040603 | 83 | 296 | 4.0 | 8.0 | 0.00 | 0.00 | 0.00 | 70 | 1015.1 |
| 20260831040503 | 83 | 297 | 4.0 | 8.0 | 0.00 | 0.00 | 0.00 | 70 | 1015.1 |
| 20260831040403 | 83 | 297 | 4.0 | 8.0 | 0.00 | 0.00 | 0.00 | 70 | 1015.2 |
| 20260831040303 | 83 | 297 | 4.0 | 8.0 | 0.00 | 0.00 | 0.00 | 69 | 1015.1 |
| 20260831040203 | 83 | 296 | 4.0 | 9.0 | 0.00 | 0.00 | 0.00 | 69 | 1015.1 |
| 20260831040103 | 83 | 296 | 4.0 | 9.0 | 0.00 | 0.00 | 0.00 | 69 | 1015.1 |
| 20260831040003 | 83 | 296 | 4.0 | 9.0 | 0.00 | 0.00 | 0.00 | 69 | 1015.1 |
| 20260831035903 | 83 | 298 | 4.0 | 9.0 | 0.00 | 0.00 | 0.00 | 69 | 1015.1 |
| 20260831035803 | 83 | 298 | 4.0 | 9.0 | 0.00 | 0.00 | 0.00 | 69 | 1015.2 |
| 20260831035703 | 83 | 299 | 4.0 | 9.0 | 0.00 | 0.00 | 0.00 | 69 | 1015.1 |
| 20260831035603 | 83 | 299 | 4.0 | 9.0 | 0.00 | 0.00 | 0.00 | 69 | 1015.1 |
| 20260831035503 | 83 | 299 | 4.0 | 9.0 | 0.00 | 0.00 | 0.00 | 69 | 1015.2 |
| 20260831035403 | 83 | 299 | 4.0 | 9.0 | 0.00 | 0.00 | 0.00 | 69 | 1015.2 |
| 20260831035306 | 83 | 300 | 3.0 | 9.0 | 0.00 | 0.00 | 0.00 | 69 | 1015.2 |
| 20260831035203 | 83 | 301 | 3.0 | 9.0 | 0.00 | 0.00 | 0.00 | 69 | 1015.2 |
| 20260831035103 | 83 | 301 | 3.0 | 9.0 | 0.00 | 0.00 | 0.00 | 69 | 1015.1 |
| 20260831035003 | 83 | 303 | 3.0 | 9.0 | 0.00 | 0.00 | 0.00 | 69 | 1015.2 |
| 20260831034903 | 83 | 301 | 3.0 | 9.0 | 0.00 | 0.00 | 0.00 | 69 | 1015.2 |
| 20260831034803 | 83 | 301 | 3.0 | 9.0 | 0.00 | 0.00 | 0.00 | 69 | 1015.2 |
| 20260831034703 | 83 | 301 | 3.0 | 9.0 | 0.00 | 0.00 | 0.00 | 69 | 1015.2 |
| 20260831034603 | 83 | 301 | 3.0 | 9.0 | 0.00 | 0.00 | 0.00 | 69 | 1015.2 |
| 20260831034503 | 83 | 301 | 3.0 | 8.0 | 0.00 | 0.00 | 0.00 | 70 | 1015.2 |
| 20260831034403 | 83 | 301 | 3.0 | 8.0 | 0.00 | 0.00 | 0.00 | 69 | 1015.2 |
| 20260831034303 | 83 | 300 | 3.0 | 8.0 | 0.00 | 0.00 | 0.00 | 69 | 1015.1 |
| 20260831034203 | 83 | 302 | 4.0 | 10.0 | 0.00 | 0.00 | 0.00 | 69 | 1015.1 |
| 20260831034103 | 83 | 302 | 4.0 | 11.0 | 0.00 | 0.00 | 0.00 | 69 | 1015.2 |
| 20260831034003 | 83 | 301 | 5.0 | 11.0 | 0.00 | 0.00 | 0.00 | 69 | 1015.2 |
| 20260831033903 | 83 | 300 | 5.0 | 15.0 | 0.00 | 0.00 | 0.00 | 69 | 1015.2 |
| 20260831033803 | 83 | 301 | 5.0 | 15.0 | 0.00 | 0.00 | 0.00 | 69 | 1015.3 |
| 20260831033703 | 83 | 301 | 5.0 | 15.0 | 0.00 | 0.00 | 0.00 | 70 | 1015.2 |
| 20260831033603 | 83 | 300 | 5.0 | 15.0 | 0.00 | 0.00 | 0.00 | 70 | 1015.2 |
| 20260831033503 | 83 | 300 | 5.0 | 15.0 | 0.00 | 0.00 | 0.00 | 70 | 1015.3 |
| 20260831033403 | 83 | 302 | 5.0 | 15.0 | 0.00 | 0.00 | 0.00 | 70 | 1015.2 |
| 20260831033303 | 83 | 302 | 5.0 | 15.0 | 0.00 | 0.00 | 0.00 | 70 | 1015.2 |
| 20260831033204 | 83 | 301 | 5.0 | 15.0 | 0.00 | 0.00 | 0.00 | 70 | 1015.2 |
| 20260831033104 | 83 | 301 | 5.0 | 15.0 | 0.00 | 0.00 | 0.00 | 70 | 1015.2 |
| 20260831033004 | 83 | 301 | 4.0 | 15.0 | 0.00 | 0.00 | 0.00 | 71 | 1015.2 |
| 20260831032904 | 83 | 302 | 4.0 | 10.0 | 0.00 | 0.00 | 0.00 | 71 | 1015.3 |
| 20260831032804 | 83 | 300 | 3.0 | 10.0 | 0.00 | 0.00 | 0.00 | 71 | 1015.3 |
| 20260831032704 | 83 | 301 | 3.0 | 10.0 | 0.00 | 0.00 | 0.00 | 71 | 1015.3 |
| 20260831032604 | 83 | 304 | 3.0 | 10.0 | 0.00 | 0.00 | 0.00 | 71 | 1015.3 |
| 20260831032504 | 83 | 302 | 3.0 | 10.0 | 0.00 | 0.00 | 0.00 | 71 | 1015.3 |
| 20260831032404 | 83 | 300 | 3.0 | 10.0 | 0.00 | 0.00 | 0.00 | 71 | 1015.4 |
| 20260831032306 | 83 | 298 | 3.0 | 8.0 | 0.00 | 0.00 | 0.00 | 71 | 1015.3 |
| 20260831032204 | 83 | 299 | 3.0 | 7.0 | 0.00 | 0.00 | 0.00 | 71 | 1015.3 |
| 20260831032104 | 83 | 298 | 2.0 | 7.0 | 0.00 | 0.00 | 0.00 | 71 | 1015.3 |
| 20260831032004 | 83 | 298 | 2.0 | 7.0 | 0.00 | 0.00 | 0.00 | 71 | 1015.4 |
| 20260831031904 | 83 | 299 | 2.0 | 7.0 | 0.00 | 0.00 | 0.00 | 71 | 1015.5 |
| 20260831031804 | 83 | 299 | 3.0 | 7.0 | 0.00 | 0.00 | 0.00 | 71 | 1015.4 |
| 20260831031704 | 83 | 299 | 2.0 | 7.0 | 0.00 | 0.00 | 0.00 | 71 | 1015.4 |
| 20260831031604 | 83 | 299 | 3.0 | 7.0 | 0.00 | 0.00 | 0.00 | 71 | 1015.3 |
| 20260831031504 | 83 | 300 | 3.0 | 7.0 | 0.00 | 0.00 | 0.00 | 71 | 1015.4 |
| 20260831031404 | 83 | 300 | 3.0 | 7.0 | 0.00 | 0.00 | 0.00 | 71 | 1015.4 |
| 20260831031304 | 83 | 301 | 2.0 | 7.0 | 0.00 | 0.00 | 0.00 | 72 | 1015.3 |
| 20260831031204 | 83 | 300 | 3.0 | 7.0 | 0.00 | 0.00 | 0.00 | 72 | 1015.4 |
| 20260831031104 | 83 | 300 | 3.0 | 7.0 | 0.00 | 0.00 | 0.00 | 72 | 1015.4 |
| 20260831031004 | 83 | 300 | 3.0 | 7.0 | 0.00 | 0.00 | 0.00 | 72 | 1015.4 |
| 20260831030904 | 84 | 300 | 3.0 | 7.0 | 0.00 | 0.00 | 0.00 | 72 | 1015.5 |
| 20260831030804 | 84 | 301 | 3.0 | 7.0 | 0.00 | 0.00 | 0.00 | 72 | 1015.5 |
| 20260831030704 | 84 | 302 | 4.0 | 15.0 | 0.00 | 0.00 | 0.00 | 72 | 1015.5 |
| 20260831030604 | 84 | 301 | 4.0 | 15.0 | 0.00 | 0.00 | 0.00 | 72 | 1015.5 |
| 20260831030504 | 84 | 300 | 4.0 | 15.0 | 0.00 | 0.00 | 0.00 | 72 | 1015.5 |
| 20260831030404 | 84 | 302 | 3.0 | 15.0 | 0.00 | 0.00 | 0.00 | 72 | 1015.6 |
| 20260831030304 | 84 | 301 | 4.0 | 15.0 | 0.00 | 0.00 | 0.00 | 72 | 1015.6 |
| 20260831030204 | 84 | 302 | 3.0 | 15.0 | 0.00 | 0.00 | 0.00 | 72 | 1015.5 |
| 20260831030104 | 84 | 299 | 4.0 | 15.0 | 0.00 | 0.00 | 0.00 | 72 | 1015.6 |
| 20260831030004 | 84 | 299 | 4.0 | 15.0 | 0.00 | 0.00 | 0.00 | 72 | 1015.6 |
| 20260831025904 | 84 | 300 | 4.0 | 15.0 | 0.00 | 0.00 | 0.00 | 72 | 1015.6 |
| 20260831025804 | 84 | 299 | 4.0 | 15.0 | 0.00 | 0.00 | 0.00 | 72 | 1015.6 |
| 20260831025704 | 84 | 297 | 4.0 | 12.0 | 0.00 | 0.00 | 0.00 | 72 | 1015.5 |
| 20260831025604 | 84 | 297 | 4.0 | 11.0 | 0.00 | 0.00 | 0.00 | 72 | 1015.5 |
| 20260831025504 | 84 | 297 | 4.0 | 11.0 | 0.00 | 0.00 | 0.00 | 72 | 1015.5 |
| 20260831025404 | 84 | 297 | 4.0 | 11.0 | 0.00 | 0.00 | 0.00 | 72 | 1015.5 |
| 20260831025306 | 84 | 300 | 5.0 | 12.0 | 0.00 | 0.00 | 0.00 | 72 | 1015.6 |
| 20260831025204 | 84 | 301 | 5.0 | 12.0 | 0.00 | 0.00 | 0.00 | 72 | 1015.5 |
| 20260831025104 | 84 | 301 | 4.0 | 12.0 | 0.00 | 0.00 | 0.00 | 72 | 1015.6 |
| 20260831025004 | 84 | 305 | 4.0 | 12.0 | 0.00 | 0.00 | 0.00 | 72 | 1015.5 |
| 20260831024904 | 84 | 304 | 4.0 | 12.0 | 0.00 | 0.00 | 0.00 | 72 | 1015.5 |
| 20260831024804 | 84 | 304 | 4.0 | 12.0 | 0.00 | 0.00 | 0.00 | 72 | 1015.5 |
| 20260831024703 | 84 | 306 | 4.0 | 12.0 | 0.00 | 0.00 | 0.00 | 72 | 1015.5 |
| 20260831024603 | 84 | 307 | 4.0 | 12.0 | 0.00 | 0.00 | 0.00 | 72 | 1015.7 |
| 20260831024503 | 84 | 308 | 4.0 | 12.0 | 0.00 | 0.00 | 0.00 | 72 | 1015.6 |
| 20260831024403 | 84 | 308 | 4.0 | 12.0 | 0.00 | 0.00 | 0.00 | 72 | 1015.6 |
| 20260831024303 | 84 | 306 | 3.0 | 11.0 | 0.00 | 0.00 | 0.00 | 72 | 1015.5 |
| 20260831024203 | 84 | 305 | 3.0 | 11.0 | 0.00 | 0.00 | 0.00 | 72 | 1015.6 |
| 20260831024103 | 84 | 305 | 3.0 | 11.0 | 0.00 | 0.00 | 0.00 | 72 | 1015.5 |
| 20260831024003 | 84 | 303 | 4.0 | 11.0 | 0.00 | 0.00 | 0.00 | 72 | 1015.5 |
| 20260831023903 | 84 | 302 | 4.0 | 11.0 | 0.00 | 0.00 | 0.00 | 72 | 1015.4 |
| 20260831023803 | 84 | 303 | 3.0 | 11.0 | 0.00 | 0.00 | 0.00 | 72 | 1015.5 |
| 20260831023703 | 84 | 300 | 3.0 | 9.0 | 0.00 | 0.00 | 0.00 | 72 | 1015.5 |
| 20260831023603 | 84 | 299 | 3.0 | 9.0 | 0.00 | 0.00 | 0.00 | 72 | 1015.5 |
| 20260831023503 | 84 | 297 | 3.0 | 9.0 | 0.00 | 0.00 | 0.00 | 72 | 1015.4 |
| 20260831023403 | 84 | 297 | 3.0 | 9.0 | 0.00 | 0.00 | 0.00 | 72 | 1015.5 |
| 20260831023303 | 84 | 298 | 3.0 | 9.0 | 0.00 | 0.00 | 0.00 | 72 | 1015.7 |
| 20260831023203 | 84 | 298 | 3.0 | 9.0 | 0.00 | 0.00 | 0.00 | 72 | 1015.7 |
| 20260831023103 | 84 | 298 | 3.0 | 9.0 | 0.00 | 0.00 | 0.00 | 72 | 1015.8 |
| 20260831023003 | 84 | 298 | 3.0 | 8.0 | 0.00 | 0.00 | 0.00 | 72 | 1015.8 |
| 20260831022903 | 84 | 299 | 2.0 | 7.0 | 0.00 | 0.00 | 0.00 | 72 | 1015.7 |
| 20260831022803 | 84 | 299 | 2.0 | 7.0 | 0.00 | 0.00 | 0.00 | 72 | 1015.7 |
| 20260831022703 | 84 | 298 | 3.0 | 10.0 | 0.00 | 0.00 | 0.00 | 72 | 1015.8 |
| 20260831022603 | 84 | 299 | 2.0 | 10.0 | 0.00 | 0.00 | 0.00 | 72 | 1015.7 |
| 20260831022503 | 84 | 300 | 2.0 | 10.0 | 0.00 | 0.00 | 0.00 | 72 | 1015.8 |
| 20260831022403 | 84 | 299 | 2.0 | 10.0 | 0.00 | 0.00 | 0.00 | 72 | 1015.8 |
| 20260831022306 | 84 | 297 | 2.0 | 10.0 | 0.00 | 0.00 | 0.00 | 72 | 1015.8 |
| 20260831022203 | 84 | 299 | 2.0 | 10.0 | 0.00 | 0.00 | 0.00 | 72 | 1015.7 |
| 20260831022103 | 84 | 299 | 3.0 | 13.0 | 0.00 | 0.00 | 0.00 | 72 | 1015.7 |
| 20260831022003 | 84 | 298 | 3.0 | 13.0 | 0.00 | 0.00 | 0.00 | 72 | 1015.8 |
| 20260831021903 | 84 | 298 | 3.0 | 13.0 | 0.00 | 0.00 | 0.00 | 72 | 1015.7 |
| 20260831021803 | 84 | 298 | 3.0 | 13.0 | 0.00 | 0.00 | 0.00 | 72 | 1015.7 |
| 20260831021703 | 84 | 299 | 3.0 | 13.0 | 0.00 | 0.00 | 0.00 | 72 | 1015.6 |
| 20260831021603 | 84 | 298 | 3.0 | 13.0 | 0.00 | 0.00 | 0.00 | 72 | 1015.7 |
| 20260831021503 | 84 | 299 | 3.0 | 13.0 | 0.00 | 0.00 | 0.00 | 72 | 1015.7 |
| 20260831021403 | 84 | 299 | 3.0 | 13.0 | 0.00 | 0.00 | 0.00 | 72 | 1015.7 |
| 20260831021303 | 84 | 300 | 3.0 | 13.0 | 0.00 | 0.00 | 0.00 | 72 | 1015.6 |
| 20260831021203 | 84 | 300 | 3.0 | 13.0 | 0.00 | 0.00 | 0.00 | 72 | 1015.6 |
| 20260831021103 | 84 | 298 | 3.0 | 9.0 | 0.00 | 0.00 | 0.00 | 72 | 1015.8 |
| 20260831021003 | 84 | 301 | 2.0 | 9.0 | 0.00 | 0.00 | 0.00 | 72 | 1015.7 |
| 20260831020903 | 84 | 300 | 3.0 | 9.0 | 0.00 | 0.00 | 0.00 | 72 | 1015.7 |
| 20260831020803 | 84 | 299 | 4.0 | 10.0 | 0.00 | 0.00 | 0.00 | 72 | 1015.7 |
| 20260831020703 | 84 | 300 | 4.0 | 10.0 | 0.00 | 0.00 | 0.00 | 72 | 1015.7 |
| 20260831020603 | 84 | 300 | 4.0 | 10.0 | 0.00 | 0.00 | 0.00 | 72 | 1015.7 |
| 20260831020503 | 84 | 301 | 3.0 | 10.0 | 0.00 | 0.00 | 0.00 | 72 | 1015.5 |
| 20260831020403 | 84 | 301 | 4.0 | 10.0 | 0.00 | 0.00 | 0.00 | 72 | 1015.6 |
| 20260831020303 | 84 | 301 | 3.0 | 10.0 | 0.00 | 0.00 | 0.00 | 72 | 1015.6 |
| 20260831020203 | 84 | 300 | 3.0 | 10.0 | 0.00 | 0.00 | 0.00 | 72 | 1015.6 |
| 20260831020103 | 84 | 300 | 3.0 | 10.0 | 0.00 | 0.00 | 0.00 | 72 | 1015.7 |
| 20260831020003 | 84 | 300 | 3.0 | 10.0 | 0.00 | 0.00 | 0.00 | 72 | 1015.7 |
| 20260831015903 | 84 | 299 | 3.0 | 10.0 | 0.00 | 0.00 | 0.00 | 72 | 1015.7 |
| 20260831015803 | 84 | 298 | 2.0 | 9.0 | 0.00 | 0.00 | 0.00 | 72 | 1015.7 |
| 20260831015703 | 84 | 299 | 2.0 | 9.0 | 0.00 | 0.00 | 0.00 | 72 | 1015.8 |
| 20260831015603 | 84 | 298 | 3.0 | 9.0 | 0.00 | 0.00 | 0.00 | 72 | 1015.7 |
| 20260831015503 | 84 | 298 | 3.0 | 9.0 | 0.00 | 0.00 | 0.00 | 72 | 1015.7 |
| 20260831015403 | 84 | 298 | 3.0 | 9.0 | 0.00 | 0.00 | 0.00 | 72 | 1015.6 |
| 20260831015305 | 84 | 297 | 3.0 | 9.0 | 0.00 | 0.00 | 0.00 | 72 | 1015.7 |
| 20260831015203 | 84 | 298 | 4.0 | 9.0 | 0.00 | 0.00 | 0.00 | 72 | 1015.6 |
| 20260831015103 | 84 | 299 | 4.0 | 9.0 | 0.00 | 0.00 | 0.00 | 72 | 1015.6 |
| 20260831015003 | 84 | 300 | 4.0 | 9.0 | 0.00 | 0.00 | 0.00 | 72 | 1015.7 |
| 20260831014903 | 84 | 302 | 4.0 | 11.0 | 0.00 | 0.00 | 0.00 | 72 | 1015.6 |
| 20260831014803 | 84 | 302 | 4.0 | 11.0 | 0.00 | 0.00 | 0.00 | 72 | 1015.6 |
| 20260831014703 | 84 | 301 | 4.0 | 11.0 | 0.00 | 0.00 | 0.00 | 72 | 1015.6 |
| 20260831014603 | 84 | 302 | 4.0 | 11.0 | 0.00 | 0.00 | 0.00 | 72 | 1015.7 |
| 20260831014503 | 84 | 303 | 4.0 | 11.0 | 0.00 | 0.00 | 0.00 | 72 | 1015.7 |
| 20260831014403 | 84 | 302 | 4.0 | 11.0 | 0.00 | 0.00 | 0.00 | 72 | 1015.6 |
| 20260831014303 | 84 | 302 | 4.0 | 11.0 | 0.00 | 0.00 | 0.00 | 72 | 1015.7 |
| 20260831014203 | 84 | 303 | 4.0 | 11.0 | 0.00 | 0.00 | 0.00 | 72 | 1015.7 |
| 20260831014103 | 84 | 302 | 4.0 | 11.0 | 0.00 | 0.00 | 0.00 | 72 | 1015.6 |
| 20260831014003 | 84 | 301 | 4.0 | 11.0 | 0.00 | 0.00 | 0.00 | 72 | 1015.5 |
| 20260831013903 | 84 | 299 | 3.0 | 11.0 | 0.00 | 0.00 | 0.00 | 72 | 1015.5 |
| 20260831013803 | 84 | 299 | 3.0 | 11.0 | 0.00 | 0.00 | 0.00 | 72 | 1015.6 |
| 20260831013703 | 84 | 299 | 3.0 | 11.0 | 0.00 | 0.00 | 0.00 | 72 | 1015.5 |
| 20260831013603 | 84 | 299 | 3.0 | 11.0 | 0.00 | 0.00 | 0.00 | 72 | 1015.6 |
| 20260831013503 | 84 | 297 | 3.0 | 8.0 | 0.00 | 0.00 | 0.00 | 72 | 1015.6 |
| 20260831013403 | 84 | 298 | 2.0 | 7.0 | 0.00 | 0.00 | 0.00 | 72 | 1015.7 |
| 20260831013303 | 84 | 298 | 2.0 | 7.0 | 0.00 | 0.00 | 0.00 | 72 | 1015.7 |
| 20260831013203 | 84 | 296 | 2.0 | 7.0 | 0.00 | 0.00 | 0.00 | 72 | 1015.6 |
| 20260831013103 | 84 | 296 | 2.0 | 7.0 | 0.00 | 0.00 | 0.00 | 72 | 1015.6 |
| 20260831013003 | 84 | 295 | 2.0 | 8.0 | 0.00 | 0.00 | 0.00 | 72 | 1015.6 |
| 20260831012903 | 84 | 295 | 2.0 | 8.0 | 0.00 | 0.00 | 0.00 | 72 | 1015.6 |
| 20260831012804 | 84 | 296 | 2.0 | 8.0 | 0.00 | 0.00 | 0.00 | 72 | 1015.6 |
| 20260831012704 | 84 | 297 | 2.0 | 8.0 | 0.00 | 0.00 | 0.00 | 72 | 1015.6 |
| 20260831012604 | 84 | 296 | 3.0 | 8.0 | 0.00 | 0.00 | 0.00 | 72 | 1015.6 |
| 20260831012504 | 84 | 297 | 3.0 | 8.0 | 0.00 | 0.00 | 0.00 | 72 | 1015.6 |
| 20260831012404 | 84 | 297 | 3.0 | 8.0 | 0.00 | 0.00 | 0.00 | 72 | 1015.6 |
| 20260831012306 | 84 | 297 | 3.0 | 8.0 | 0.00 | 0.00 | 0.00 | 72 | 1015.6 |
| 20260831012204 | 84 | 298 | 3.0 | 8.0 | 0.00 | 0.00 | 0.00 | 72 | 1015.5 |
| 20260831012104 | 84 | 299 | 2.0 | 8.0 | 0.00 | 0.00 | 0.00 | 72 | 1015.5 |
| 20260831012004 | 84 | 300 | 2.0 | 7.0 | 0.00 | 0.00 | 0.00 | 72 | 1015.5 |
| 20260831011904 | 84 | 300 | 2.0 | 7.0 | 0.00 | 0.00 | 0.00 | 72 | 1015.6 |
| 20260831011804 | 84 | 300 | 2.0 | 8.0 | 0.00 | 0.00 | 0.00 | 72 | 1015.6 |
| 20260831011704 | 84 | 299 | 3.0 | 8.0 | 0.00 | 0.00 | 0.00 | 72 | 1015.5 |
| 20260831011604 | 84 | 301 | 3.0 | 8.0 | 0.00 | 0.00 | 0.00 | 72 | 1015.6 |
| 20260831011504 | 84 | 301 | 3.0 | 8.0 | 0.00 | 0.00 | 0.00 | 72 | 1015.6 |
| 20260831011404 | 84 | 303 | 3.0 | 10.0 | 0.00 | 0.00 | 0.00 | 72 | 1015.6 |
| 20260831011304 | 84 | 302 | 4.0 | 10.0 | 0.00 | 0.00 | 0.00 | 72 | 1015.6 |
| 20260831011204 | 84 | 301 | 4.0 | 10.0 | 0.00 | 0.00 | 0.00 | 72 | 1015.7 |
| 20260831011104 | 84 | 302 | 4.0 | 10.0 | 0.00 | 0.00 | 0.00 | 72 | 1015.7 |
| 20260831011004 | 84 | 301 | 4.0 | 10.0 | 0.00 | 0.00 | 0.00 | 72 | 1015.6 |
| 20260831010904 | 84 | 302 | 4.0 | 10.0 | 0.00 | 0.00 | 0.00 | 72 | 1015.6 |
| 20260831010804 | 84 | 302 | 4.0 | 10.0 | 0.00 | 0.00 | 0.00 | 72 | 1015.6 |
| 20260831010704 | 84 | 302 | 4.0 | 10.0 | 0.00 | 0.00 | 0.00 | 72 | 1015.6 |
| 20260831010604 | 84 | 302 | 4.0 | 10.0 | 0.00 | 0.00 | 0.00 | 72 | 1015.6 |
| 20260831010504 | 84 | 300 | 3.0 | 10.0 | 0.00 | 0.00 | 0.00 | 72 | 1015.7 |
| 20260831010404 | 84 | 299 | 2.0 | 8.0 | 0.00 | 0.00 | 0.00 | 72 | 1015.6 |
| 20260831010304 | 84 | 299 | 2.0 | 9.0 | 0.00 | 0.00 | 0.00 | 72 | 1015.5 |
| 20260831010204 | 84 | 297 | 2.0 | 9.0 | 0.00 | 0.00 | 0.00 | 72 | 1015.7 |
| 20260831010104 | 84 | 298 | 2.0 | 9.0 | 0.00 | 0.00 | 0.00 | 72 | 1015.6 |
| 20260831010004 | 84 | 298 | 2.0 | 9.0 | 0.00 | 0.00 | 0.00 | 72 | 1015.6 |
| 20260831005904 | 84 | 299 | 2.0 | 9.0 | 0.00 | 0.00 | 0.00 | 72 | 1015.7 |
| 20260831005804 | 84 | 301 | 3.0 | 9.0 | 0.00 | 0.00 | 0.00 | 72 | 1015.6 |
| 20260831005704 | 84 | 299 | 3.0 | 9.0 | 0.00 | 0.00 | 0.00 | 72 | 1015.6 |
| 20260831005604 | 84 | 299 | 3.0 | 9.0 | 0.00 | 0.00 | 0.00 | 72 | 1015.6 |
| 20260831005504 | 84 | 299 | 3.0 | 9.0 | 0.00 | 0.00 | 0.00 | 72 | 1015.6 |
| 20260831005404 | 84 | 297 | 3.0 | 9.0 | 0.00 | 0.00 | 0.00 | 72 | 1015.7 |
| 20260831005306 | 84 | 298 | 3.0 | 8.0 | 0.00 | 0.00 | 0.00 | 72 | 1015.8 |
| 20260831005204 | 84 | 299 | 3.0 | 8.0 | 0.00 | 0.00 | 0.00 | 73 | 1015.7 |
| 20260831005104 | 84 | 299 | 3.0 | 8.0 | 0.00 | 0.00 | 0.00 | 73 | 1015.7 |
| 20260831005004 | 84 | 298 | 3.0 | 8.0 | 0.00 | 0.00 | 0.00 | 73 | 1015.7 |
| 20260831004904 | 84 | 296 | 2.0 | 8.0 | 0.00 | 0.00 | 0.00 | 73 | 1015.8 |
| 20260831004803 | 84 | 295 | 2.0 | 7.0 | 0.00 | 0.00 | 0.00 | 73 | 1015.8 |
| 20260831004704 | 84 | 298 | 2.0 | 6.0 | 0.00 | 0.00 | 0.00 | 73 | 1015.7 |
| 20260831004603 | 84 | 298 | 2.0 | 7.0 | 0.00 | 0.00 | 0.00 | 73 | 1015.6 |
| 20260831004504 | 84 | 297 | 2.0 | 7.0 | 0.00 | 0.00 | 0.00 | 73 | 1015.8 |
| 20260831004404 | 84 | 298 | 2.0 | 7.0 | 0.00 | 0.00 | 0.00 | 73 | 1015.8 |
| 20260831004303 | 84 | 297 | 2.0 | 7.0 | 0.00 | 0.00 | 0.00 | 73 | 1015.8 |
| 20260831004203 | 84 | 298 | 2.0 | 7.0 | 0.00 | 0.00 | 0.00 | 73 | 1015.7 |
| 20260831004103 | 84 | 297 | 2.0 | 7.0 | 0.00 | 0.00 | 0.00 | 73 | 1015.7 |
| 20260831004003 | 84 | 297 | 3.0 | 7.0 | 0.00 | 0.00 | 0.00 | 73 | 1015.6 |
| 20260831003903 | 84 | 297 | 3.0 | 7.0 | 0.00 | 0.00 | 0.00 | 73 | 1015.7 |
| 20260831003803 | 84 | 297 | 3.0 | 7.0 | 0.00 | 0.00 | 0.00 | 73 | 1015.7 |
| 20260831003703 | 84 | 295 | 3.0 | 7.0 | 0.00 | 0.00 | 0.00 | 73 | 1015.7 |
| 20260831003603 | 84 | 295 | 2.0 | 7.0 | 0.00 | 0.00 | 0.00 | 73 | 1015.8 |
| 20260831003503 | 84 | 295 | 2.0 | 6.0 | 0.00 | 0.00 | 0.00 | 73 | 1015.9 |
| 20260831003403 | 84 | 295 | 2.0 | 6.0 | 0.00 | 0.00 | 0.00 | 73 | 1015.7 |
| 20260831003303 | 84 | 295 | 2.0 | 6.0 | 0.00 | 0.00 | 0.00 | 73 | 1015.8 |
| 20260831003203 | 84 | 295 | 1.0 | 6.0 | 0.00 | 0.00 | 0.00 | 73 | 1015.7 |
| 20260831003103 | 84 | 296 | 1.0 | 4.0 | 0.00 | 0.00 | 0.00 | 73 | 1015.6 |
| 20260831003003 | 84 | 299 | 1.0 | 4.0 | 0.00 | 0.00 | 0.00 | 73 | 1015.7 |
| 20260831002903 | 84 | 301 | 1.0 | 4.0 | 0.00 | 0.00 | 0.00 | 73 | 1015.8 |
| 20260831002803 | 84 | 298 | 1.0 | 7.0 | 0.00 | 0.00 | 0.00 | 73 | 1015.8 |
| 20260831002703 | 84 | 295 | 1.0 | 10.0 | 0.00 | 0.00 | 0.00 | 73 | 1015.8 |
| 20260831002603 | 84 | 295 | 1.0 | 10.0 | 0.00 | 0.00 | 0.00 | 73 | 1015.8 |
| 20260831002503 | 84 | 297 | 2.0 | 10.0 | 0.00 | 0.00 | 0.00 | 73 | 1015.7 |
| 20260831002403 | 84 | 296 | 2.0 | 10.0 | 0.00 | 0.00 | 0.00 | 73 | 1015.8 |
| 20260831002306 | 84 | 295 | 1.0 | 10.0 | 0.00 | 0.00 | 0.00 | 73 | 1015.6 |
| 20260831002203 | 84 | 295 | 2.0 | 10.0 | 0.00 | 0.00 | 0.00 | 73 | 1015.7 |
| 20260831002103 | 84 | 297 | 2.0 | 10.0 | 0.00 | 0.00 | 0.00 | 73 | 1015.8 |
| 20260831002003 | 84 | 297 | 2.0 | 10.0 | 0.00 | 0.00 | 0.00 | 73 | 1015.8 |
| 20260831001903 | 84 | 296 | 2.0 | 10.0 | 0.00 | 0.00 | 0.00 | 74 | 1015.7 |
| 20260831001803 | 84 | 296 | 2.0 | 10.0 | 0.00 | 0.00 | 0.00 | 73 | 1015.8 |
| 20260831001703 | 84 | 299 | 2.0 | 7.0 | 0.00 | 0.00 | 0.00 | 74 | 1015.8 |
| 20260831001603 | 85 | 297 | 2.0 | 9.0 | 0.00 | 0.00 | 0.00 | 74 | 1015.7 |
| 20260831001503 | 84 | 298 | 2.0 | 9.0 | 0.00 | 0.00 | 0.00 | 74 | 1015.8 |
| 20260831001403 | 84 | 301 | 3.0 | 9.0 | 0.00 | 0.00 | 0.00 | 74 | 1015.7 |
| 20260831001303 | 84 | 303 | 3.0 | 9.0 | 0.00 | 0.00 | 0.00 | 74 | 1015.7 |
| 20260831001203 | 85 | 302 | 3.0 | 11.0 | 0.00 | 0.00 | 0.00 | 74 | 1015.8 |
| 20260831001103 | 84 | 302 | 3.0 | 11.0 | 0.00 | 0.00 | 0.00 | 74 | 1015.7 |
| 20260831001003 | 85 | 303 | 3.0 | 11.0 | 0.00 | 0.00 | 0.00 | 74 | 1015.8 |
| 20260831000903 | 85 | 303 | 3.0 | 11.0 | 0.00 | 0.00 | 0.00 | 74 | 1016.0 |
| 20260831000803 | 85 | 305 | 3.0 | 11.0 | 0.00 | 0.00 | 0.00 | 74 | 1016.0 |
| 20260831000703 | 85 | 304 | 3.0 | 11.0 | 0.00 | 0.00 | 0.00 | 74 | 1016.1 |
| 20260831000603 | 85 | 306 | 3.0 | 11.0 | 0.00 | 0.00 | 0.00 | 74 | 1015.9 |
| 20260831000503 | 85 | 302 | 3.0 | 11.0 | 0.00 | 0.00 | 0.00 | 74 | 1016.0 |
| 20260831000403 | 85 | 300 | 3.0 | 11.0 | 0.00 | 0.00 | 0.00 | 74 | 1016.0 |
| 20260831000303 | 85 | 297 | 3.0 | 11.0 | 0.00 | 0.00 | 0.00 | 74 | 1016.0 |
| 20260831000204 | 85 | 298 | 2.0 | 10.0 | 0.00 | 0.00 | 0.00 | 74 | 1015.9 |
| 20260831000103 | 85 | 297 | 3.0 | 10.0 | 0.00 | 0.00 | 0.00 | 74 | 1015.9 |
| 20260831000003 | 85 | 297 | 3.0 | 10.0 | 0.00 | 0.00 | 0.00 | 74 | 1015.9 |
| 20260830235903 | 85 | 297 | 3.0 | 10.0 | 0.00 | 0.00 | 0.00 | 74 | 1015.9 |
| 20260830235803 | 85 | 297 | 3.0 | 10.0 | 0.00 | 0.00 | 0.00 | 74 | 1015.9 |
| 20260830235703 | 85 | 297 | 3.0 | 10.0 | 0.00 | 0.00 | 0.00 | 74 | 1015.8 |
| 20260830235603 | 85 | 297 | 3.0 | 10.0 | 0.00 | 0.00 | 0.00 | 74 | 1015.8 |
| 20260830235503 | 85 | 297 | 3.0 | 8.0 | 0.00 | 0.00 | 0.00 | 74 | 1015.8 |
| 20260830235403 | 85 | 297 | 3.0 | 8.0 | 0.00 | 0.00 | 0.00 | 74 | 1015.9 |
| 20260830235305 | 85 | 297 | 3.0 | 8.0 | 0.00 | 0.00 | 0.00 | 74 | 1015.8 |
| 20260830235203 | 85 | 298 | 4.0 | 9.0 | 0.00 | 0.00 | 0.00 | 74 | 1015.8 |
| 20260830235103 | 85 | 299 | 4.0 | 9.0 | 0.00 | 0.00 | 0.00 | 74 | 1015.8 |
| 20260830235003 | 85 | 299 | 4.0 | 9.0 | 0.00 | 0.00 | 0.00 | 74 | 1015.8 |
| 20260830234903 | 85 | 300 | 4.0 | 9.0 | 0.00 | 0.00 | 0.00 | 74 | 1015.8 |
| 20260830234803 | 85 | 301 | 4.0 | 9.0 | 0.00 | 0.00 | 0.00 | 74 | 1015.8 |
| 20260830234703 | 85 | 301 | 4.0 | 9.0 | 0.00 | 0.00 | 0.00 | 74 | 1015.7 |
| 20260830234603 | 85 | 300 | 4.0 | 9.0 | 0.00 | 0.00 | 0.00 | 74 | 1015.8 |
| 20260830234503 | 85 | 300 | 3.0 | 9.0 | 0.00 | 0.00 | 0.00 | 74 | 1015.7 |
| 20260830234403 | 85 | 301 | 3.0 | 9.0 | 0.00 | 0.00 | 0.00 | 74 | 1015.8 |
| 20260830234303 | 85 | 302 | 4.0 | 9.0 | 0.00 | 0.00 | 0.00 | 74 | 1015.7 |
| 20260830234203 | 85 | 300 | 3.0 | 9.0 | 0.00 | 0.00 | 0.00 | 74 | 1015.6 |
| 20260830234103 | 85 | 300 | 3.0 | 9.0 | 0.00 | 0.00 | 0.00 | 73 | 1015.7 |
| 20260830234003 | 85 | 302 | 3.0 | 9.0 | 0.00 | 0.00 | 0.00 | 73 | 1015.7 |
| 20260830233903 | 85 | 302 | 3.0 | 9.0 | 0.00 | 0.00 | 0.00 | 73 | 1015.7 |
| 20260830233803 | 85 | 300 | 4.0 | 9.0 | 0.00 | 0.00 | 0.00 | 73 | 1015.7 |
| 20260830233703 | 85 | 301 | 4.0 | 9.0 | 0.00 | 0.00 | 0.00 | 73 | 1015.6 |
| 20260830233603 | 85 | 302 | 4.0 | 9.0 | 0.00 | 0.00 | 0.00 | 73 | 1015.7 |
| 20260830233503 | 85 | 304 | 4.0 | 9.0 | 0.00 | 0.00 | 0.00 | 73 | 1015.7 |
| 20260830233403 | 85 | 303 | 4.0 | 9.0 | 0.00 | 0.00 | 0.00 | 73 | 1015.7 |
| 20260830233303 | 85 | 303 | 3.0 | 8.0 | 0.00 | 0.00 | 0.00 | 73 | 1015.7 |
| 20260830233203 | 85 | 304 | 3.0 | 8.0 | 0.00 | 0.00 | 0.00 | 73 | 1015.6 |
| 20260830233103 | 85 | 304 | 3.0 | 8.0 | 0.00 | 0.00 | 0.00 | 73 | 1015.7 |
| 20260830233003 | 85 | 303 | 3.0 | 8.0 | 0.00 | 0.00 | 0.00 | 73 | 1015.6 |
| 20260830232903 | 85 | 302 | 3.0 | 8.0 | 0.00 | 0.00 | 0.00 | 73 | 1015.7 |
| 20260830232803 | 85 | 303 | 3.0 | 8.0 | 0.00 | 0.00 | 0.00 | 73 | 1015.7 |
| 20260830232703 | 85 | 301 | 3.0 | 8.0 | 0.00 | 0.00 | 0.00 | 73 | 1015.7 |
| 20260830232603 | 85 | 300 | 3.0 | 10.0 | 0.00 | 0.00 | 0.00 | 73 | 1015.6 |
| 20260830232503 | 85 | 298 | 3.0 | 10.0 | 0.00 | 0.00 | 0.00 | 73 | 1015.7 |
| 20260830232403 | 85 | 299 | 3.0 | 10.0 | 0.00 | 0.00 | 0.00 | 73 | 1015.6 |
| 20260830232305 | 85 | 299 | 4.0 | 11.0 | 0.00 | 0.00 | 0.00 | 73 | 1015.7 |
| 20260830232203 | 85 | 299 | 4.0 | 11.0 | 0.00 | 0.00 | 0.00 | 73 | 1015.7 |
| 20260830232103 | 85 | 299 | 4.0 | 11.0 | 0.00 | 0.00 | 0.00 | 73 | 1015.7 |
| 20260830232003 | 85 | 299 | 4.0 | 11.0 | 0.00 | 0.00 | 0.00 | 73 | 1015.7 |
| 20260830231903 | 85 | 298 | 4.0 | 11.0 | 0.00 | 0.00 | 0.00 | 73 | 1015.8 |
| 20260830231803 | 85 | 298 | 4.0 | 11.0 | 0.00 | 0.00 | 0.00 | 73 | 1015.8 |
| 20260830231703 | 85 | 298 | 4.0 | 11.0 | 0.00 | 0.00 | 0.00 | 73 | 1015.8 |
| 20260830231603 | 85 | 300 | 4.0 | 11.0 | 0.00 | 0.00 | 0.00 | 73 | 1015.8 |
| 20260830231503 | 85 | 300 | 4.0 | 11.0 | 0.00 | 0.00 | 0.00 | 73 | 1015.7 |
| 20260830231403 | 85 | 299 | 4.0 | 11.0 | 0.00 | 0.00 | 0.00 | 73 | 1015.8 |
| 20260830231303 | 85 | 297 | 3.0 | 6.0 | 0.00 | 0.00 | 0.00 | 73 | 1015.8 |
| 20260830231003 | 85 | 297 | 3.0 | 7.0 | 0.00 | 0.00 | 0.00 | 73 | 1015.7 |
| 20260830230903 | 85 | 295 | 3.0 | 7.0 | 0.00 | 0.00 | 0.00 | 73 | 1015.7 |
| 20260830230803 | 85 | 294 | 3.0 | 7.0 | 0.00 | 0.00 | 0.00 | 73 | 1015.7 |
| 20260830230703 | 85 | 297 | 3.0 | 6.0 | 0.00 | 0.00 | 0.00 | 73 | 1015.8 |
| 20260830230603 | 85 | 298 | 3.0 | 8.0 | 0.00 | 0.00 | 0.00 | 73 | 1015.8 |
| 20260830230503 | 85 | 298 | 3.0 | 8.0 | 0.00 | 0.00 | 0.00 | 73 | 1015.8 |
| 20260830230403 | 85 | 300 | 3.0 | 8.0 | 0.00 | 0.00 | 0.00 | 73 | 1015.8 |
| 20260830230303 | 85 | 300 | 3.0 | 8.0 | 0.00 | 0.00 | 0.00 | 74 | 1015.8 |
| 20260830230204 | 85 | 299 | 3.0 | 8.0 | 0.00 | 0.00 | 0.00 | 74 | 1015.8 |
| 20260830230103 | 85 | 298 | 3.0 | 8.0 | 0.00 | 0.00 | 0.00 | 74 | 1015.7 |
| 20260830230004 | 85 | 298 | 3.0 | 8.0 | 0.00 | 0.00 | 0.00 | 74 | 1015.6 |
| 20260830225903 | 85 | 300 | 3.0 | 8.0 | 0.00 | 0.00 | 0.00 | 74 | 1015.6 |
| 20260830225803 | 85 | 299 | 3.0 | 8.0 | 0.00 | 0.00 | 0.00 | 74 | 1015.7 |
| 20260830225703 | 86 | 300 | 3.0 | 8.0 | 0.00 | 0.00 | 0.00 | 74 | 1015.7 |
| 20260830225603 | 86 | 299 | 3.0 | 8.0 | 0.00 | 0.00 | 0.00 | 74 | 1015.6 |
| 20260830225503 | 85 | 299 | 3.0 | 8.0 | 0.00 | 0.00 | 0.00 | 74 | 1015.7 |
| 20260830225403 | 86 | 297 | 3.0 | 8.0 | 0.00 | 0.00 | 0.00 | 74 | 1015.7 |
| 20260830225305 | 86 | 297 | 3.0 | 8.0 | 0.00 | 0.00 | 0.00 | 74 | 1015.6 |
| 20260830225203 | 86 | 296 | 3.0 | 10.0 | 0.00 | 0.00 | 0.00 | 74 | 1015.6 |
| 20260830225103 | 86 | 297 | 3.0 | 10.0 | 0.00 | 0.00 | 0.00 | 74 | 1015.6 |
| 20260830225003 | 86 | 297 | 3.0 | 10.0 | 0.00 | 0.00 | 0.00 | 74 | 1015.6 |
| 20260830224903 | 85 | 295 | 3.0 | 10.0 | 0.00 | 0.00 | 0.00 | 74 | 1015.6 |
| 20260830224803 | 85 | 297 | 3.0 | 10.0 | 0.00 | 0.00 | 0.00 | 74 | 1015.6 |
| 20260830224703 | 85 | 295 | 4.0 | 11.0 | 0.00 | 0.00 | 0.00 | 74 | 1015.6 |
| 20260830224603 | 85 | 295 | 4.0 | 11.0 | 0.00 | 0.00 | 0.00 | 74 | 1015.6 |
| 20260830224503 | 85 | 296 | 4.0 | 11.0 | 0.00 | 0.00 | 0.00 | 75 | 1015.6 |
| 20260830224403 | 86 | 296 | 5.0 | 11.0 | 0.00 | 0.00 | 0.00 | 75 | 1015.7 |
| 20260830224303 | 85 | 297 | 5.0 | 11.0 | 0.00 | 0.00 | 0.00 | 75 | 1015.6 |
| 20260830224203 | 85 | 298 | 5.0 | 11.0 | 0.00 | 0.00 | 0.00 | 75 | 1015.6 |
| 20260830224103 | 86 | 297 | 5.0 | 11.0 | 0.00 | 0.00 | 0.00 | 75 | 1015.6 |
| 20260830224003 | 86 | 298 | 5.0 | 11.0 | 0.00 | 0.00 | 0.00 | 75 | 1015.6 |
| 20260830223903 | 86 | 298 | 5.0 | 11.0 | 0.00 | 0.00 | 0.00 | 75 | 1015.6 |
| 20260830223803 | 86 | 297 | 5.0 | 11.0 | 0.00 | 0.00 | 0.00 | 75 | 1015.6 |
| 20260830223703 | 86 | 300 | 5.0 | 10.0 | 0.00 | 0.00 | 0.00 | 75 | 1015.6 |
| 20260830223603 | 86 | 301 | 5.0 | 10.0 | 0.00 | 0.00 | 0.00 | 75 | 1015.6 |
| 20260830223503 | 86 | 301 | 5.0 | 10.0 | 0.00 | 0.00 | 0.00 | 75 | 1015.5 |
| 20260830223403 | 86 | 301 | 5.0 | 10.0 | 0.00 | 0.00 | 0.00 | 75 | 1015.6 |
| 20260830223303 | 86 | 301 | 4.0 | 10.0 | 0.00 | 0.00 | 0.00 | 75 | 1015.6 |
| 20260830223203 | 86 | 302 | 4.0 | 10.0 | 0.00 | 0.00 | 0.00 | 75 | 1015.5 |
| 20260830223103 | 86 | 302 | 4.0 | 10.0 | 0.00 | 0.00 | 0.00 | 75 | 1015.5 |
| 20260830223004 | 86 | 303 | 4.0 | 10.0 | 0.00 | 0.00 | 0.00 | 75 | 1015.5 |
| 20260830222903 | 86 | 304 | 4.0 | 10.0 | 0.00 | 0.00 | 0.00 | 75 | 1015.5 |
| 20260830222803 | 86 | 304 | 4.0 | 9.0 | 0.00 | 0.00 | 0.00 | 75 | 1015.5 |
| 20260830222703 | 86 | 303 | 4.0 | 10.0 | 0.00 | 0.00 | 0.00 | 75 | 1015.5 |
| 20260830222603 | 86 | 300 | 4.0 | 10.0 | 0.00 | 0.00 | 0.00 | 75 | 1015.5 |
| 20260830222503 | 86 | 301 | 4.0 | 10.0 | 0.00 | 0.00 | 0.00 | 75 | 1015.4 |
| 20260830222403 | 86 | 300 | 4.0 | 10.0 | 0.00 | 0.00 | 0.00 | 75 | 1015.5 |
| 20260830222306 | 86 | 299 | 4.0 | 10.0 | 0.00 | 0.00 | 0.00 | 75 | 1015.5 |
| 20260830222203 | 86 | 297 | 4.0 | 10.0 | 0.00 | 0.00 | 0.00 | 75 | 1015.5 |
| 20260830222103 | 86 | 299 | 3.0 | 10.0 | 0.00 | 0.00 | 0.00 | 75 | 1015.4 |
| 20260830222003 | 86 | 297 | 4.0 | 10.0 | 0.00 | 0.00 | 0.00 | 75 | 1015.4 |
| 20260830221903 | 86 | 297 | 4.0 | 10.0 | 0.00 | 0.00 | 0.00 | 75 | 1015.5 |
| 20260830221803 | 86 | 297 | 4.0 | 10.0 | 0.00 | 0.00 | 0.00 | 75 | 1015.5 |
| 20260830221703 | 86 | 297 | 3.0 | 10.0 | 0.00 | 0.00 | 0.00 | 75 | 1015.5 |
| 20260830221603 | 86 | 297 | 3.0 | 10.0 | 0.00 | 0.00 | 0.00 | 75 | 1015.4 |
| 20260830221503 | 86 | 297 | 3.0 | 10.0 | 0.00 | 0.00 | 0.00 | 75 | 1015.4 |
| 20260830221403 | 86 | 299 | 3.0 | 10.0 | 0.00 | 0.00 | 0.00 | 75 | 1015.5 |
| 20260830221303 | 86 | 303 | 3.0 | 7.0 | 0.00 | 0.00 | 0.00 | 75 | 1015.6 |
| 20260830221203 | 86 | 303 | 3.0 | 7.0 | 0.00 | 0.00 | 0.00 | 75 | 1015.5 |
| 20260830221103 | 86 | 301 | 3.0 | 7.0 | 0.00 | 0.00 | 0.00 | 75 | 1015.5 |
| 20260830221003 | 86 | 303 | 2.0 | 7.0 | 0.00 | 0.00 | 0.00 | 74 | 1015.5 |
| 20260830220903 | 86 | 303 | 2.0 | 7.0 | 0.00 | 0.00 | 0.00 | 74 | 1015.6 |
| 20260830220803 | 86 | 302 | 2.0 | 7.0 | 0.00 | 0.00 | 0.00 | 74 | 1015.5 |
| 20260830220703 | 86 | 300 | 3.0 | 8.0 | 0.00 | 0.00 | 0.00 | 74 | 1015.5 |
| 20260830220603 | 86 | 302 | 3.0 | 9.0 | 0.00 | 0.00 | 0.00 | 74 | 1015.6 |
| 20260830220503 | 86 | 303 | 4.0 | 9.0 | 0.00 | 0.00 | 0.00 | 75 | 1015.6 |
| 20260830220403 | 86 | 303 | 4.0 | 9.0 | 0.00 | 0.00 | 0.00 | 75 | 1015.5 |
| 20260830220303 | 86 | 302 | 4.0 | 9.0 | 0.00 | 0.00 | 0.00 | 75 | 1015.5 |
| 20260830220203 | 86 | 301 | 4.0 | 9.0 | 0.00 | 0.00 | 0.00 | 75 | 1015.5 |
| 20260830220119 | 86 | 302 | 5.0 | 10.0 | 0.00 | 0.00 | 0.00 | 75 | 1015.5 |
| 20260830215903 | 86 | 303 | 4.0 | 10.0 | 0.00 | 0.00 | 0.00 | 74 | 1015.5 |
| 20260830215803 | 86 | 303 | 4.0 | 10.0 | 0.00 | 0.00 | 0.00 | 74 | 1015.5 |
| 20260830215703 | 86 | 304 | 4.0 | 10.0 | 0.00 | 0.00 | 0.00 | 74 | 1015.5 |
| 20260830215603 | 86 | 302 | 3.0 | 10.0 | 0.00 | 0.00 | 0.00 | 74 | 1015.6 |
| 20260830215503 | 86 | 301 | 3.0 | 10.0 | 0.00 | 0.00 | 0.00 | 74 | 1015.7 |
| 20260830215403 | 86 | 300 | 3.0 | 10.0 | 0.00 | 0.00 | 0.00 | 74 | 1015.5 |
| 20260830215305 | 86 | 298 | 3.0 | 10.0 | 0.00 | 0.00 | 0.00 | 74 | 1015.6 |
| 20260830215204 | 86 | 300 | 3.0 | 10.0 | 0.00 | 0.00 | 0.00 | 74 | 1015.5 |
| 20260830215104 | 86 | 300 | 3.0 | 10.0 | 0.00 | 0.00 | 0.00 | 74 | 1015.5 |
| 20260830215004 | 86 | 298 | 3.0 | 8.0 | 0.00 | 0.00 | 0.00 | 74 | 1015.6 |
| 20260830214904 | 86 | 297 | 3.0 | 8.0 | 0.00 | 0.00 | 0.00 | 74 | 1015.6 |
| 20260830214804 | 86 | 298 | 4.0 | 8.0 | 0.00 | 0.00 | 0.00 | 74 | 1015.5 |
| 20260830214704 | 86 | 297 | 4.0 | 8.0 | 0.00 | 0.00 | 0.00 | 74 | 1015.5 |
| 20260830214604 | 86 | 298 | 4.0 | 8.0 | 0.00 | 0.00 | 0.00 | 74 | 1015.5 |
| 20260830214504 | 86 | 298 | 4.0 | 8.0 | 0.00 | 0.00 | 0.00 | 74 | 1015.6 |
| 20260830214404 | 86 | 299 | 4.0 | 8.0 | 0.00 | 0.00 | 0.00 | 74 | 1015.5 |
| 20260830214304 | 86 | 298 | 4.0 | 9.0 | 0.00 | 0.00 | 0.00 | 74 | 1015.5 |
| 20260830214204 | 86 | 299 | 4.0 | 9.0 | 0.00 | 0.00 | 0.00 | 74 | 1015.5 |
| 20260830214104 | 86 | 299 | 4.0 | 9.0 | 0.00 | 0.00 | 0.00 | 74 | 1015.4 |
| 20260830214004 | 86 | 300 | 4.0 | 9.0 | 0.00 | 0.00 | 0.00 | 74 | 1015.4 |
| 20260830213904 | 86 | 300 | 4.0 | 9.0 | 0.00 | 0.00 | 0.00 | 74 | 1015.4 |
| 20260830213804 | 86 | 300 | 4.0 | 9.0 | 0.00 | 0.00 | 0.00 | 73 | 1015.4 |
| 20260830213704 | 86 | 299 | 4.0 | 9.0 | 0.00 | 0.00 | 0.00 | 73 | 1015.5 |
| 20260830213604 | 86 | 300 | 4.0 | 9.0 | 0.00 | 0.00 | 0.00 | 73 | 1015.5 |
| 20260830213504 | 86 | 300 | 4.0 | 9.0 | 0.00 | 0.00 | 0.00 | 73 | 1015.5 |
| 20260830213404 | 86 | 300 | 4.0 | 9.0 | 0.00 | 0.00 | 0.00 | 73 | 1015.6 |
| 20260830213304 | 86 | 301 | 4.0 | 9.0 | 0.00 | 0.00 | 0.00 | 73 | 1015.6 |
| 20260830213204 | 86 | 300 | 3.0 | 9.0 | 0.00 | 0.00 | 0.00 | 73 | 1015.5 |
| 20260830213104 | 86 | 299 | 4.0 | 9.0 | 0.00 | 0.00 | 0.00 | 73 | 1015.6 |
| 20260830213004 | 86 | 298 | 4.0 | 9.0 | 0.00 | 0.00 | 0.00 | 73 | 1015.5 |
| 20260830212904 | 86 | 298 | 3.0 | 9.0 | 0.00 | 0.00 | 0.00 | 72 | 1015.5 |
| 20260830212804 | 86 | 298 | 4.0 | 9.0 | 0.00 | 0.00 | 0.00 | 73 | 1015.5 |
| 20260830212704 | 86 | 299 | 3.0 | 9.0 | 0.00 | 0.00 | 0.00 | 73 | 1015.5 |
| 20260830212604 | 86 | 297 | 3.0 | 8.0 | 0.00 | 0.00 | 0.00 | 73 | 1015.5 |
| 20260830212504 | 86 | 297 | 3.0 | 8.0 | 0.00 | 0.00 | 0.00 | 72 | 1015.4 |
| 20260830212404 | 86 | 296 | 3.0 | 8.0 | 0.00 | 0.00 | 0.00 | 72 | 1015.5 |
| 20260830212306 | 86 | 296 | 3.0 | 9.0 | 0.00 | 0.00 | 0.00 | 72 | 1015.5 |
| 20260830212204 | 86 | 297 | 3.0 | 9.0 | 0.00 | 0.00 | 0.00 | 72 | 1015.5 |
| 20260830212104 | 86 | 296 | 3.0 | 9.0 | 0.00 | 0.00 | 0.00 | 72 | 1015.5 |
| 20260830212004 | 86 | 297 | 2.0 | 9.0 | 0.00 | 0.00 | 0.00 | 73 | 1015.5 |
| 20260830211904 | 86 | 297 | 2.0 | 9.0 | 0.00 | 0.00 | 0.00 | 73 | 1015.5 |
| 20260830211804 | 86 | 297 | 2.0 | 9.0 | 0.00 | 0.00 | 0.00 | 73 | 1015.4 |
| 20260830211704 | 86 | 297 | 2.0 | 9.0 | 0.00 | 0.00 | 0.00 | 73 | 1015.5 |
| 20260830211604 | 86 | 297 | 3.0 | 9.0 | 0.00 | 0.00 | 0.00 | 73 | 1015.5 |
| 20260830211504 | 86 | 295 | 3.0 | 9.0 | 0.00 | 0.00 | 0.00 | 73 | 1015.4 |
| 20260830211404 | 86 | 298 | 3.0 | 9.0 | 0.00 | 0.00 | 0.00 | 73 | 1015.4 |
| 20260830211304 | 86 | 299 | 3.0 | 10.0 | 0.00 | 0.00 | 0.00 | 73 | 1015.4 |
| 20260830211204 | 86 | 296 | 3.0 | 11.0 | 0.00 | 0.00 | 0.00 | 73 | 1015.3 |
| 20260830211104 | 86 | 297 | 4.0 | 11.0 | 0.00 | 0.00 | 0.00 | 73 | 1015.4 |
| 20260830211004 | 86 | 298 | 4.0 | 11.0 | 0.00 | 0.00 | 0.00 | 73 | 1015.4 |
| 20260830210904 | 86 | 297 | 4.0 | 11.0 | 0.00 | 0.00 | 0.00 | 73 | 1015.5 |
| 20260830210803 | 32 | 298 | 4.0 | 11.0 | 0.00 | 0.00 | 0.00 | 73 | 1015.5 |
| 20260830210704 | 86 | 298 | 4.0 | 11.0 | 0.00 | 0.00 | 0.00 | 73 | 1015.4 |
| 20260830210603 | 86 | 298 | 5.0 | 13.0 | 0.00 | 0.00 | 0.00 | 73 | 1015.3 |
| 20260830210503 | 86 | 299 | 5.0 | 13.0 | 0.00 | 0.00 | 0.00 | 73 | 1015.3 |
| 20260830210403 | 86 | 297 | 5.0 | 13.0 | 0.00 | 0.00 | 0.00 | 73 | 1015.6 |
| 20260830210303 | 86 | 297 | 5.0 | 13.0 | 0.00 | 0.00 | 0.00 | 73 | 1015.6 |
| 20260830210203 | 86 | 298 | 5.0 | 13.0 | 0.00 | 0.00 | 0.00 | 73 | 1015.7 |
| 20260830210103 | 86 | 297 | 5.0 | 13.0 | 0.00 | 0.00 | 0.00 | 73 | 1015.5 |
| 20260830210004 | 87 | 298 | 5.0 | 13.0 | 0.00 | 0.00 | 0.00 | 72 | 1015.5 |
| 20260830205903 | 86 | 298 | 4.0 | 13.0 | 0.00 | 0.00 | 0.00 | 72 | 1015.6 |
| 20260830205803 | 87 | 298 | 5.0 | 13.0 | 0.00 | 0.00 | 0.00 | 72 | 1015.5 |
| 20260830205704 | 87 | 298 | 4.0 | 13.0 | 0.00 | 0.00 | 0.00 | 72 | 1015.5 |
| 20260830205603 | 87 | 299 | 4.0 | 11.0 | 0.00 | 0.00 | 0.00 | 72 | 1015.6 |
| 20260830205503 | 87 | 298 | 4.0 | 11.0 | 0.00 | 0.00 | 0.00 | 72 | 1015.6 |
| 20260830205403 | 87 | 298 | 4.0 | 10.0 | 0.00 | 0.00 | 0.00 | 72 | 1015.5 |
| 20260830205305 | 87 | 298 | 4.0 | 10.0 | 0.00 | 0.00 | 0.00 | 72 | 1015.5 |
| 20260830205203 | 87 | 298 | 3.0 | 7.0 | 0.00 | 0.00 | 0.00 | 72 | 1015.5 |
| 20260830205103 | 87 | 298 | 3.0 | 7.0 | 0.00 | 0.00 | 0.00 | 72 | 1015.5 |
| 20260830205003 | 87 | 297 | 3.0 | 7.0 | 0.00 | 0.00 | 0.00 | 72 | 1015.5 |
| 20260830204903 | 87 | 296 | 3.0 | 7.0 | 0.00 | 0.00 | 0.00 | 72 | 1015.4 |
| 20260830204803 | 87 | 295 | 3.0 | 6.0 | 0.00 | 0.00 | 0.00 | 72 | 1015.5 |
| 20260830204703 | 87 | 295 | 3.0 | 6.0 | 0.00 | 0.00 | 0.00 | 72 | 1015.5 |
| 20260830204603 | 87 | 295 | 3.0 | 6.0 | 0.00 | 0.00 | 0.00 | 72 | 1015.5 |
| 20260830204503 | 87 | 294 | 2.0 | 6.0 | 0.00 | 0.00 | 0.00 | 72 | 1015.4 |
| 20260830204403 | 87 | 294 | 2.0 | 6.0 | 0.00 | 0.00 | 0.00 | 72 | 1015.4 |
| 20260830204303 | 87 | 294 | 2.0 | 6.0 | 0.00 | 0.00 | 0.00 | 72 | 1015.5 |
| 20260830204203 | 87 | 294 | 2.0 | 6.0 | 0.00 | 0.00 | 0.00 | 72 | 1015.5 |
| 20260830204103 | 87 | 292 | 2.0 | 6.0 | 0.00 | 0.00 | 0.00 | 72 | 1015.6 |
| 20260830204003 | 87 | 293 | 2.0 | 6.0 | 0.00 | 0.00 | 0.00 | 72 | 1015.5 |
| 20260830203903 | 87 | 293 | 2.0 | 6.0 | 0.00 | 0.00 | 0.00 | 72 | 1015.5 |
| 20260830203803 | 87 | 294 | 2.0 | 6.0 | 0.00 | 0.00 | 0.00 | 73 | 1015.5 |
| 20260830203703 | 87 | 292 | 1.0 | 6.0 | 0.00 | 0.00 | 0.00 | 73 | 1015.4 |
| 20260830203603 | 87 | 292 | 1.0 | 5.0 | 0.00 | 0.00 | 0.00 | 72 | 1015.4 |
| 20260830203503 | 87 | 292 | 1.0 | 5.0 | 0.00 | 0.00 | 0.00 | 72 | 1015.4 |
| 20260830203403 | 87 | 292 | 1.0 | 5.0 | 0.00 | 0.00 | 0.00 | 72 | 1015.4 |
| 20260830203303 | 87 | 291 | 1.0 | 6.0 | 0.00 | 0.00 | 0.00 | 72 | 1015.3 |
| 20260830203203 | 87 | 289 | 1.0 | 6.0 | 0.00 | 0.00 | 0.00 | 72 | 1015.4 |
| 20260830203103 | 87 | 291 | 1.0 | 6.0 | 0.00 | 0.00 | 0.00 | 72 | 1015.4 |
| 20260830203003 | 87 | 290 | 1.0 | 6.0 | 0.00 | 0.00 | 0.00 | 72 | 1015.4 |
| 20260830202903 | 87 | 290 | 1.0 | 6.0 | 0.00 | 0.00 | 0.00 | 72 | 1015.4 |
| 20260830202803 | 87 | 286 | 1.0 | 11.0 | 0.00 | 0.00 | 0.00 | 72 | 1015.3 |
| 20260830202703 | 87 | 288 | 2.0 | 11.0 | 0.00 | 0.00 | 0.00 | 72 | 1015.5 |
| 20260830202603 | 87 | 289 | 2.0 | 11.0 | 0.00 | 0.00 | 0.00 | 72 | 1015.3 |
| 20260830202503 | 87 | 288 | 2.0 | 11.0 | 0.00 | 0.00 | 0.00 | 71 | 1015.3 |
| 20260830202403 | 87 | 289 | 2.0 | 11.0 | 0.00 | 0.00 | 0.00 | 71 | 1015.5 |
| 20260830202305 | 87 | 291 | 2.0 | 11.0 | 0.00 | 0.00 | 0.00 | 71 | 1015.5 |
| 20260830202203 | 87 | 294 | 2.0 | 11.0 | 0.00 | 0.00 | 0.00 | 71 | 1015.4 |
| 20260830202103 | 87 | 294 | 3.0 | 11.0 | 0.00 | 0.00 | 0.00 | 71 | 1015.3 |
| 20260830202003 | 87 | 295 | 3.0 | 11.0 | 0.00 | 0.00 | 0.00 | 71 | 1015.3 |
| 20260830201903 | 87 | 295 | 3.0 | 11.0 | 0.00 | 0.00 | 0.00 | 71 | 1015.5 |
| 20260830201803 | 87 | 298 | 2.0 | 8.0 | 0.00 | 0.00 | 0.00 | 71 | 1015.5 |
| 20260830201703 | 87 | 298 | 2.0 | 8.0 | 0.00 | 0.00 | 0.00 | 71 | 1015.5 |
| 20260830201603 | 87 | 298 | 3.0 | 8.0 | 0.00 | 0.00 | 0.00 | 71 | 1015.4 |
| 20260830201503 | 87 | 298 | 3.0 | 8.0 | 0.00 | 0.00 | 0.00 | 71 | 1015.5 |
| 20260830201403 | 87 | 298 | 2.0 | 7.0 | 0.00 | 0.00 | 0.00 | 71 | 1015.5 |
| 20260830201303 | 87 | 298 | 2.0 | 7.0 | 0.00 | 0.00 | 0.00 | 71 | 1015.5 |
| 20260830201203 | 88 | 295 | 2.0 | 7.0 | 0.00 | 0.00 | 0.00 | 71 | 1015.5 |
| 20260830201103 | 87 | 297 | 2.0 | 7.0 | 0.00 | 0.00 | 0.00 | 72 | 1015.5 |
| 20260830201003 | 88 | 298 | 2.0 | 7.0 | 0.00 | 0.00 | 0.00 | 72 | 1015.5 |
| 20260830200903 | 88 | 299 | 2.0 | 7.0 | 0.00 | 0.00 | 0.00 | 72 | 1015.4 |
| 20260830200803 | 88 | 300 | 3.0 | 7.0 | 0.00 | 0.00 | 0.00 | 72 | 1015.4 |
| 20260830200703 | 88 | 300 | 2.0 | 7.0 | 0.00 | 0.00 | 0.00 | 72 | 1015.4 |
| 20260830200603 | 88 | 299 | 2.0 | 7.0 | 0.00 | 0.00 | 0.00 | 72 | 1015.3 |
| 20260830200503 | 88 | 299 | 3.0 | 7.0 | 0.00 | 0.00 | 0.00 | 72 | 1015.4 |
| 20260830200403 | 88 | 299 | 3.0 | 7.0 | 0.00 | 0.00 | 0.00 | 72 | 1015.4 |
| 20260830200303 | 88 | 300 | 3.0 | 7.0 | 0.00 | 0.00 | 0.00 | 72 | 1015.4 |
| 20260830200203 | 88 | 300 | 3.0 | 7.0 | 0.00 | 0.00 | 0.00 | 72 | 1015.3 |
| 20260830200103 | 88 | 299 | 3.0 | 7.0 | 0.00 | 0.00 | 0.00 | 72 | 1015.3 |
| 20260830200003 | 88 | 297 | 3.0 | 7.0 | 0.00 | 0.00 | 0.00 | 72 | 1015.3 |
| 20260830195903 | 88 | 297 | 3.0 | 7.0 | 0.00 | 0.00 | 0.00 | 72 | 1015.3 |
| 20260830195803 | 88 | 297 | 3.0 | 7.0 | 0.00 | 0.00 | 0.00 | 72 | 1015.3 |
| 20260830195703 | 88 | 297 | 3.0 | 7.0 | 0.00 | 0.00 | 0.00 | 72 | 1015.3 |
| 20260830195603 | 88 | 297 | 2.0 | 7.0 | 0.00 | 0.00 | 0.00 | 72 | 1015.2 |
| 20260830195503 | 88 | 297 | 2.0 | 7.0 | 0.00 | 0.00 | 0.00 | 72 | 1015.2 |
| 20260830195403 | 88 | 298 | 2.0 | 7.0 | 0.00 | 0.00 | 0.00 | 72 | 1015.2 |
| 20260830195305 | 88 | 297 | 2.0 | 7.0 | 0.00 | 0.00 | 0.00 | 72 | 1015.2 |
| 20260830195203 | 88 | 296 | 2.0 | 7.0 | 0.00 | 0.00 | 0.00 | 72 | 1015.2 |
| 20260830195103 | 88 | 296 | 2.0 | 9.0 | 0.00 | 0.00 | 0.00 | 72 | 1015.2 |
| 20260830195003 | 88 | 297 | 2.0 | 9.0 | 0.00 | 0.00 | 0.00 | 73 | 1015.3 |
| 20260830194903 | 88 | 296 | 2.0 | 9.0 | 0.00 | 0.00 | 0.00 | 72 | 1015.3 |
| 20260830194803 | 88 | 296 | 2.0 | 9.0 | 0.00 | 0.00 | 0.00 | 72 | 1015.3 |
| 20260830194703 | 88 | 295 | 2.0 | 9.0 | 0.00 | 0.00 | 0.00 | 72 | 1015.3 |
| 20260830194603 | 88 | 294 | 2.0 | 9.0 | 0.00 | 0.00 | 0.00 | 72 | 1015.3 |
| 20260830194503 | 88 | 294 | 2.0 | 9.0 | 0.00 | 0.00 | 0.00 | 72 | 1015.4 |
| 20260830194403 | 88 | 296 | 2.0 | 9.0 | 0.00 | 0.00 | 0.00 | 72 | 1015.3 |
| 20260830194303 | 88 | 295 | 3.0 | 9.0 | 0.00 | 0.00 | 0.00 | 73 | 1015.3 |
| 20260830194203 | 88 | 295 | 3.0 | 9.0 | 0.00 | 0.00 | 0.00 | 73 | 1015.3 |
| 20260830194103 | 88 | 295 | 2.0 | 9.0 | 0.00 | 0.00 | 0.00 | 73 | 1015.3 |
| 20260830194003 | 88 | 296 | 2.0 | 9.0 | 0.00 | 0.00 | 0.00 | 73 | 1015.3 |
| 20260830193903 | 88 | 296 | 2.0 | 9.0 | 0.00 | 0.00 | 0.00 | 73 | 1015.2 |
| 20260830193803 | 88 | 296 | 2.0 | 9.0 | 0.00 | 0.00 | 0.00 | 73 | 1015.2 |
| 20260830193703 | 88 | 295 | 2.0 | 9.0 | 0.00 | 0.00 | 0.00 | 73 | 1015.2 |
| 20260830193603 | 88 | 297 | 2.0 | 9.0 | 0.00 | 0.00 | 0.00 | 73 | 1015.2 |
| 20260830193503 | 88 | 297 | 2.0 | 9.0 | 0.00 | 0.00 | 0.00 | 74 | 1015.3 |
| 20260830193403 | 88 | 294 | 2.0 | 7.0 | 0.00 | 0.00 | 0.00 | 74 | 1015.3 |
| 20260830193303 | 88 | 295 | 1.0 | 6.0 | 0.00 | 0.00 | 0.00 | 73 | 1015.2 |
| 20260830193203 | 88 | 297 | 1.0 | 6.0 | 0.00 | 0.00 | 0.00 | 73 | 1015.2 |
| 20260830193103 | 88 | 298 | 1.0 | 6.0 | 0.00 | 0.00 | 0.00 | 73 | 1015.2 |
| 20260830193003 | 88 | 294 | 0.0 | 4.0 | 0.00 | 0.00 | 0.00 | 73 | 1015.3 |
| 20260830192903 | 88 | 298 | 0.0 | 3.0 | 0.00 | 0.00 | 0.00 | 73 | 1015.3 |
| 20260830192803 | 88 | 292 | 0.0 | 3.0 | 0.00 | 0.00 | 0.00 | 73 | 1015.3 |
| 20260830192704 | 88 | 112 | 0.0 | 1.0 | 0.00 | 0.00 | 0.00 | 73 | 1015.3 |
| 20260830192604 | 88 | 112 | 0.0 | 3.0 | 0.00 | 0.00 | 0.00 | 73 | 1015.2 |
| 20260830192504 | 88 | 112 | 0.0 | 3.0 | 0.00 | 0.00 | 0.00 | 73 | 1015.2 |
| 20260830192404 | 88 | 112 | 0.0 | 3.0 | 0.00 | 0.00 | 0.00 | 73 | 1015.2 |
| 20260830192305 | 88 | 60 | 0.0 | 4.0 | 0.00 | 0.00 | 0.00 | 73 | 1015.2 |
| 20260830192204 | 88 | 60 | 0.0 | 4.0 | 0.00 | 0.00 | 0.00 | 73 | 1015.2 |
| 20260830192104 | 88 | 45 | 0.0 | 4.0 | 0.00 | 0.00 | 0.00 | 73 | 1015.2 |
| 20260830192004 | 88 | 45 | 0.0 | 4.0 | 0.00 | 0.00 | 0.00 | 73 | 1015.1 |
| 20260830191904 | 88 | 45 | 0.0 | 4.0 | 0.00 | 0.00 | 0.00 | 73 | 1015.1 |
| 20260830191804 | 88 | 45 | 0.0 | 4.0 | 0.00 | 0.00 | 0.00 | 73 | 1015.1 |
| 20260830191704 | 88 | 81 | 0.0 | 4.0 | 0.00 | 0.00 | 0.00 | 73 | 1015.2 |
| 20260830191604 | 88 | 45 | 0.0 | 4.0 | 0.00 | 0.00 | 0.00 | 73 | 1015.2 |
| 20260830191504 | 88 | 99 | 0.0 | 4.0 | 0.00 | 0.00 | 0.00 | 73 | 1015.2 |
| 20260830191404 | 88 | 103 | 0.0 | 4.0 | 0.00 | 0.00 | 0.00 | 73 | 1015.1 |
| 20260830191304 | 88 | 115 | 0.0 | 2.0 | 0.00 | 0.00 | 0.00 | 73 | 1015.1 |
| 20260830191204 | 88 | 115 | 0.0 | 2.0 | 0.00 | 0.00 | 0.00 | 73 | 1015.2 |
| 20260830191104 | 88 | 115 | 0.0 | 2.0 | 0.00 | 0.00 | 0.00 | 73 | 1015.2 |
| 20260830191004 | 88 | 115 | 0.0 | 2.0 | 0.00 | 0.00 | 0.00 | 73 | 1015.1 |
| 20260830190904 | 88 | 115 | 0.0 | 2.0 | 0.00 | 0.00 | 0.00 | 73 | 1015.1 |
| 20260830190804 | 88 | 115 | 0.0 | 2.0 | 0.00 | 0.00 | 0.00 | 73 | 1015.2 |
| 20260830190704 | 88 | 115 | 0.0 | 2.0 | 0.00 | 0.00 | 0.00 | 73 | 1015.1 |
| 20260830190604 | 88 | 117 | 0.0 | 2.0 | 0.00 | 0.00 | 0.00 | 73 | 1015.1 |
| 20260830190504 | 88 | 120 | 0.0 | 2.0 | 0.00 | 0.00 | 0.00 | 73 | 1015.1 |
| 20260830190404 | 88 | 112 | 0.0 | 1.0 | 0.00 | 0.00 | 0.00 | 73 | 1015.1 |
| 20260830190304 | 88 | 112 | 0.0 | 1.0 | 0.00 | 0.00 | 0.00 | 73 | 1015.1 |
| 20260830190204 | 88 | 112 | 0.0 | 1.0 | 0.00 | 0.00 | 0.00 | 73 | 1015.2 |
| 20260830190104 | 88 | 0 | 0.0 | 0.0 | 0.00 | 0.00 | 0.00 | 73 | 1015.1 |
| 20260830190005 | 88 | 0 | 0.0 | 0.0 | 0.00 | 0.00 | 0.00 | 73 | 1015.2 |
| 20260830185904 | 88 | 0 | 0.0 | 0.0 | 0.00 | 0.00 | 0.00 | 73 | 1015.3 |
| 20260830185804 | 88 | 0 | 0.0 | 0.0 | 0.00 | 0.00 | 0.00 | 73 | 1015.3 |
| 20260830185704 | 88 | 0 | 0.0 | 0.0 | 0.00 | 0.00 | 0.00 | 73 | 1015.2 |
| 20260830185604 | 88 | 108 | 0.0 | 3.0 | 0.00 | 0.00 | 0.00 | 74 | 1015.2 |
| 20260830185504 | 88 | 109 | 0.0 | 3.0 | 0.00 | 0.00 | 0.00 | 73 | 1015.2 |
| 20260830185404 | 88 | 110 | 0.0 | 3.0 | 0.00 | 0.00 | 0.00 | 74 | 1015.1 |
| 20260830185306 | 88 | 110 | 0.0 | 3.0 | 0.00 | 0.00 | 0.00 | 74 | 1015.2 |
| 20260830185204 | 88 | 110 | 0.0 | 3.0 | 0.00 | 0.00 | 0.00 | 74 | 1015.2 |
| 20260830185104 | 88 | 110 | 0.0 | 3.0 | 0.00 | 0.00 | 0.00 | 74 | 1015.2 |
| 20260830185004 | 88 | 110 | 0.0 | 3.0 | 0.00 | 0.00 | 0.00 | 73 | 1015.2 |
| 20260830184904 | 88 | 110 | 0.0 | 3.0 | 0.00 | 0.00 | 0.00 | 73 | 1015.2 |
| 20260830184804 | 88 | 110 | 0.0 | 3.0 | 0.00 | 0.00 | 0.00 | 73 | 1015.1 |
| 20260830184704 | 88 | 110 | 0.0 | 3.0 | 0.00 | 0.00 | 0.00 | 73 | 1015.0 |
| 20260830184603 | 88 | 112 | 0.0 | 2.0 | 0.00 | 0.00 | 0.00 | 73 | 1015.1 |
| 20260830184504 | 88 | 335 | 0.0 | 6.0 | 0.00 | 0.00 | 0.00 | 73 | 1015.2 |
| 20260830184403 | 88 | 318 | 0.0 | 6.0 | 0.00 | 0.00 | 0.00 | 73 | 1015.2 |
| 20260830184303 | 88 | 293 | 0.0 | 6.0 | 0.00 | 0.00 | 0.00 | 72 | 1015.1 |
| 20260830184203 | 88 | 297 | 0.0 | 6.0 | 0.00 | 0.00 | 0.00 | 73 | 1015.2 |
| 20260830184103 | 88 | 304 | 1.0 | 6.0 | 0.00 | 0.00 | 0.00 | 72 | 1015.2 |
| 20260830184003 | 88 | 318 | 1.0 | 6.0 | 0.00 | 0.00 | 0.00 | 72 | 1015.2 |
| 20260830183903 | 88 | 329 | 1.0 | 6.0 | 0.00 | 0.00 | 0.00 | 72 | 1015.1 |
| 20260830183803 | 88 | 340 | 1.0 | 6.0 | 0.00 | 0.00 | 0.00 | 72 | 1015.1 |
| 20260830183703 | 88 | 340 | 1.0 | 6.0 | 0.00 | 0.00 | 0.00 | 72 | 1015.1 |
| 20260830183603 | 88 | 340 | 1.0 | 6.0 | 0.00 | 0.00 | 0.00 | 72 | 1015.1 |
| 20260830183503 | 88 | 357 | 1.0 | 6.0 | 0.00 | 0.00 | 0.00 | 72 | 1015.0 |
| 20260830183403 | 88 | 58 | 1.0 | 6.0 | 0.00 | 0.00 | 0.00 | 72 | 1015.0 |
| 20260830183303 | 88 | 93 | 0.0 | 6.0 | 0.00 | 0.00 | 0.00 | 72 | 1015.0 |
| 20260830183203 | 88 | 104 | 0.0 | 6.0 | 0.00 | 0.00 | 0.00 | 72 | 1015.1 |
| 20260830183103 | 88 | 113 | 0.0 | 6.0 | 0.00 | 0.00 | 0.00 | 72 | 1015.0 |
| 20260830183003 | 88 | 117 | 0.0 | 2.0 | 0.00 | 0.00 | 0.00 | 72 | 1015.1 |
| 20260830182903 | 88 | 126 | 0.0 | 2.0 | 0.00 | 0.00 | 0.00 | 72 | 1015.0 |
| 20260830182803 | 88 | 202 | 0.0 | 1.0 | 0.00 | 0.00 | 0.00 | 72 | 1015.1 |
| 20260830182703 | 88 | 297 | 0.0 | 7.0 | 0.00 | 0.00 | 0.00 | 72 | 1015.0 |
| 20260830182603 | 88 | 297 | 1.0 | 7.0 | 0.00 | 0.00 | 0.00 | 72 | 1014.9 |
| 20260830182503 | 88 | 297 | 1.0 | 7.0 | 0.00 | 0.00 | 0.00 | 72 | 1014.8 |
| 20260830182403 | 88 | 297 | 1.0 | 7.0 | 0.00 | 0.00 | 0.00 | 72 | 1014.8 |
| 20260830182306 | 88 | 306 | 1.0 | 7.0 | 0.00 | 0.00 | 0.00 | 72 | 1014.8 |
| 20260830182203 | 88 | 304 | 1.0 | 7.0 | 0.00 | 0.00 | 0.00 | 72 | 1014.8 |
| 20260830182103 | 88 | 299 | 2.0 | 7.0 | 0.00 | 0.00 | 0.00 | 72 | 1014.9 |
| 20260830182003 | 88 | 299 | 2.0 | 7.0 | 0.00 | 0.00 | 0.00 | 72 | 1015.0 |
| 20260830181903 | 88 | 299 | 2.0 | 7.0 | 0.00 | 0.00 | 0.00 | 72 | 1015.0 |
| 20260830181803 | 88 | 299 | 2.0 | 7.0 | 0.00 | 0.00 | 0.00 | 72 | 1015.0 |
| 20260830181703 | 88 | 299 | 3.0 | 9.0 | 0.00 | 0.00 | 0.00 | 72 | 1015.0 |
| 20260830181603 | 88 | 302 | 3.0 | 9.0 | 0.00 | 0.00 | 0.00 | 72 | 1015.0 |
| 20260830181503 | 88 | 302 | 3.0 | 9.0 | 0.00 | 0.00 | 0.00 | 72 | 1015.0 |
| 20260830181403 | 88 | 302 | 3.0 | 9.0 | 0.00 | 0.00 | 0.00 | 72 | 1014.9 |
| 20260830181303 | 88 | 300 | 3.0 | 9.0 | 0.00 | 0.00 | 0.00 | 72 | 1014.9 |
| 20260830181203 | 88 | 300 | 2.0 | 9.0 | 0.00 | 0.00 | 0.00 | 72 | 1014.8 |
| 20260830181103 | 88 | 303 | 2.0 | 9.0 | 0.00 | 0.00 | 0.00 | 71 | 1014.8 |
| 20260830181003 | 88 | 304 | 2.0 | 9.0 | 0.00 | 0.00 | 0.00 | 71 | 1014.8 |
| 20260830180903 | 88 | 303 | 2.0 | 9.0 | 0.00 | 0.00 | 0.00 | 71 | 1014.7 |
| 20260830180803 | 88 | 305 | 2.0 | 9.0 | 0.00 | 0.00 | 0.00 | 71 | 1014.6 |
| 20260830180703 | 88 | 309 | 1.0 | 7.0 | 0.00 | 0.00 | 0.00 | 71 | 1014.6 |
| 20260830180603 | 88 | 304 | 1.0 | 7.0 | 0.00 | 0.00 | 0.00 | 71 | 1014.6 |
| 20260830180503 | 88 | 304 | 1.0 | 7.0 | 0.00 | 0.00 | 0.00 | 71 | 1014.6 |
| 20260830180403 | 88 | 301 | 1.0 | 7.0 | 0.00 | 0.00 | 0.00 | 71 | 1014.6 |
| 20260830180303 | 88 | 303 | 1.0 | 7.0 | 0.00 | 0.00 | 0.00 | 71 | 1014.5 |
| 20260830180203 | 88 | 302 | 1.0 | 7.0 | 0.00 | 0.00 | 0.00 | 71 | 1014.5 |
| 20260830180103 | 88 | 301 | 1.0 | 7.0 | 0.00 | 0.00 | 0.00 | 71 | 1014.6 |
| 20260830180003 | 88 | 299 | 1.0 | 7.0 | 0.00 | 0.00 | 0.00 | 71 | 1014.5 |
| 20260830175903 | 88 | 297 | 1.0 | 6.0 | 0.00 | 0.00 | 0.00 | 70 | 1014.5 |
| 20260830175803 | 88 | 298 | 1.0 | 6.0 | 0.00 | 0.00 | 0.00 | 70 | 1014.5 |
| 20260830175703 | 88 | 297 | 1.0 | 6.0 | 0.00 | 0.00 | 0.00 | 70 | 1014.4 |
| 20260830175603 | 88 | 296 | 1.0 | 6.0 | 0.00 | 0.00 | 0.00 | 70 | 1014.5 |
| 20260830175503 | 88 | 295 | 1.0 | 6.0 | 0.00 | 0.00 | 0.00 | 70 | 1014.5 |
| 20260830175403 | 88 | 296 | 1.0 | 6.0 | 0.00 | 0.00 | 0.00 | 70 | 1014.6 |
| 20260830175305 | 88 | 291 | 1.0 | 6.0 | 0.00 | 0.00 | 0.00 | 70 | 1014.5 |
| 20260830175203 | 88 | 289 | 1.0 | 6.0 | 0.00 | 0.00 | 0.00 | 70 | 1014.5 |
| 20260830175103 | 88 | 289 | 1.0 | 6.0 | 0.00 | 0.00 | 0.00 | 70 | 1014.5 |
| 20260830175003 | 88 | 285 | 1.0 | 6.0 | 0.00 | 0.00 | 0.00 | 71 | 1014.4 |
| 20260830174903 | 88 | 290 | 1.0 | 6.0 | 0.00 | 0.00 | 0.00 | 71 | 1014.4 |
| 20260830174803 | 88 | 291 | 1.0 | 6.0 | 0.00 | 0.00 | 0.00 | 70 | 1014.5 |
| 20260830174703 | 88 | 291 | 1.0 | 6.0 | 0.00 | 0.00 | 0.00 | 70 | 1014.5 |
| 20260830174603 | 88 | 293 | 1.0 | 6.0 | 0.00 | 0.00 | 0.00 | 70 | 1014.4 |
| 20260830174503 | 88 | 296 | 1.0 | 6.0 | 0.00 | 0.00 | 0.00 | 70 | 1014.4 |
| 20260830174403 | 88 | 295 | 1.0 | 6.0 | 0.00 | 0.00 | 0.00 | 70 | 1014.3 |
| 20260830174303 | 88 | 295 | 1.0 | 6.0 | 0.00 | 0.00 | 0.00 | 70 | 1014.2 |
| 20260830174203 | 88 | 296 | 1.0 | 6.0 | 0.00 | 0.00 | 0.00 | 70 | 1014.2 |
| 20260830174103 | 89 | 298 | 1.0 | 6.0 | 0.00 | 0.00 | 0.00 | 70 | 1014.2 |
| 20260830174003 | 89 | 299 | 1.0 | 6.0 | 0.00 | 0.00 | 0.00 | 70 | 1014.3 |
| 20260830173903 | 89 | 294 | 1.0 | 6.0 | 0.00 | 0.00 | 0.00 | 70 | 1014.3 |
| 20260830173803 | 89 | 293 | 2.0 | 9.0 | 0.00 | 0.00 | 0.00 | 70 | 1014.3 |
| 20260830173703 | 89 | 294 | 2.0 | 9.0 | 0.00 | 0.00 | 0.00 | 69 | 1014.3 |
| 20260830173603 | 89 | 294 | 2.0 | 9.0 | 0.00 | 0.00 | 0.00 | 69 | 1014.3 |
| 20260830173503 | 89 | 295 | 2.0 | 9.0 | 0.00 | 0.00 | 0.00 | 69 | 1014.3 |
| 20260830173403 | 89 | 298 | 2.0 | 9.0 | 0.00 | 0.00 | 0.00 | 69 | 1014.2 |
| 20260830173303 | 89 | 298 | 2.0 | 9.0 | 0.00 | 0.00 | 0.00 | 69 | 1014.2 |
| 20260830173203 | 89 | 298 | 3.0 | 9.0 | 0.00 | 0.00 | 0.00 | 69 | 1014.3 |
| 20260830173103 | 89 | 297 | 3.0 | 9.0 | 0.00 | 0.00 | 0.00 | 69 | 1014.3 |
| 20260830173003 | 89 | 298 | 3.0 | 9.0 | 0.00 | 0.00 | 0.00 | 69 | 1014.2 |
| 20260830172903 | 89 | 302 | 2.0 | 9.0 | 0.00 | 0.00 | 0.00 | 68 | 1014.2 |
| 20260830172803 | 89 | 305 | 2.0 | 8.0 | 0.00 | 0.00 | 0.00 | 68 | 1014.1 |
| 20260830172703 | 89 | 303 | 2.0 | 8.0 | 0.00 | 0.00 | 0.00 | 68 | 1014.3 |
| 20260830172603 | 89 | 298 | 2.0 | 8.0 | 0.00 | 0.00 | 0.00 | 68 | 1014.3 |
| 20260830172503 | 89 | 299 | 1.0 | 6.0 | 0.00 | 0.00 | 0.00 | 68 | 1014.2 |
| 20260830172403 | 89 | 297 | 2.0 | 6.0 | 0.00 | 0.00 | 0.00 | 68 | 1014.2 |
| 20260830172306 | 89 | 297 | 2.0 | 6.0 | 0.00 | 0.00 | 0.00 | 67 | 1014.2 |
| 20260830172203 | 89 | 295 | 1.0 | 6.0 | 0.00 | 0.00 | 0.00 | 67 | 1014.1 |
| 20260830172103 | 89 | 298 | 2.0 | 6.0 | 0.00 | 0.00 | 0.00 | 67 | 1014.1 |
| 20260830172003 | 89 | 295 | 2.0 | 6.0 | 0.00 | 0.00 | 0.00 | 67 | 1014.1 |
| 20260830171903 | 89 | 295 | 2.0 | 6.0 | 0.00 | 0.00 | 0.00 | 67 | 1014.1 |
| 20260830171803 | 89 | 296 | 2.0 | 6.0 | 0.00 | 0.00 | 0.00 | 67 | 1014.0 |
| 20260830171703 | 89 | 300 | 2.0 | 6.0 | 0.00 | 0.00 | 0.00 | 67 | 1014.0 |
| 20260830171603 | 89 | 305 | 2.0 | 7.0 | 0.00 | 0.00 | 0.00 | 66 | 1014.1 |
| 20260830171503 | 90 | 301 | 2.0 | 7.0 | 0.00 | 0.00 | 0.00 | 66 | 1014.0 |
| 20260830171403 | 90 | 301 | 2.0 | 7.0 | 0.00 | 0.00 | 0.00 | 66 | 1014.0 |